[[{"header":{"parameterUnit":"m.s-1","parameterCategory":1,"la1":30.6,"la2":28.766,"lo1":-90.7593,"lo2":-88.6598,"dy":0.0162,"dx":0.0183,"nx":116,"ny":114,"refTime":"2023-08-19T18:00:00:Z","depth":0,"parameterNumber":2,"parameterNumberName":"U-component_of_WINDS"},"data":[0.0,0.0,0.0,0.0,0.0,0.0,0.0,0.0,0.0,0.0,0.0,0.0,0.0,0.0,0.0,0.0,0.0,0.0,0.0,0.0,0.0,0.0,0.0,0.0,0.0,0.0,0.0,0.0,0.0,0.0,0.0,0.0,0.0,0.0,0.0,0.0,0.0,0.0,0.0,0.0,0.0,0.0,0.0,0.0,0.0,0.0,0.0,0.0,0.0,0.0,0.0,0.0,0.0,0.0,0.0,0.0,0.0,0.0,0.0,0.0,0.0,0.0,0.0,0.0,0.0,0.0,0.0,0.0,0.0,0.0,0.0,0.0,0.0,0.0,0.0,0.0,0.0,0.0,0.0,0.0,0.0,0.0,0.0,0.0,0.0,0.0,0.0,0.0,0.0,0.0,0.0,0.0,0.0,0.0,0.0,0.0,0.0,0.0,0.0,0.0,0.0,0.0,0.0,0.0,0.0,0.0,0.0,0.0,0.0,0.0,0.0,0.0,0.0,0.0,0.0,0.0,0.0,0.0,0.0,0.0,0.0,0.0,0.0,0.0,0.0,0.0,0.0,0.0,0.0,0.0,0.0,0.0,0.0,0.0,0.0,0.0,0.0,0.0,0.0,0.0,0.0,0.0,0.0,0.0,0.0,0.0,0.0,0.0,0.0,0.0,0.0,0.0,0.0,0.0,0.0,0.0,0.0,0.0,0.0,0.0,0.0,0.0,0.0,0.0,0.0,0.0,0.0,0.0,0.0,0.0,0.0,0.0,0.0,0.0,0.0,0.0,0.0,0.0,0.0,0.0,0.0,0.0,0.0,0.0,0.0,0.0,0.0,0.0,0.0,0.0,0.0,0.0,0.0,0.0,0.0,0.0,0.0,0.0,0.0,0.0,0.0,0.0,0.0,0.0,0.0,0.0,0.0,0.0,0.0,0.0,0.0,0.0,0.0,0.0,0.0,0.0,0.0,0.0,0.0,0.0,0.0,0.0,0.0,0.0,0.0,0.0,0.0,0.0,0.0,0.0,0.0,0.0,0.0,0.0,0.0,0.0,0.0,0.0,0.0,0.0,0.0,0.0,0.0,0.0,0.0,0.0,0.0,0.0,0.0,0.0,0.0,0.0,0.0,0.0,0.0,0.0,0.0,0.0,0.0,0.0,0.0,0.0,0.0,0.0,0.0,0.0,0.0,0.0,0.0,0.0,0.0,0.0,0.0,0.0,0.0,0.0,0.0,0.0,0.0,0.0,0.0,0.0,0.0,0.0,0.0,0.0,0.0,0.0,0.0,0.0,0.0,0.0,0.0,0.0,0.0,0.0,0.0,0.0,0.0,0.0,0.0,0.0,0.0,0.0,0.0,0.0,0.0,0.0,0.0,0.0,0.0,0.0,0.0,0.0,0.0,0.0,0.0,0.0,0.0,0.0,0.0,0.0,0.0,0.0,0.0,0.0,0.0,0.0,0.0,0.0,0.0,0.0,0.0,0.0,0.0,0.0,0.0,0.0,0.0,0.0,0.0,0.0,0.0,0.0,0.0,0.0,0.0,0.0,0.0,0.0,0.0,0.0,0.0,0.0,0.0,0.0,0.0,0.0,0.0,0.0,0.0,0.0,0.0,0.0,0.0,0.0,0.0,0.0,0.0,0.0,0.0,0.0,0.0,0.0,0.0,0.0,0.0,0.0,0.0,0.0,0.0,0.0,0.0,0.0,0.0,0.0,0.0,0.0,0.0,0.0,0.0,0.0,0.0,0.0,0.0,0.0,0.0,0.0,0.0,0.0,0.0,0.0,0.0,0.0,0.0,0.0,0.0,0.0,0.0,0.0,0.0,0.0,0.0,0.0,0.0,0.0,0.0,0.0,0.0,0.0,0.0,0.0,0.0,0.0,0.0,0.0,0.0,0.0,0.0,0.0,0.0,0.0,0.0,0.0,0.0,0.0,0.0,0.0,0.0,0.0,0.0,0.0,0.0,0.0,0.0,0.0,0.0,0.0,0.0,0.0,0.0,0.0,0.0,0.0,0.0,0.0,0.0,0.0,0.0,0.0,0.0,0.0,0.0,0.0,0.0,0.0,0.0,0.0,0.0,0.0,0.0,0.0,0.0,0.0,0.0,0.0,0.0,0.0,0.0,0.0,0.0,0.0,0.0,0.0,0.0,0.0,0.0,0.0,0.0,0.0,0.0,0.0,0.0,0.0,0.0,0.0,0.0,0.0,0.0,0.0,0.0,0.0,0.0,0.0,0.0,0.0,0.0,0.0,0.0,0.0,0.0,0.0,0.0,0.0,0.0,0.0,0.0,0.0,0.0,0.0,0.0,0.0,0.0,0.0,0.0,0.0,0.0,0.0,0.0,0.0,0.0,0.0,0.0,0.0,0.0,0.0,0.0,0.0,0.0,0.0,0.0,0.0,0.0,0.0,0.0,0.0,0.0,0.0,0.0,0.0,0.0,0.0,0.0,0.0,0.0,0.0,0.0,0.0,0.0,0.0,0.0,0.0,0.0,0.0,0.0,0.0,0.0,0.0,0.0,0.0,0.0,0.0,0.0,0.0,0.0,0.0,0.0,0.0,0.0,0.0,0.0,0.0,0.0,0.0,0.0,0.0,0.0,0.0,0.0,0.0,0.0,0.0,0.0,0.0,0.0,0.0,0.0,0.0,0.0,0.0,0.0,0.0,0.0,0.0,0.0,0.0,0.0,0.0,0.0,0.0,0.0,0.0,0.0,0.0,0.0,0.0,0.0,0.0,0.0,0.0,0.0,0.0,0.0,0.0,0.0,0.0,0.0,0.0,0.0,0.0,0.0,0.0,0.0,0.0,0.0,0.0,0.0,0.0,0.0,0.0,0.0,0.0,0.0,0.0,0.0,0.0,0.0,0.0,0.0,0.0,0.0,0.0,0.0,0.0,0.0,0.0,0.0,0.0,0.0,0.0,0.0,0.0,0.0,0.0,0.0,0.0,0.0,0.0,0.0,0.0,0.0,0.0,0.0,0.0,0.0,0.0,0.0,0.0,0.0,0.0,0.0,0.0,0.0,0.0,0.0,0.0,0.0,0.0,0.0,0.0,0.0,0.0,0.0,0.0,0.0,0.0,0.0,0.0,0.0,0.0,0.0,0.0,0.0,0.0,0.0,0.0,0.0,0.0,0.0,0.0,0.0,0.0,0.0,0.0,0.0,0.0,0.0,0.0,0.0,0.0,0.0,0.0,0.0,0.0,0.0,0.0,0.0,0.0,0.0,0.0,0.0,0.0,0.0,0.0,0.0,0.0,0.0,0.0,0.0,0.0,0.0,0.0,0.0,0.0,0.0,0.0,0.0,0.0,0.0,0.0,0.0,0.0,0.0,0.0,0.0,0.0,0.0,0.0,0.0,0.0,0.0,0.0,0.0,0.0,0.0,0.0,0.0,0.0,0.0,0.0,0.0,0.0,0.0,0.0,0.0,0.0,0.0,0.0,0.0,0.0,0.0,0.0,0.0,0.0,0.0,0.0,0.0,0.0,0.0,0.0,0.0,0.0,0.0,0.0,0.0,0.0,0.0,0.0,0.0,0.0,0.0,0.0,0.0,0.0,0.0,0.0,0.0,0.0,0.0,0.0,0.0,0.0,0.0,0.0,0.0,0.0,0.0,0.0,0.0,0.0,0.0,0.0,0.0,0.0,0.0,0.0,0.0,0.0,0.0,0.0,0.0,0.0,0.0,0.0,0.0,0.0,0.0,0.0,0.0,0.0,0.0,0.0,0.0,0.0,0.0,0.0,0.0,0.0,0.0,0.0,0.0,0.0,0.0,0.0,0.0,0.0,0.0,0.0,0.0,0.0,0.0,0.0,0.0,0.0,0.0,0.0,0.0,0.0,0.0,0.0,0.0,0.0,0.0,0.0,0.0,0.0,0.0,0.0,0.0,0.0,0.0,0.0,0.0,0.0,0.0,0.0,0.0,0.0,0.0,0.0,0.0,0.0,0.0,0.0,0.0,0.0,0.0,0.0,0.0,0.0,0.0,0.0,0.0,0.0,0.0,0.0,0.0,0.0,0.0,0.0,0.0,0.0,0.0,0.0,0.0,0.0,0.0,0.0,0.0,0.0,0.0,0.0,0.0,0.0,0.0,0.0,0.0,0.0,0.0,0.0,0.0,0.0,0.0,0.0,0.0,0.0,0.0,0.0,0.0,0.0,0.0,0.0,0.0,0.0,0.0,0.0,0.0,0.0,0.0,0.0,0.0,0.0,0.0,0.0,0.0,0.0,0.0,0.0,0.0,0.0,0.0,0.0,0.0,0.0,0.0,0.0,0.0,0.0,0.0,0.0,0.0,0.0,0.0,0.0,0.0,0.0,0.0,0.0,0.0,0.0,0.0,0.0,0.0,0.0,0.0,0.0,0.0,0.0,0.0,0.0,0.0,0.0,0.0,0.0,0.0,0.0,0.0,0.0,0.0,0.0,0.0,0.0,0.0,0.0,0.0,0.0,0.0,0.0,0.0,0.0,0.0,0.0,0.0,0.0,0.0,0.0,0.0,0.0,0.0,0.0,0.0,0.0,0.0,0.0,0.0,0.0,0.0,0.0,0.0,0.0,0.0,0.0,0.0,0.0,0.0,0.0,0.0,0.0,0.0,0.0,0.0,0.0,0.0,0.0,0.0,0.0,0.0,0.0,0.0,0.0,0.0,0.0,0.0,0.0,0.0,0.0,0.0,0.0,0.0,0.0,0.0,0.0,0.0,0.0,0.0,0.0,0.0,0.0,0.0,0.0,0.0,0.0,0.0,0.0,0.0,0.0,0.0,0.0,0.0,0.0,0.0,0.0,0.0,0.0,0.0,0.0,0.0,0.0,0.0,0.0,0.0,0.0,0.0,0.0,0.0,0.0,0.0,0.0,0.0,0.0,0.0,0.0,0.0,0.0,0.0,0.0,0.0,0.0,0.0,0.0,0.0,0.0,0.0,0.0,0.0,0.0,0.0,0.0,0.0,0.0,0.0,0.0,0.0,0.0,0.0,0.0,0.0,0.0,0.0,0.0,0.0,0.0,0.0,0.0,0.0,0.0,0.0,0.0,0.0,0.0,0.0,0.0,0.0,0.0,0.0,0.0,0.0,0.0,0.0,0.0,0.0,0.0,0.0,0.0,0.0,0.0,0.0,0.0,0.0,0.0,0.0,0.0,0.0,0.0,0.0,0.0,0.0,0.0,0.0,0.0,0.0,0.0,0.0,0.0,0.0,0.0,0.0,0.0,0.0,0.0,0.0,0.0,0.0,0.0,0.0,0.0,0.0,0.0,0.0,0.0,0.0,0.0,0.0,0.0,0.0,0.0,0.0,0.0,0.0,0.0,0.0,0.0,0.0,0.0,0.0,0.0,0.0,0.0,0.0,0.0,0.0,0.0,0.0,0.0,0.0,0.0,0.0,0.0,0.0,0.0,0.0,0.0,0.0,0.0,0.0,0.0,0.0,0.0,0.0,0.0,0.0,0.0,0.0,0.0,0.0,0.0,0.0,0.0,0.0,0.0,0.0,0.0,0.0,0.0,0.0,0.0,0.0,0.0,0.0,0.0,0.0,0.0,0.0,0.0,0.0,0.0,0.0,0.0,0.0,0.0,0.0,0.0,0.0,0.0,0.0,0.0,0.0,0.0,0.0,0.0,0.0,0.0,0.0,0.0,0.0,0.0,0.0,0.0,0.0,0.0,0.0,0.0,0.0,0.0,0.0,0.0,0.0,0.0,0.0,0.0,0.0,0.0,0.0,0.0,0.0,0.0,0.0,0.0,0.0,0.0,0.0,0.0,0.0,0.0,0.0,0.0,0.0,0.0,0.0,0.0,0.0,0.0,0.0,0.0,0.0,0.0,0.0,0.0,0.0,0.0,0.0,0.0,0.0,0.0,0.0,0.0,0.0,0.0,0.0,0.0,0.0,0.0,0.0,0.0,0.0,0.0,0.0,0.0,0.0,0.0,0.0,0.0,0.0,0.0,0.0,0.0,0.0,0.0,0.0,0.0,0.0,0.0,0.0,0.0,0.0,0.0,0.0,0.0,0.0,0.0,0.0,0.0,0.0,0.0,0.0,0.0,0.0,0.0,0.0,0.0,0.0,0.0,0.0,0.0,0.0,0.0,0.0,0.0,0.0,0.0,-4.5793,0.0,0.0,0.0,0.0,0.0,0.0,0.0,0.0,0.0,0.0,0.0,0.0,0.0,0.0,0.0,0.0,0.0,0.0,0.0,0.0,0.0,0.0,0.0,0.0,0.0,0.0,0.0,0.0,0.0,0.0,0.0,0.0,0.0,0.0,0.0,0.0,0.0,0.0,0.0,-5.6602,-5.6603,-5.6607,-5.6597,-5.6601,-5.6601,0.0,0.0,0.0,0.0,0.0,0.0,0.0,0.0,0.0,0.0,0.0,0.0,0.0,0.0,0.0,0.0,0.0,0.0,0.0,0.0,0.0,0.0,0.0,0.0,0.0,0.0,0.0,0.0,0.0,0.0,0.0,0.0,0.0,0.0,0.0,0.0,0.0,0.0,0.0,0.0,0.0,0.0,0.0,0.0,0.0,0.0,0.0,0.0,0.0,0.0,0.0,0.0,0.0,0.0,0.0,0.0,0.0,0.0,0.0,0.0,0.0,0.0,0.0,0.0,0.0,0.0,0.0,0.0,0.0,0.0,0.0,-4.584,0.0,0.0,0.0,0.0,0.0,0.0,0.0,0.0,0.0,0.0,0.0,0.0,0.0,0.0,0.0,0.0,0.0,0.0,0.0,0.0,0.0,0.0,0.0,0.0,-5.139,-5.1408,-5.1533,-5.23,0.0,0.0,0.0,0.0,0.0,0.0,0.0,0.0,0.0,0.0,-5.6606,-5.6591,-5.6602,-5.6595,-5.66,-5.6601,-5.6601,0.0,0.0,0.0,0.0,0.0,0.0,0.0,0.0,0.0,0.0,0.0,0.0,0.0,0.0,0.0,0.0,0.0,0.0,0.0,0.0,0.0,0.0,0.0,0.0,0.0,0.0,0.0,0.0,0.0,0.0,0.0,0.0,0.0,0.0,0.0,0.0,0.0,0.0,0.0,0.0,0.0,0.0,0.0,0.0,0.0,0.0,0.0,0.0,0.0,0.0,0.0,0.0,0.0,0.0,0.0,0.0,0.0,0.0,0.0,0.0,0.0,0.0,0.0,-4.5399,-4.539,-4.5445,-4.5385,-4.539,-4.5476,-4.5654,-4.5739,-4.5778,-4.584,0.0,0.0,0.0,0.0,0.0,0.0,0.0,0.0,0.0,0.0,0.0,0.0,0.0,0.0,0.0,0.0,0.0,0.0,0.0,0.0,0.0,-5.1406,-5.1398,-5.1408,-5.2084,-5.2947,0.0,0.0,0.0,0.0,0.0,0.0,0.0,-5.6591,-5.6606,-5.6606,-5.6606,-5.6591,-5.6602,-5.6591,-5.6597,-5.66,-5.6601,-5.6601,-5.6582,0.0,0.0,0.0,0.0,0.0,0.0,0.0,0.0,0.0,0.0,0.0,0.0,0.0,0.0,0.0,0.0,0.0,0.0,0.0,0.0,0.0,0.0,0.0,0.0,0.0,0.0,0.0,0.0,0.0,0.0,0.0,0.0,0.0,0.0,0.0,0.0,0.0,0.0,0.0,0.0,0.0,-4.6066,-4.5923,0.0,0.0,0.0,0.0,0.0,0.0,0.0,0.0,0.0,0.0,0.0,0.0,0.0,-4.6962,-4.6909,-4.6909,-4.6949,-4.6997,-4.6304,-4.6025,-4.606,-4.5483,-4.5256,-4.5319,-4.5419,0.0,-4.5637,-4.5754,0.0,0.0,0.0,0.0,0.0,0.0,0.0,0.0,0.0,0.0,0.0,0.0,0.0,0.0,0.0,0.0,0.0,0.0,0.0,0.0,0.0,-5.1398,-5.1408,-5.1399,-5.2204,-5.3065,-5.3945,-5.4824,0.0,0.0,0.0,0.0,-5.6602,-5.6596,-5.6593,-5.6606,-5.6606,-5.6591,-5.6602,-5.6609,-5.6596,-5.6599,-5.6601,-5.6601,-5.6601,-5.6601,0.0,0.0,0.0,0.0,0.0,0.0,0.0,0.0,0.0,0.0,0.0,0.0,0.0,0.0,0.0,0.0,0.0,0.0,0.0,0.0,0.0,0.0,0.0,0.0,0.0,0.0,0.0,0.0,0.0,0.0,0.0,0.0,0.0,0.0,0.0,0.0,0.0,0.0,0.0,-4.6123,-4.6042,-4.5923,-4.5911,-4.6074,0.0,0.0,0.0,0.0,0.0,0.0,0.0,0.0,0.0,-4.746,-4.7363,-4.7303,-4.7276,-4.7235,-4.7202,-4.7229,-4.6879,-4.6743,-4.6821,-4.6562,-4.6464,-4.6515,-4.6173,-4.6059,-4.6081,-4.5794,-4.5695,-4.5688,0.0,0.0,0.0,0.0,-4.6605,-4.6992,0.0,0.0,0.0,0.0,0.0,0.0,0.0,0.0,0.0,0.0,0.0,0.0,-5.1398,-5.1409,-5.1496,-5.1717,-5.2538,-5.3398,-5.4277,-5.5156,0.0,0.0,0.0,-5.6597,-5.6607,-5.6603,-5.6596,-5.6606,-5.6608,-5.6595,-5.6602,-5.6592,-5.6597,-5.6599,-5.6601,-5.6601,-5.6601,-5.6601,-5.6601,-5.6543,0.0,0.0,0.0,0.0,0.0,0.0,0.0,0.0,0.0,0.0,0.0,0.0,0.0,0.0,0.0,0.0,0.0,0.0,0.0,0.0,0.0,0.0,0.0,0.0,0.0,0.0,0.0,0.0,0.0,0.0,0.0,0.0,0.0,0.0,0.0,0.0,0.0,-4.6279,-4.6376,-4.6247,-4.6429,-4.6791,0.0,0.0,0.0,0.0,0.0,0.0,-4.8255,-4.8326,-4.8291,-4.8125,-4.8001,-4.7926,-4.7885,-4.7815,-4.7792,-4.7792,-4.7594,-4.7509,-4.7545,-4.7405,-4.739,-4.7441,-4.6941,-4.6748,-4.6716,-4.5889,-4.5566,-4.5571,-4.566,-4.5676,-4.5692,-4.57,-4.5708,-4.5785,0.0,0.0,0.0,0.0,0.0,0.0,0.0,0.0,0.0,0.0,0.0,-5.1398,-5.1408,-5.14,-5.1736,-5.2557,-5.3437,-5.4297,-5.5176,-5.6055,-5.6543,-5.6601,-5.6601,-5.6599,-5.6599,-5.6609,-5.6596,-5.6606,-5.6596,-5.66,-5.6602,-5.6596,-5.6599,-5.6599,-5.6601,-5.6601,-5.6601,-5.6601,-5.6601,-5.6601,-5.6543,0.0,0.0,0.0,0.0,0.0,0.0,0.0,0.0,0.0,0.0,0.0,0.0,0.0,0.0,0.0,0.0,0.0,0.0,0.0,0.0,0.0,0.0,0.0,0.0,0.0,0.0,0.0,0.0,0.0,0.0,0.0,0.0,0.0,0.0,0.0,0.0,0.0,0.0,-4.7158,-4.7882,0.0,0.0,0.0,0.0,-4.8292,-4.8934,-4.9307,-4.922,-4.9819,-5.0073,-4.9885,-4.9744,-4.9603,-4.9491,-4.942,-4.9393,-4.9393,-4.8622,-4.8238,-4.8234,-4.7532,-4.727,-4.7403,-4.7378,-4.7416,-4.7429,-4.601,-4.5448,-4.5513,-4.5577,-4.5648,-4.5709,-4.5692,-4.5708,-4.5708,0.0,0.0,0.0,0.0,0.0,0.0,0.0,0.0,0.0,-5.1399,-5.1396,-5.1409,-5.14,-5.1404,-5.1757,-5.2617,-5.3496,-5.4375,-5.5234,-5.6113,-5.6601,-5.6601,-5.6601,-5.6601,-5.6599,-5.6594,-5.6607,-5.6605,-5.6607,-5.6592,-5.6595,-5.6598,-5.66,-5.6601,-5.6601,-5.6601,-5.6601,-5.6601,-5.6601,-5.6601,-5.6601,-5.6601,0.0,0.0,0.0,0.0,0.0,0.0,0.0,0.0,0.0,0.0,0.0,0.0,0.0,0.0,0.0,0.0,0.0,0.0,0.0,0.0,0.0,0.0,0.0,0.0,0.0,0.0,0.0,0.0,0.0,0.0,0.0,0.0,0.0,0.0,0.0,0.0,0.0,-4.8044,-4.8302,0.0,-4.9192,-4.9243,-4.944,-4.9942,-5.0192,-5.0248,-5.0144,-5.0287,-5.0314,-5.0207,-4.9992,-4.9843,-4.9788,-4.9634,-4.9563,-4.9563,-4.9232,-4.9066,-4.9066,-4.884,-4.8762,-4.8801,-4.8318,-4.8166,-4.8162,-4.7158,-4.6506,-4.6165,-4.6302,-4.6031,-4.5577,-4.562,-4.5637,-4.5637,0.0,0.0,0.0,0.0,0.0,0.0,0.0,0.0,-5.1396,-5.1392,-5.1408,-5.1399,-5.1404,-5.1659,-5.2187,-5.3066,-5.3945,-5.4805,-5.5683,-5.6289,-5.6601,-5.6601,-5.6601,-5.6601,-5.6599,-5.6597,-5.6595,-5.6593,-5.6595,-5.6597,-5.6599,-5.66,-5.6601,-5.6601,-5.6601,-5.6601,-5.6601,-5.6601,-5.6601,-5.6601,-5.6601,-5.6601,-5.6601,0.0,0.0,0.0,0.0,0.0,0.0,0.0,0.0,0.0,0.0,0.0,0.0,0.0,0.0,0.0,0.0,0.0,0.0,0.0,0.0,0.0,0.0,0.0,0.0,0.0,0.0,0.0,0.0,0.0,0.0,0.0,0.0,0.0,0.0,0.0,-4.9004,-4.8955,-4.9194,-4.9574,-5.0062,-5.0113,-5.0329,-5.0866,-5.0863,-5.0775,-5.0635,-5.0535,-5.0427,-5.0302,-5.012,-4.9959,-4.9912,-4.975,-4.9667,-4.9619,-4.9582,-4.9536,-4.9536,-4.9567,-4.9578,-4.957,-4.9074,-4.8928,-4.8967,-4.8503,-4.7908,-4.7243,-4.6844,-4.6388,-4.5907,-4.5655,-4.5577,-4.5594,0.0,0.0,0.0,0.0,0.0,0.0,0.0,-5.1352,-5.1394,-5.1396,-5.1397,-5.1405,-5.1444,-5.2187,-5.3066,-5.3965,-5.4805,-5.5664,-5.6543,-5.6601,-5.6601,-5.6601,-5.6601,-5.6601,-5.6599,-5.6599,-5.6598,-5.6593,-5.6598,-5.6599,-5.6599,-5.6601,-5.6601,-5.6601,-5.6601,-5.6601,-5.6601,-5.6601,-5.6601,-5.6601,-5.6601,-5.6601,-5.6601,0.0,0.0,0.0,0.0,0.0,0.0,0.0,0.0,0.0,0.0,0.0,0.0,0.0,0.0,0.0,0.0,0.0,0.0,0.0,0.0,0.0,0.0,0.0,0.0,0.0,0.0,0.0,0.0,0.0,0.0,0.0,0.0,0.0,-4.8909,-4.9418,-4.9922,-4.9854,-5.0596,-5.1046,-5.0906,-5.0898,-5.0898,-5.0898,-5.0905,-5.0838,-5.071,-5.0635,-5.0516,-5.0314,-5.0236,-5.0101,-4.9906,-4.983,-4.9778,-4.9707,-4.9653,-4.9589,-4.9608,-4.9536,-4.9536,-4.9608,-4.9608,-4.9663,-4.9807,-4.9871,-4.9483,-4.8682,-4.7167,-4.6671,-4.6733,-4.586,-4.5569,-4.5594,0.0,0.0,0.0,0.0,0.0,0.0,0.0,-5.1384,-5.1402,-5.1398,-5.1403,-5.1639,-5.2265,-5.2558,-5.3301,-5.4805,-5.5156,-5.5664,-5.6543,-5.6601,-5.6601,-5.6601,-5.6601,-5.6601,-5.6601,-5.6601,-5.6601,-5.6601,-5.6601,-5.6601,-5.6601,-5.6601,-5.6601,-5.6601,-5.6601,-5.6601,-5.6601,-5.6601,-5.6601,-5.6601,-5.6601,-5.6601,-5.6601,0.0,0.0,0.0,0.0,0.0,0.0,0.0,0.0,0.0,0.0,0.0,0.0,0.0,0.0,0.0,0.0,0.0,0.0,0.0,0.0,0.0,0.0,0.0,0.0,0.0,0.0,0.0,0.0,0.0,0.0,0.0,0.0,-5.1028,-5.0553,-5.0684,-5.0829,-5.0758,-5.0945,-5.1046,-5.0906,-5.0898,-5.0898,-5.0898,-5.0905,-5.0891,-5.0846,-5.0692,-5.0567,-5.0526,-5.0363,-5.0255,-5.0194,-5.0031,-4.9912,-4.9843,-4.9778,-4.9692,-4.9608,-4.9578,-4.9567,-4.9521,-4.9521,-4.9582,-4.9648,-4.9736,-4.9683,-4.951,-4.865,-4.7993,-4.7435,-4.6714,-4.6088,-4.5594,0.0,0.0,0.0,0.0,0.0,0.0,0.0,-5.1398,-5.1394,-5.1405,-5.1719,-5.2148,-5.2635,-5.3358,-5.4198,-5.5213,-5.5623,-5.6053,-5.6562,-5.6601,-5.6601,-5.6601,-5.6601,-5.6601,-5.6601,-5.6601,-5.6601,-5.6601,-5.6601,-5.6601,-5.6601,-5.6601,-5.6601,-5.6601,-5.6601,-5.6601,-5.6601,-5.6601,-5.6601,-5.6601,-5.6601,-5.6601,-5.6601,-5.6601,-5.6601,-5.6601,-5.6601,-5.66,-5.6518,-5.6028,0.0,0.0,0.0,0.0,0.0,0.0,0.0,0.0,0.0,0.0,0.0,0.0,0.0,0.0,0.0,0.0,0.0,0.0,0.0,0.0,0.0,0.0,0.0,0.0,-5.1189,-5.1206,-5.1202,-5.1202,-5.1178,-5.1107,-5.1101,-5.1046,-5.0906,-5.0898,-5.0898,-5.0898,-5.0901,-5.0897,-5.0899,-5.0784,-5.0874,-5.1183,-5.1052,-5.1116,-5.1427,-5.1261,-5.1135,-5.107,-5.0954,-5.0861,-5.0755,-5.0342,-5.0116,-5.0025,-4.9702,-4.9563,-4.9589,-4.9634,-4.9736,0.0,0.0,0.0,0.0,0.0,-4.6493,-4.604,0.0,0.0,0.0,0.0,0.0,0.0,0.0,-5.1391,-5.1441,-5.1523,-5.2225,-5.277,-5.2962,-5.4367,-5.5342,-5.544,-5.6144,-5.6595,-5.6599,-5.6601,-5.6601,-5.6601,-5.6601,-5.6601,-5.6601,-5.6601,-5.6601,-5.6601,-5.6601,-5.6601,-5.6601,-5.6601,-5.6601,-5.6601,-5.6601,-5.6601,-5.6601,-5.6601,-5.6601,-5.6601,-5.6601,-5.6601,-5.6601,-5.6601,-5.6601,-5.6601,-5.66,-5.6597,-5.6592,-5.6605,0.0,0.0,0.0,0.0,0.0,0.0,0.0,0.0,0.0,0.0,0.0,0.0,0.0,0.0,0.0,0.0,0.0,0.0,0.0,0.0,0.0,0.0,0.0,0.0,-5.1206,-5.1202,-5.1202,-5.1202,-5.1178,-5.1107,-5.1101,-5.1046,-5.0906,-5.0898,-5.0898,-5.0898,-5.0898,-5.094,-5.1043,0.0,0.0,0.0,0.0,-5.2373,-5.3018,-5.2912,-5.2805,-5.2723,-5.2528,-5.2437,-5.2404,-5.1489,-5.1036,-5.0941,-5.0207,-4.983,-4.974,-4.9755,-4.9787,-4.9759,-4.9168,-4.8971,-4.8831,-4.7547,-4.6964,-4.6704,0.0,0.0,0.0,0.0,0.0,0.0,0.0,-5.1402,-5.164,-5.2362,-5.2594,-5.3235,-5.464,-5.5108,-5.5577,-5.63,-5.6495,-5.6593,-5.6594,-5.6598,-5.66,-5.66,-5.6601,-5.6601,-5.6601,-5.6601,-5.6601,-5.6601,-5.6601,-5.6601,-5.6601,-5.6601,-5.6601,-5.6601,-5.6601,-5.6601,-5.6601,-5.6601,-5.6601,-5.6601,-5.6601,-5.6601,-5.6601,-5.6601,-5.6601,-5.6601,-5.66,-5.6597,-5.6592,-5.6605,-5.6595,-5.6606,-5.6606,0.0,0.0,0.0,0.0,0.0,0.0,0.0,0.0,0.0,0.0,0.0,0.0,0.0,0.0,0.0,0.0,0.0,0.0,0.0,0.0,-5.1194,-5.1206,-5.1202,-5.1202,-5.1202,-5.1178,-5.1107,-5.1101,-5.1046,-5.0906,-5.0898,-5.0898,-5.0898,-5.0898,-5.1207,-5.1904,-5.1901,-5.2262,-5.3095,-5.3051,-5.308,-5.3163,-5.307,-5.2981,-5.2858,0.0,0.0,-5.2542,-5.2252,-5.2082,-5.1993,-5.1783,-5.1269,-5.0587,-5.0669,-5.0388,-4.9879,-4.986,-4.9503,-4.8984,-4.879,-4.7914,-4.6781,0.0,0.0,0.0,0.0,0.0,0.0,0.0,-5.1776,-5.2206,-5.2649,-5.3465,-5.4322,-5.5215,-5.5684,-5.6133,-5.6563,-5.6605,-5.6607,-5.6607,-5.6594,-5.6597,-5.6599,-5.66,-5.6601,-5.6601,-5.6601,-5.6601,-5.6601,-5.6601,-5.6601,-5.6601,-5.6601,-5.6601,-5.6601,-5.6601,-5.6601,-5.6601,-5.6601,-5.6601,-5.6601,-5.6601,-5.6601,-5.6601,-5.6601,-5.6601,-5.6601,-5.6598,-5.6593,-5.6606,-5.6596,-5.6591,-5.6606,-5.6606,-5.6606,-5.6606,0.0,0.0,0.0,0.0,0.0,0.0,0.0,0.0,0.0,0.0,0.0,0.0,0.0,0.0,-5.1931,0.0,0.0,-5.1196,-5.1192,-5.1194,-5.1202,-5.1202,-5.1202,-5.1184,-5.1115,-5.1088,-5.1053,-5.0956,-5.0914,-5.1072,-5.1525,-5.1544,-5.1931,-5.2801,-5.2824,-5.3194,-5.4063,-5.4041,-5.4188,-5.4603,-5.4504,-5.4402,-5.4295,-5.4192,-5.4084,-5.3925,-5.3432,-5.3124,-5.2963,-5.2502,-5.2012,-5.1458,-5.1143,-5.0781,-5.0425,-5.0183,-4.9879,-4.9513,-4.9294,-4.8689,-4.7894,0.0,0.0,0.0,0.0,0.0,0.0,0.0,0.0,-5.2751,-5.2932,-5.4316,-5.5365,-5.5535,-5.6174,-5.6582,-5.658,-5.6589,-5.6577,-5.6577,-5.6587,-5.6594,-5.6598,-5.6599,-5.66,-5.6601,-5.6601,-5.6601,-5.6601,-5.6601,-5.6601,-5.6601,-5.6601,-5.6601,-5.6601,-5.6601,-5.6601,-5.6601,-5.6601,-5.6601,-5.6601,-5.6601,-5.66,-5.6599,-5.6601,-5.66,-5.6598,-5.6593,-5.6606,-5.66,-5.6608,-5.6606,-5.6606,-5.6606,-5.6606,-5.6606,-5.6606,-5.6606,0.0,0.0,0.0,0.0,0.0,0.0,0.0,0.0,0.0,-5.3907,-5.3907,-5.3346,-5.2827,-5.2762,-5.2188,-5.1721,-5.1705,-5.1552,-5.1435,-5.1435,-5.1299,-5.1229,-5.1341,-5.1205,-5.1145,-5.1245,-5.12,-5.1505,-5.2403,-5.2461,-5.2821,-5.371,-5.3749,-5.4155,-5.5006,-5.4991,-5.5293,-5.5999,-5.5885,-5.5816,-5.5735,-5.5596,-5.548,-5.5351,-5.4594,-5.4145,-5.396,-5.3049,-5.2603,-5.2443,-5.1588,-5.1182,-5.0984,-5.0544,-5.0247,-5.0057,-4.9609,-4.9339,-4.9034,0.0,0.0,0.0,0.0,0.0,0.0,0.0,0.0,0.0,-5.3751,-5.4701,-5.5593,-5.6372,-5.6497,-5.6503,-5.6511,-5.6503,-5.6511,-5.6511,-5.6573,-5.6606,-5.6593,-5.6597,-5.66,-5.6601,-5.6601,-5.6601,-5.6601,-5.6601,-5.6601,-5.6601,-5.6601,-5.6601,-5.66,-5.66,-5.6598,-5.6595,-5.6595,-5.6595,-5.6595,-5.6595,-5.6594,-5.6594,-5.6594,-5.6594,-5.6593,-5.6606,-5.6602,-5.66,-5.6608,-5.6606,-5.6606,-5.6606,-5.6606,-5.6606,-5.6606,0.0,-5.6606,-5.6606,-5.6528,-5.6424,-5.6257,-5.5627,-5.5051,0.0,0.0,-5.3907,-5.3907,-5.381,-5.3728,-5.3667,-5.356,-5.3516,-5.3502,-5.2813,-5.2271,-5.2271,-5.1649,-5.1455,-5.2167,-5.1567,-5.137,-5.2089,-5.209,-5.2414,-5.3285,-5.3343,-5.373,-5.46,-5.4658,-5.5026,-5.5838,-5.5868,-5.59,-5.5999,-5.5981,-5.5933,-5.5875,-5.5735,-5.5662,-5.564,-5.5312,-5.5148,-5.5051,-5.4007,-5.358,-5.3533,-5.255,-5.1779,-5.1187,-5.1222,-5.078,-5.0114,-5.0298,-4.9867,-4.9198,0.0,0.0,0.0,0.0,0.0,0.0,0.0,0.0,0.0,0.0,-5.5203,-5.6196,-5.6567,-5.6536,-5.65,-5.6504,-5.6497,-5.6506,-5.6506,-5.6565,-5.6596,-5.6606,-5.6609,-5.6595,-5.6601,-5.6601,-5.6601,-5.6601,-5.6601,-5.66,-5.6599,-5.6599,-5.6597,-5.6596,-5.6596,-5.6595,-5.6593,-5.6593,-5.6593,-5.6593,-5.6593,-5.6591,-5.6606,-5.6606,-5.6603,-5.6598,-5.66,-5.6598,0.0,0.0,-5.6606,-5.6606,-5.6606,-5.6606,-5.6606,-5.6606,-5.6606,0.0,-5.6606,-5.6606,0.0,0.0,-5.6238,-5.5952,-5.5962,-5.5673,-5.5411,-5.5411,-5.5002,-5.4643,-5.4562,-5.4149,-5.3807,0.0,-5.3441,-5.317,-5.317,-5.2873,-5.2776,-5.3125,-5.2835,-5.273,-5.3037,-5.3019,-5.3356,-5.4194,-5.4252,-5.4619,-5.5451,-5.5509,-5.5644,-5.5993,-5.6012,-5.5995,-5.5996,-5.5996,-5.5989,-5.5962,-5.5905,-5.5816,-5.5703,-5.5585,-5.5456,-5.5275,-5.4787,-5.4571,-5.45,-5.3594,-5.3043,-5.2672,-5.1808,-5.125,-5.093,-5.0607,-5.027,-4.9908,0.0,0.0,0.0,0.0,0.0,0.0,0.0,0.0,0.0,0.0,0.0,-5.6582,-5.6575,-5.6528,-5.6494,-5.6491,-5.6508,-5.65,-5.65,-5.6558,-5.6591,-5.66,-5.6602,-5.6607,-5.6597,-5.6598,-5.6598,-5.6598,-5.6598,-5.6597,-5.6593,-5.6593,-5.6592,-5.661,-5.661,-5.6609,-5.6606,-5.6606,-5.6606,-5.6606,-5.6606,-5.6466,-5.6247,-5.6247,-5.6085,-5.5942,-5.6438,-5.6593,-5.6606,0.0,-5.6606,-5.6606,-5.6606,-5.6606,-5.6606,-5.6606,-5.6608,-5.661,-5.6606,0.0,0.0,-5.6511,-5.6497,-5.6504,-5.65,-5.6504,-5.6492,-5.6507,-5.5996,-5.5544,-5.5511,-5.4957,-5.4523,-5.4511,-5.4269,-5.405,-5.4064,-5.385,-5.3792,-5.4019,-5.4058,-5.4122,-5.4301,-5.4076,-5.427,-5.5109,-5.515,-5.5393,-5.5973,-5.6012,-5.6012,-5.6012,-5.6012,-5.6012,-5.6012,-5.6012,-5.5995,-5.5998,-5.5999,-5.5924,-5.5776,-5.5724,-5.5585,-5.5383,-5.5275,-5.5229,-5.5111,-5.4506,-5.4112,-5.3794,-5.2641,-5.1941,-5.1536,-5.1031,-5.0694,-5.0458,0.0,0.0,0.0,0.0,0.0,0.0,0.0,0.0,0.0,0.0,0.0,0.0,0.0,0.0,-5.651,-5.6492,-5.6503,-5.6504,-5.6504,-5.6553,-5.6591,-5.66,-5.6602,-5.6605,-5.6593,-5.6593,-5.6593,-5.6593,-5.6593,-5.6593,-5.6593,-5.6593,-5.6609,-5.6602,-5.6602,-5.6596,-5.6606,-5.6606,-5.6606,-5.6606,-5.6606,-5.6098,-5.5339,-5.5339,-5.481,-5.4303,-5.5981,-5.6606,-5.6606,0.0,-5.6606,-5.6606,-5.6606,-5.6606,0.0,-5.6606,-5.6593,-5.6598,0.0,0.0,-5.6577,-5.6514,-5.6506,-5.6497,-5.6503,-5.6492,-5.6508,-5.6492,-5.6487,-5.6468,-5.6468,-5.6387,-5.6325,-5.6314,-5.5567,-5.4968,-5.4951,-5.4232,-5.3999,-5.4854,-5.4971,-5.5262,0.0,-5.5292,-5.511,-5.6001,-5.5999,-5.5973,-5.6012,-5.6012,-5.6012,-5.6012,-5.6012,-5.6012,-5.6012,-5.6012,-5.6003,-5.6003,-5.5998,-5.599,-5.5981,-5.5796,-5.5651,-5.5585,-5.5456,-5.5358,-5.5281,-5.5191,-5.4648,-5.3889,-5.3918,-5.2972,-5.1613,-5.1652,-5.1216,-5.0596,0.0,0.0,0.0,0.0,0.0,0.0,0.0,0.0,0.0,0.0,0.0,0.0,0.0,0.0,0.0,0.0,-5.6508,-5.65,-5.65,-5.6558,-5.6606,-5.6591,-5.6591,-5.6596,-5.6605,-5.6605,-5.6605,-5.6605,-5.6605,-5.6603,-5.6596,-5.6596,-5.6595,-5.6591,-5.6591,-5.6608,-5.6606,-5.6606,-5.6274,-5.5747,-5.5747,-5.522,-5.4439,-5.4439,-5.4264,-5.4088,0.0,-5.5259,-5.5825,0.0,0.0,0.0,-5.6606,-5.6591,-5.6598,-5.6603,-5.6607,-5.6609,-5.6606,0.0,-5.6587,-5.6575,-5.6528,-5.6497,-5.6497,-5.6491,-5.6492,-5.6504,-5.6496,-5.6507,-5.6507,-5.6446,-5.6403,-5.6391,-5.6092,-5.5862,-5.587,-5.5612,-5.5534,-5.5825,-5.5864,0.0,0.0,0.0,0.0,-5.6145,-5.6098,-5.6073,-5.6073,-5.6029,-5.6012,-5.6012,-5.6012,-5.6012,-5.6012,-5.6012,-5.6012,-5.6003,-5.5998,-5.5999,-5.599,-5.5885,-5.5806,-5.5735,-5.5629,-5.5562,-5.5492,-5.5432,-5.5223,-5.4924,-5.4412,-5.3893,-5.333,-5.2225,-5.1731,-5.1519,0.0,0.0,0.0,0.0,0.0,0.0,0.0,0.0,0.0,0.0,0.0,0.0,0.0,0.0,0.0,0.0,0.0,-5.6506,-5.6506,-5.656,-5.6606,-5.6606,-5.6606,-5.6608,-5.6596,-5.6596,-5.6596,-5.6596,-5.6596,-5.6593,-5.6606,-5.6606,-5.6606,-5.6606,-5.6606,-5.643,-5.6138,-5.6138,-5.563,-5.483,-5.483,-5.4303,-5.3541,-5.3541,-5.3346,0.0,-5.3424,-5.3893,0.0,0.0,0.0,0.0,-5.6144,-5.6344,-5.6606,-5.6592,-5.6594,-5.6595,-5.6593,-5.6594,-5.6594,-5.6607,-5.6563,-5.6534,-5.6519,-5.65,-5.6498,-5.6496,-5.6504,-5.6496,-5.6507,-5.6455,-5.6437,-5.6407,-5.6361,-5.6327,-5.6297,-5.6304,-5.6291,-5.6291,-5.6291,-5.6291,0.0,0.0,0.0,-5.6202,-5.6164,-5.6141,-5.6141,-5.6073,-5.6029,-5.6029,-5.602,-5.6012,-5.6012,-5.6012,-5.6012,-5.6003,-5.5996,-5.5998,-5.5998,-5.5971,-5.5914,-5.5866,-5.5806,-5.5724,-5.5629,-5.5585,-5.5539,-5.5446,-5.4929,-5.4602,-5.4227,-5.2874,-5.2252,-5.1968,0.0,0.0,0.0,0.0,0.0,0.0,0.0,0.0,0.0,0.0,0.0,0.0,0.0,0.0,0.0,0.0,0.0,0.0,-5.6509,-5.656,-5.6606,-5.6606,-5.6606,-5.6606,-5.6606,-5.6606,-5.6606,-5.6606,-5.6606,-5.6606,-5.6606,-5.6606,-5.6606,-5.6606,-5.6606,-5.6118,-5.53,-5.53,-5.4771,-5.3932,-5.3932,-5.3405,-5.2626,-5.2626,-5.2117,-5.1511,-5.2331,0.0,0.0,0.0,0.0,0.0,0.0,-5.5906,-5.6594,-5.6594,-5.6597,-5.6599,-5.6596,-5.6597,-5.6599,-5.6595,-5.6594,-5.6571,-5.6515,-5.6508,-5.6497,-5.651,-5.6496,-5.6508,0.0,0.0,-5.6479,-5.6417,-5.6407,-5.6381,-5.6314,-5.6297,-5.6298,0.0,0.0,0.0,0.0,0.0,0.0,-5.6206,0.0,-5.6199,-5.6199,-5.6141,-5.6117,-5.6117,-5.6037,-5.6012,-5.6012,-5.6012,-5.6012,-5.6012,-5.6012,-5.6012,-5.6003,-5.5998,-5.5999,-5.5999,-5.5924,-5.5826,-5.5724,-5.5714,-5.5649,-5.5516,-5.5516,-5.5097,-5.4367,-5.3521,-5.2762,-5.2058,0.0,0.0,0.0,0.0,0.0,0.0,0.0,0.0,0.0,0.0,0.0,0.0,0.0,0.0,0.0,0.0,0.0,0.0,-5.6563,-5.6584,-5.6606,-5.6606,-5.6606,-5.6606,-5.6606,-5.6606,-5.6606,-5.6606,-5.6606,-5.6606,-5.6606,-5.6606,-5.6606,-5.6606,-5.6606,-5.6118,-5.53,-5.53,-5.442,-5.3034,-5.3034,-5.2507,-5.1726,-5.1726,-5.159,-5.1433,-5.1648,0.0,0.0,0.0,0.0,0.0,0.0,-5.5898,-5.6601,-5.66,-5.6599,-5.6598,-5.6599,-5.6599,-5.6599,-5.6601,-5.6601,-5.66,-5.6576,-5.6543,-5.6504,-5.6494,-5.6504,-5.6492,0.0,0.0,0.0,-5.6417,-5.6403,0.0,-5.6381,-5.6333,0.0,-5.629,0.0,-5.6291,-5.6291,-5.6291,0.0,0.0,-5.6225,-5.6204,-5.6204,-5.6187,-5.6164,-5.6164,-5.6106,-5.6082,-5.6082,-5.6029,-5.6012,-5.6012,-5.6012,-5.6012,-5.6003,-5.5995,-5.6005,-5.6005,-5.598,-5.5962,-5.5914,-5.5875,-5.5826,-5.5796,-5.5796,-5.5681,-5.5345,-5.3898,-5.3221,-5.285,0.0,0.0,0.0,0.0,0.0,0.0,0.0,0.0,0.0,0.0,0.0,0.0,0.0,0.0,0.0,0.0,0.0,0.0,0.0,-5.6606,-5.6606,-5.6606,-5.6606,-5.6606,-5.6606,-5.6606,-5.6606,-5.6606,-5.6606,-5.6606,-5.6606,-5.6606,-5.6606,-5.6586,-5.6196,-5.5552,-5.4693,-5.4322,-5.3368,0.0,0.0,-5.1843,-5.1394,-5.1394,-5.1394,-5.1394,0.0,0.0,0.0,0.0,0.0,-5.4296,-5.5058,-5.5642,-5.6108,-5.6496,0.0,-5.6593,-5.6593,-5.6593,-5.6594,-5.6597,-5.6599,-5.6601,-5.6601,-5.6577,-5.6548,-5.6513,-5.6503,0.0,0.0,0.0,0.0,0.0,0.0,0.0,-5.6393,-5.6361,-5.6345,0.0,-5.6315,0.0,-5.6297,-5.6304,-5.6291,0.0,-5.6272,-5.6246,-5.6246,-5.6231,-5.6209,-5.6209,-5.6164,-5.6141,-5.6141,-5.6082,-5.6037,-5.6037,-5.602,-5.6012,-5.6012,-5.6012,-5.6012,-5.6003,0.0,-5.5998,-5.599,-5.5962,-5.5933,-5.5895,-5.5895,-5.5914,-5.574,-5.403,-5.3419,-5.3194,0.0,0.0,0.0,0.0,0.0,0.0,0.0,0.0,0.0,0.0,0.0,0.0,0.0,0.0,0.0,0.0,0.0,0.0,0.0,0.0,0.0,0.0,-5.6547,-5.6606,-5.6606,-5.6606,-5.6606,-5.6606,-5.6606,-5.6606,-5.6606,-5.6489,-5.643,-5.6391,-5.5513,-5.4635,-5.3776,-5.3014,-5.2195,-5.1394,-5.1394,-5.1394,-5.1394,0.0,0.0,0.0,0.0,0.0,0.0,0.0,-5.1972,-5.2967,-5.4486,-5.5106,-5.5437,-5.6197,-5.651,-5.6588,-5.6588,-5.6589,-5.6589,-5.6609,-5.6591,-5.6594,-5.6601,-5.6601,-5.6581,-5.654,0.0,-5.65,-5.6503,0.0,-5.6507,-5.6507,0.0,-5.6417,-5.6417,-5.6412,-5.6397,-5.6397,-5.635,-5.6308,-5.6302,-5.6297,-5.6298,-5.6291,-5.6291,-5.6291,-5.6291,-5.6246,-5.6206,-5.6199,-5.6209,-5.6206,-5.6199,-5.6141,-5.6106,-5.6106,-5.6057,-5.602,-5.602,-5.5993,-5.6012,-5.6012,-5.6012,-5.6005,-5.6008,-5.6008,-5.5981,-5.5914,-5.5914,-5.5943,-5.5796,-5.4057,-5.3445,-5.3246,0.0,0.0,0.0,0.0,0.0,0.0,0.0,0.0,0.0,0.0,-5.3112,-5.4068,0.0,0.0,0.0,0.0,0.0,0.0,0.0,0.0,0.0,0.0,-5.6216,-5.6606,-5.6606,-5.6606,-5.6606,-5.6606,-5.6606,-5.6606,-5.6586,-5.5864,-5.5532,-5.5493,-5.4615,-5.3737,-5.2919,-5.2763,-5.2195,-5.1394,-5.1394,-5.1394,-5.1394,0.0,0.0,0.0,0.0,0.0,0.0,0.0,-5.1977,-5.2752,-5.3061,-5.4101,-5.5254,-5.541,-5.5954,-5.6523,-5.6514,-5.6519,-5.6521,-5.6589,-5.6598,-5.6606,-5.6594,-5.66,0.0,0.0,0.0,-5.6497,-5.6504,-5.6503,0.0,-5.6507,0.0,0.0,0.0,0.0,-5.6403,0.0,0.0,0.0,0.0,0.0,0.0,0.0,0.0,-5.6291,-5.6291,-5.6285,-5.6252,-5.6199,-5.6192,-5.6197,-5.6199,-5.6191,-5.6191,-5.6191,-5.6106,-5.6082,-5.6082,-5.6029,-5.6012,-5.6012,-5.6012,0.0,-5.5995,-5.5995,-5.5995,-5.5986,-5.5986,-5.5986,-5.5801,-5.4108,-5.3489,-5.3246,0.0,0.0,0.0,0.0,0.0,0.0,0.0,-5.1394,-5.1394,-5.1394,-5.2136,-5.2819,-5.3268,-5.3327,-5.3502,0.0,0.0,0.0,0.0,0.0,0.0,0.0,0.0,0.0,0.0,-5.5259,0.0,0.0,0.0,0.0,0.0,0.0,0.0,0.0,-5.3717,-5.3093,-5.2665,-5.2214,-5.1785,-5.1394,-5.1394,-5.1394,0.0,0.0,0.0,0.0,0.0,0.0,0.0,0.0,-5.1685,-5.2099,-5.2567,-5.3242,-5.4066,-5.4944,-5.551,-5.5919,-5.6377,-5.6494,-5.652,-5.6533,-5.6541,-5.655,-5.6585,0.0,0.0,0.0,-5.6573,-5.6538,-5.6514,0.0,0.0,0.0,0.0,0.0,0.0,0.0,0.0,0.0,0.0,0.0,0.0,0.0,0.0,0.0,0.0,-5.6291,-5.6291,-5.6291,-5.6285,-5.6246,-5.6246,-5.6258,-5.6238,-5.6223,-5.619,-5.619,-5.6172,-5.6149,-5.6149,-5.6125,-5.609,-5.6046,-5.6046,-5.6029,-5.6012,-5.6012,-5.6012,-5.6012,-5.6012,-5.5741,-5.5219,-5.3962,-5.3207,-5.2647,0.0,0.0,0.0,0.0,0.0,0.0,0.0,-5.1394,-5.1394,-5.1394,-5.1394,-5.1668,-5.2351,-5.2411,-5.2702,0.0,0.0,0.0,0.0,0.0,0.0,0.0,0.0,0.0,0.0,0.0,0.0,0.0,0.0,0.0,0.0,0.0,0.0,0.0,0.0,0.0,0.0,-5.1695,-5.14,0.0,0.0,0.0,0.0,0.0,0.0,0.0,0.0,0.0,0.0,0.0,-5.1394,-5.1505,-5.2188,-5.2536,-5.2945,-5.4252,-5.4911,-5.5344,-5.6046,-5.6361,-5.6501,-5.6497,-5.6503,-5.6511,-5.6573,-5.6584,0.0,0.0,-5.66,-5.6573,-5.6518,0.0,0.0,0.0,0.0,0.0,0.0,0.0,0.0,0.0,0.0,0.0,0.0,0.0,0.0,0.0,0.0,0.0,-5.6291,-5.6291,-5.6291,-5.6291,-5.6291,-5.6291,-5.6291,-5.6246,-5.6213,-5.6213,-5.6209,-5.6194,-5.6194,-5.6206,-5.6164,-5.6133,-5.6133,-5.6082,-5.602,-5.602,-5.602,-5.5993,-5.5818,-5.5354,-5.4677,-5.3614,-5.2782,-5.2074,0.0,0.0,0.0,0.0,0.0,0.0,0.0,-5.1394,-5.1394,-5.1394,-5.1394,-5.1433,-5.1511,-5.1511,-5.155,0.0,0.0,0.0,0.0,0.0,0.0,0.0,0.0,0.0,0.0,0.0,0.0,0.0,0.0,0.0,0.0,0.0,0.0,0.0,0.0,0.0,0.0,0.0,0.0,0.0,0.0,0.0,0.0,0.0,0.0,0.0,0.0,0.0,0.0,0.0,0.0,-5.131,-5.1409,-5.1967,-5.2649,-5.2785,0.0,0.0,-5.5303,-5.5892,-5.65,-5.6501,-5.6504,-5.6494,-5.6504,0.0,0.0,-5.6597,-5.6601,-5.6581,-5.6515,-5.6501,-5.6502,0.0,0.0,0.0,0.0,0.0,0.0,0.0,0.0,0.0,0.0,0.0,0.0,0.0,0.0,0.0,-5.6298,-5.6291,-5.6291,-5.6291,-5.6291,-5.6291,-5.6291,-5.6291,-5.6291,-5.6285,-5.6232,-5.6192,-5.6192,-5.6194,-5.6199,-5.6191,-5.6191,-5.6149,0.0,-5.609,-5.6046,-5.5935,-5.52,-5.4871,-5.46,-5.2917,-5.2268,-5.2074,0.0,0.0,0.0,0.0,0.0,0.0,-5.1392,-5.1394,-5.1394,-5.1394,-5.1394,-5.1394,-5.1394,-5.1394,-5.1394,-5.1394,0.0,0.0,0.0,0.0,0.0,0.0,0.0,0.0,0.0,0.0,-5.2431,-5.2433,-5.2433,0.0,0.0,0.0,0.0,0.0,0.0,0.0,0.0,0.0,0.0,0.0,0.0,0.0,0.0,0.0,0.0,0.0,0.0,0.0,0.0,0.0,0.0,0.0,-5.1308,-5.1534,0.0,0.0,-5.3093,-5.3853,-5.4913,-5.5443,-5.5837,-5.6363,-5.6507,-5.6491,-5.6497,0.0,0.0,-5.6522,-5.6532,-5.6539,-5.6562,-5.656,-5.6398,-5.5858,0.0,0.0,0.0,0.0,0.0,0.0,0.0,0.0,0.0,0.0,0.0,0.0,0.0,0.0,-5.6353,-5.6317,-5.6291,-5.6291,-5.6291,-5.6291,-5.6291,-5.6291,-5.6291,-5.6291,-5.6278,-5.6252,-5.6252,-5.6258,-5.6238,-5.6197,-5.6197,-5.6175,0.0,-5.6157,-5.5831,-5.5312,-5.4939,-5.4177,-5.3201,-5.2469,-5.1873,-5.137,0.0,0.0,0.0,0.0,0.0,-5.1401,-5.1392,-5.1394,-5.1394,-5.1394,-5.1394,-5.1394,-5.1394,-5.1394,-5.1394,-5.1394,-5.1394,0.0,0.0,0.0,0.0,0.0,0.0,0.0,0.0,0.0,-5.1404,-5.1405,-5.1405,-5.1405,0.0,0.0,0.0,0.0,0.0,0.0,0.0,0.0,0.0,0.0,0.0,0.0,0.0,0.0,0.0,0.0,0.0,0.0,0.0,0.0,0.0,0.0,0.0,0.0,0.0,0.0,-5.2411,-5.2879,-5.4102,-5.4628,-5.5022,-5.5896,-5.6114,-5.6176,0.0,0.0,-5.6497,-5.6494,-5.6508,-5.6504,-5.6553,-5.6384,-5.6015,-5.5407,0.0,-5.3395,0.0,0.0,0.0,0.0,0.0,0.0,0.0,0.0,0.0,0.0,0.0,0.0,-5.6411,-5.6366,-5.6323,-5.6323,-5.6323,-5.6317,-5.631,-5.631,-5.6304,-5.6291,-5.6291,-5.6291,-5.6291,-5.6291,-5.6278,-5.6232,-5.6232,-5.6211,0.0,-5.5923,-5.545,-5.4835,-5.4289,-5.3344,-5.2259,-5.197,-5.1463,-5.0941,0.0,0.0,0.0,0.0,0.0,0.0,-5.1392,-5.1394,-5.1394,-5.1394,-5.1394,-5.1394,-5.1394,-5.1394,-5.1394,-5.1394,-5.1394,0.0,0.0,0.0,0.0,0.0,0.0,0.0,0.0,0.0,-5.1403,-5.1398,-5.1398,-5.1398,-5.1398,-5.1398,-5.1398,0.0,0.0,0.0,0.0,0.0,0.0,0.0,0.0,0.0,0.0,0.0,0.0,0.0,0.0,0.0,0.0,0.0,0.0,0.0,0.0,0.0,0.0,0.0,-5.1924,-5.2606,-5.2625,-5.3268,-5.4121,-5.4998,-5.5212,-5.5435,0.0,0.0,-5.65,-5.6498,-5.6509,-5.6508,-5.6508,-5.5848,-5.5312,-5.5293,-5.3847,0.0,0.0,0.0,0.0,0.0,0.0,0.0,0.0,0.0,0.0,0.0,0.0,0.0,-5.6391,-5.6406,-5.6406,-5.6406,-5.6406,-5.6375,-5.6302,-5.6302,-5.6309,-5.6291,-5.6291,-5.6291,-5.6291,-5.6291,-5.6291,-5.6291,-5.6291,-5.6252,0.0,-5.526,-5.491,-5.4738,-5.3,-5.2322,-5.2205,-5.133,-5.1005,-5.0978,0.0,0.0,0.0,0.0,0.0,0.0,0.0,-5.141,-5.1394,-5.1394,-5.1394,-5.1394,-5.1394,-5.1402,-5.1405,-5.1405,-5.1405,0.0,0.0,0.0,0.0,0.0,0.0,0.0,0.0,0.0,-5.1407,-5.1403,-5.1403,-5.1403,-5.1403,-5.1403,-5.1403,-5.1403,-5.1403,0.0,0.0,0.0,0.0,0.0,0.0,0.0,0.0,0.0,0.0,0.0,0.0,0.0,0.0,0.0,0.0,0.0,0.0,0.0,0.0,-5.13,0.0,0.0,-5.245,-5.2801,-5.3229,-5.4082,-5.4316,-5.4379,-5.466,-5.4718,-5.4726,-5.4725,-5.472,-5.4713,-5.4725,-5.4556,-5.4223,-5.3619,-5.3064,0.0,0.0,0.0,0.0,0.0,0.0,0.0,0.0,0.0,0.0,0.0,0.0,0.0,-5.6465,-5.6465,-5.6446,-5.6391,-5.6411,-5.6386,-5.6375,-5.6375,-5.637,-5.6358,-5.6358,-5.6358,-5.6378,-5.6315,-5.5979,0.0,-5.541,-5.5061,-5.4472,-5.42,-5.3722,-5.3146,-5.2583,-5.1987,-5.1444,-5.1171,-5.106,-5.108,0.0,0.0,0.0,0.0,0.0,0.0,0.0,-5.1408,-5.1394,-5.1394,-5.1394,-5.1396,-5.14,-5.1407,-5.1391,-5.1397,-5.1399,0.0,0.0,0.0,0.0,0.0,0.0,0.0,-5.1394,-5.1406,-5.1401,-5.1401,-5.1401,-5.1401,-5.1401,-5.1401,-5.1401,-5.1401,-5.1401,-5.1401,0.0,0.0,0.0,0.0,0.0,0.0,-5.1366,0.0,0.0,0.0,0.0,0.0,0.0,0.0,0.0,0.0,0.0,0.0,0.0,0.0,-5.13,0.0,0.0,-5.2119,-5.2314,-5.319,-5.3405,0.0,0.0,-5.3907,-5.3892,-5.3908,-5.3896,-5.3907,-5.3901,-5.3691,-5.334,-5.278,-5.2429,0.0,0.0,0.0,0.0,0.0,0.0,0.0,0.0,0.0,0.0,0.0,0.0,0.0,-5.6476,-5.6492,-5.6318,-5.5964,-5.6271,-5.6437,-5.6407,-5.6407,-5.6227,-5.59,-5.59,-5.5744,-5.5413,-5.5372,-5.505,-5.4544,-5.4546,-5.4243,0.0,-5.3382,-5.2929,-5.2399,-5.2078,-5.1619,-5.1127,-5.1115,-5.1101,-5.1101,0.0,0.0,0.0,0.0,0.0,0.0,0.0,-5.1406,-5.1394,-5.1394,-5.1394,-5.14,-5.1408,-5.1391,-5.1396,-5.1405,0.0,0.0,0.0,0.0,0.0,0.0,0.0,0.0,-5.1394,-5.1391,-5.1391,-5.1391,-5.1391,-5.1352,-5.1294,-5.1294,-5.1274,-5.1216,-5.1216,-5.1255,-5.1294,-5.1294,-5.1333,-5.1391,-5.1391,-5.1362,0.0,0.0,0.0,0.0,0.0,0.0,0.0,0.0,0.0,0.0,0.0,0.0,0.0,0.0,0.0,0.0,0.0,0.0,0.0,0.0,0.0,0.0,0.0,-5.3712,0.0,-5.3712,-5.3713,-5.3724,-5.3724,-5.3098,-5.2595,-5.2598,0.0,0.0,0.0,0.0,0.0,0.0,0.0,0.0,0.0,0.0,0.0,0.0,0.0,0.0,-5.6262,-5.6324,-5.5935,-5.5131,-5.5896,-5.6284,-5.6222,-5.6222,-5.5819,-5.5015,-5.5015,-5.4582,-5.3818,-5.3793,-5.3774,0.0,-5.3715,-5.3676,-5.3554,-5.2736,-5.2414,-5.233,-5.153,-5.1208,-5.1183,-5.1133,-5.1108,-5.1121,0.0,0.0,0.0,0.0,0.0,0.0,0.0,0.0,0.0,0.0,-5.1402,-5.1407,-5.1409,-5.1401,-5.1406,0.0,0.0,0.0,0.0,0.0,0.0,0.0,0.0,0.0,-5.1317,-5.1323,-5.1316,-5.1316,-5.1316,-5.0984,-5.0322,-5.0322,-5.001,-4.9406,-4.9406,-4.9756,-5.0322,-5.0322,-5.0711,-5.1316,-5.1316,-5.1312,0.0,0.0,0.0,0.0,-5.13,-5.13,0.0,0.0,0.0,0.0,0.0,0.0,0.0,0.0,-5.13,-5.13,-5.13,0.0,-5.1359,-5.1554,-5.1612,-5.1671,0.0,-5.1904,-5.1904,-5.1904,0.0,0.0,-5.1912,-5.1755,0.0,0.0,0.0,0.0,0.0,0.0,0.0,0.0,0.0,0.0,0.0,0.0,0.0,0.0,0.0,-5.4287,-5.4505,-5.4502,-5.4424,-5.4213,-5.4404,-5.4499,-5.4491,-5.4491,-5.4387,-5.4173,-5.4173,-5.4067,-5.387,-5.3813,-5.3453,-5.2874,-5.283,-5.2431,-5.1789,-5.159,-5.1512,-5.1492,-5.1288,-5.121,-5.1205,-5.1178,-5.1173,-5.1186,0.0,0.0,0.0,0.0,0.0,0.0,0.0,0.0,0.0,0.0,0.0,0.0,0.0,0.0,0.0,0.0,0.0,0.0,0.0,0.0,0.0,0.0,0.0,-5.1307,-5.13,-5.1304,-5.13,-5.13,-5.0891,-5.0463,-4.9995,-4.9625,-4.9216,-4.8806,-4.8806,-4.904,-4.9469,-4.9839,-5.0268,-5.0735,-5.1145,0.0,0.0,0.0,0.0,0.0,-5.13,-5.13,0.0,-5.13,-5.13,-5.13,0.0,0.0,0.0,0.0,-5.13,-5.13,-5.13,-5.13,-5.13,-5.13,-5.13,-5.13,-5.13,0.0,0.0,0.0,0.0,0.0,0.0,0.0,0.0,0.0,0.0,0.0,0.0,0.0,0.0,0.0,0.0,0.0,0.0,0.0,0.0,0.0,0.0,-5.352,-5.3918,-5.3911,-5.3735,-5.3352,-5.3352,-5.3537,-5.3907,-5.3907,-5.3709,-5.329,-5.329,-5.3111,-5.2749,-5.2719,-5.2458,-5.2052,-5.2002,-5.1721,-5.1292,-5.1265,-5.1256,-5.1243,-5.1254,-5.122,-5.1206,-5.1196,-5.121,-5.1205,0.0,0.0,0.0,0.0,0.0,0.0,0.0,0.0,0.0,0.0,0.0,0.0,0.0,0.0,0.0,0.0,0.0,0.0,0.0,0.0,0.0,0.0,-5.1307,-5.13,-5.13,-5.13,-5.13,-5.13,-5.0424,-4.9937,-4.98,-4.8982,-4.8534,-4.8397,-4.8397,-4.8475,-4.8651,-4.9469,-4.9898,-5.0073,-5.0946,0.0,0.0,0.0,0.0,0.0,0.0,0.0,0.0,-5.1269,-5.1269,-5.1269,-5.1269,0.0,0.0,0.0,0.0,0.0,-5.1269,-5.1269,-5.1292,-5.1296,-5.13,-5.13,0.0,0.0,0.0,0.0,0.0,0.0,0.0,0.0,0.0,0.0,0.0,0.0,0.0,0.0,0.0,0.0,0.0,0.0,0.0,0.0,0.0,0.0,0.0,-5.2824,-5.356,-5.3553,-5.3201,-5.2525,-5.2506,-5.2827,-5.3518,-5.3512,-5.3158,-5.2417,-5.2417,-5.2066,-5.14,-5.14,-5.14,-5.14,0.0,0.0,-5.1397,-5.1346,-5.133,-5.1328,-5.1312,-5.1272,-5.123,-5.123,-5.1225,-5.1225,0.0,0.0,0.0,0.0,0.0,0.0,0.0,0.0,0.0,0.0,0.0,0.0,0.0,0.0,0.0,0.0,0.0,0.0,0.0,0.0,0.0,-5.1304,-5.1304,-5.1304,-5.13,-5.13,-5.13,-5.13,-5.0424,-4.9644,-4.8962,-4.8105,-4.7306,-4.6608,-4.6608,-4.7014,-4.7754,-4.8612,-4.9372,-5.0073,-5.0949,0.0,0.0,0.0,0.0,0.0,0.0,0.0,0.0,-5.122,-5.122,-5.122,-5.122,0.0,0.0,0.0,0.0,0.0,-5.122,-5.122,-5.123,-5.1288,-5.13,-5.13,0.0,0.0,0.0,0.0,0.0,0.0,0.0,0.0,0.0,0.0,0.0,0.0,0.0,0.0,0.0,0.0,0.0,0.0,0.0,0.0,0.0,0.0,0.0,-5.166,-5.1796,-5.1796,-5.1737,-5.1601,-5.1601,-5.1659,-5.1775,-5.1788,-5.1722,-5.1579,-5.1579,-5.1515,-5.1408,-5.1408,-5.1408,-5.1408,0.0,-5.1403,-5.1394,-5.1394,-5.1383,-5.1385,-5.1385,-5.1382,-5.1356,-5.1303,-5.128,-5.1277,0.0,0.0,0.0,0.0,0.0,0.0,0.0,0.0,0.0,0.0,0.0,0.0,0.0,0.0,0.0,0.0,0.0,0.0,0.0,0.0,-5.13,-5.13,-5.13,-5.13,-5.13,-5.13,-5.13,-5.13,-5.0424,-4.9586,-4.8768,-4.7423,-4.6589,-4.6196,-4.6208,-4.6415,-4.6882,-4.8195,-4.8965,-4.9413,0.0,0.0,0.0,0.0,0.0,0.0,0.0,0.0,0.0,0.0,-5.1211,-5.1211,-5.1211,0.0,0.0,0.0,0.0,0.0,-5.1211,-5.1211,-5.1215,-5.1239,-5.1243,-5.1243,0.0,0.0,0.0,0.0,0.0,0.0,0.0,0.0,0.0,0.0,0.0,0.0,0.0,0.0,0.0,0.0,0.0,0.0,0.0,0.0,0.0,0.0,0.0,0.0,-5.1396,-5.1397,-5.1397,-5.1397,-5.14,-5.1401,-5.1401,-5.1405,-5.1406,-5.1402,-5.1402,-5.1402,-5.1399,-5.1399,-5.1398,-5.1395,0.0,-5.1391,-5.1403,-5.1403,-5.1398,-5.1408,-5.1408,-5.1403,-5.1396,-5.1372,-5.135,-5.135,0.0,0.0,0.0,0.0,0.0,0.0,0.0,0.0,0.0,0.0,0.0,0.0,0.0,0.0,0.0,0.0,0.0,0.0,0.0,0.0,-5.1292,-5.1292,-5.1288,-5.1288,-5.13,-5.13,-5.13,-5.13,-5.0424,-4.9488,-4.8456,-4.6913,-4.6192,-4.6192,-4.617,-4.6181,-4.6294,-4.7985,-4.8696,-4.8852,0.0,0.0,0.0,0.0,0.0,0.0,0.0,0.0,0.0,0.0,0.0,0.0,0.0,0.0,0.0,-5.121,-5.121,-5.121,-5.121,-5.121,-5.121,-5.121,0.0,0.0,0.0,0.0,0.0,0.0,0.0,0.0,0.0,0.0,0.0,0.0,0.0,0.0,0.0,0.0,0.0,0.0,0.0,0.0,0.0,0.0,0.0,0.0,0.0,0.0,-5.1406,-5.1406,-5.1406,-5.1406,-5.1396,-5.14,-5.14,-5.1407,-5.1397,-5.1406,-5.1406,-5.1406,-5.1406,-5.1406,-5.1406,-5.1406,-5.1406,-5.1405,-5.1402,-5.1402,-5.1401,-5.1396,-5.1396,-5.1393,-5.1407,-5.1407,-5.1407,-5.1407,0.0,0.0,0.0,0.0,0.0,0.0,0.0,0.0,0.0,0.0,0.0,0.0,0.0,0.0,0.0,0.0,0.0,0.0,0.0,0.0,-5.1291,-5.1291,-5.1249,-5.1239,-5.13,-5.13,-5.13,-5.13,-5.0424,-4.9177,-4.756,-4.6649,-4.6189,-4.6209,-4.613,-4.6117,-4.6214,-4.7961,-4.8696,-4.8852,-5.0524,0.0,0.0,0.0,0.0,0.0,0.0,0.0,0.0,0.0,0.0,0.0,0.0,0.0,-5.1208,-5.1208,-5.1208,-5.1208,-5.1208,-5.1208,-5.1208,-5.1208,-5.1189,0.0,-5.1211,-5.1191,0.0,-5.1287,0.0,0.0,0.0,0.0,0.0,0.0,0.0,0.0,0.0,0.0,0.0,0.0,0.0,0.0,0.0,0.0,0.0,0.0,0.0,0.0,-5.1397,-5.1397,-5.1397,-5.1397,-5.1397,-5.14,-5.14,-5.14,-5.1408,-5.1399,-5.1399,-5.1399,-5.1399,-5.1399,-5.1399,-5.14,-5.14,-5.1402,-5.1405,-5.1405,-5.1406,-5.1406,-5.1406,-5.1406,-5.1406,-5.1406,-5.1406,-5.1406,0.0,0.0,0.0,0.0,0.0,0.0,0.0,0.0,0.0,0.0,0.0,0.0,0.0,0.0,0.0,0.0,0.0,0.0,0.0,-5.1295,-5.1282,-5.1244,-5.1215,-5.122,-5.1239,-5.1239,-5.1239,-5.1239,-4.9857,-4.8864,-4.8221,-4.6792,-4.6149,-4.6145,-4.6104,-4.6095,-4.6187,-4.7335,-4.8146,-4.8748,-4.9923,-5.0714,0.0,0.0,0.0,0.0,0.0,0.0,0.0,0.0,-5.1202,-5.1202,-5.1202,-5.1202,-5.1202,-5.1202,-5.1202,-5.1202,-5.1202,-5.1202,-5.1202,-5.1202,-5.12,0.0,0.0,-5.1194,-5.1215,-5.124,0.0,0.0,0.0,0.0,0.0,0.0,0.0,0.0,0.0,0.0,0.0,0.0,0.0,0.0,0.0,0.0,0.0,0.0,0.0,0.0,-5.1342,-5.1342,-5.1342,-5.1342,-5.1333,-5.134,-5.134,-5.1388,-5.1405,-5.1406,-5.1406,-5.1406,-5.1406,-5.1406,-5.1394,-5.1405,-5.1405,-5.1393,-5.1401,-5.1401,-5.1402,-5.1403,-5.1403,-5.1403,-5.1403,-5.1403,-5.1403,-5.1325,0.0,0.0,0.0,0.0,0.0,0.0,0.0,0.0,0.0,0.0,0.0,0.0,0.0,0.0,0.0,0.0,0.0,0.0,-5.1278,-5.1269,-5.1259,-5.1201,-5.121,-5.1205,-5.1205,-5.1205,-5.119,-5.1211,-4.9805,-4.8968,-4.8676,-4.7193,-4.6357,-4.6104,-4.6081,-4.6066,-4.6124,-4.6954,-4.7648,-4.8289,-4.944,-5.025,0.0,0.0,0.0,0.0,0.0,0.0,0.0,0.0,-5.1172,-5.1172,-5.1172,-5.1172,-5.1172,-5.1172,-5.1172,-5.1172,-5.1165,-5.1165,-5.1171,0.0,0.0,0.0,-5.1202,-5.12,0.0,0.0,0.0,0.0,0.0,0.0,0.0,0.0,0.0,0.0,0.0,0.0,0.0,0.0,0.0,0.0,0.0,0.0,0.0,0.0,0.0,0.0,0.0,-5.13,-5.13,-5.13,-5.1296,-5.1167,-5.0894,-5.0943,-5.0833,-5.0579,-5.0579,-5.0878,-5.1394,-5.1394,-5.1405,-5.1403,-5.1403,-5.1236,-5.0995,-5.0995,-5.0821,-5.0589,-5.0573,-5.0573,-5.0573,-5.0573,-5.0573,-5.0494,0.0,0.0,0.0,0.0,0.0,0.0,0.0,0.0,0.0,0.0,0.0,0.0,0.0,0.0,0.0,0.0,0.0,0.0,-5.1191,-5.1205,-5.1194,-5.1189,-5.12,-5.1202,-5.1202,-5.1202,-5.1192,-5.1206,-5.0388,-4.9552,-4.8676,-4.7816,-4.6931,-4.6095,-4.6032,-4.6002,-4.606,-4.6929,-4.7293,-4.7453,-4.9182,-4.9887,-4.9984,0.0,0.0,0.0,0.0,0.0,0.0,0.0,-5.1094,-5.1094,-5.1094,-5.1094,-5.1094,-5.1094,-5.1094,-5.1107,-5.1108,-5.1095,0.0,0.0,0.0,0.0,0.0,0.0,0.0,0.0,0.0,0.0,0.0,0.0,0.0,0.0,0.0,0.0,0.0,0.0,0.0,0.0,0.0,0.0,0.0,0.0,0.0,0.0,0.0,0.0,0.0,-5.1281,-5.1281,-5.1281,-5.1281,-5.0852,-4.9995,-4.9995,-4.9586,-4.8806,-4.8806,-4.9705,-5.1375,-5.1375,-5.1375,-5.1375,-5.1375,-5.0887,-5.0087,-5.0087,-4.9572,-4.8803,-4.8794,-4.8798,-4.8798,-4.8798,-4.8798,-4.8798,0.0,0.0,0.0,0.0,0.0,0.0,0.0,0.0,0.0,0.0,0.0,0.0,0.0,0.0,0.0,0.0,0.0,0.0,-5.1205,-5.1194,-5.1203,-5.1194,-5.1208,-5.1202,-5.1202,-5.1202,-5.1208,-5.1206,-5.0356,-4.9482,-4.8607,-4.7741,-4.6862,-4.6032,-4.6002,-4.6002,-4.6021,-4.6268,-4.6735,-4.7351,-4.7861,-4.8782,-4.9865,0.0,0.0,0.0,0.0,0.0,0.0,0.0,0.0,0.0,-5.0963,-5.0956,-5.0963,-5.1012,-5.102,-5.1034,-5.1088,0.0,0.0,0.0,0.0,0.0,0.0,0.0,0.0,0.0,0.0,0.0,0.0,0.0,0.0,0.0,0.0,0.0,0.0,0.0,0.0,0.0,0.0,0.0,0.0,0.0,0.0,0.0,0.0,0.0,0.0,-4.9461,-4.9469,-4.9469,-4.952,-4.941,-4.9157,-4.9157,-4.904,-4.8806,-4.8806,-4.9067,-4.9565,-4.9565,-4.9572,-4.9562,-4.9562,-4.9416,-4.9193,-4.9193,-4.904,-4.8808,-4.8794,-4.8796,-4.8796,-4.8796,-4.8796,-4.8716,0.0,0.0,0.0,0.0,0.0,0.0,0.0,0.0,0.0,0.0,0.0,0.0,0.0,0.0,0.0,0.0,0.0,0.0,0.0,-5.1192,-5.12,-5.1202,-5.1202,-5.1202,-5.1202,-5.1202,-5.1202,-5.1202,-5.0678,-4.9784,-4.858,-4.8055,-4.7162,-4.6002,-4.6002,-4.6002,-4.6002,-4.6005,-4.6291,-4.6815,-4.7129,-4.8062,-4.9324,0.0,0.0,0.0,0.0,0.0,0.0,0.0,0.0,0.0,-5.0866,-5.085,-5.0877,-5.0909,-5.0917,-5.0945,-5.0998,0.0,0.0,0.0,0.0,0.0,0.0,0.0,0.0,0.0,0.0,0.0,0.0,0.0,0.0,0.0,0.0,0.0,0.0,0.0,0.0,0.0,0.0,0.0,0.0,0.0,0.0,0.0,0.0,0.0,0.0,-4.8699,-4.8708,-4.8708,-4.8748,-4.8581,-4.825,-4.8277,-4.8105,-4.7774,-4.7774,-4.7774,-4.7793,-4.8475,-4.8794,-4.8785,-4.8435,-4.8285,-4.8259,-4.7914,-4.7761,-4.7761,-4.7766,-4.7769,-4.7769,-4.7769,-4.7769,-4.7691,0.0,0.0,0.0,0.0,0.0,0.0,0.0,0.0,0.0,0.0,0.0,0.0,0.0,0.0,0.0,0.0,0.0,0.0,0.0,0.0,-5.119,-5.119,-5.119,-5.119,-5.1196,-5.1196,-5.1196,-5.1202,-5.1202,-5.0309,-4.8599,-4.8599,-4.7667,-4.5997,-4.5997,-4.5997,-4.5991,-4.5983,-4.5991,-4.6044,-4.6784,-4.7598,-4.8444,-4.9269,0.0,0.0,0.0,0.0,0.0,0.0,0.0,0.0,-5.0775,-5.0775,-5.0775,-5.0775,-5.0784,-5.0801,-5.0866,0.0,0.0,0.0,0.0,0.0,0.0,0.0,0.0,0.0,0.0,0.0,0.0,0.0,0.0,0.0,0.0,0.0,0.0,0.0,0.0,0.0,0.0,0.0,0.0,0.0,0.0,0.0,0.0,0.0,0.0,-4.8467,-4.8467,-4.8467,-4.8451,-4.8074,-4.7295,-4.7334,-4.6971,-4.6192,-4.6192,-4.6192,-4.6231,-4.7832,-4.8553,-4.8514,-4.7735,-4.7384,-4.7329,-4.6528,-4.6203,-4.6203,-4.6198,-4.6201,-4.6201,-4.6181,-4.6201,-4.6201,0.0,0.0,0.0,0.0,0.0,0.0,0.0,0.0,0.0,0.0,0.0,0.0,0.0,0.0,0.0,0.0,0.0,0.0,0.0,0.0,-5.1121,-5.1121,-5.1121,-5.1115,-5.1127,-5.1127,-5.1159,-5.1202,-5.1202,-5.0309,-4.8599,-4.8599,-4.7675,-4.6008,-4.6008,-4.5972,-4.591,-4.5923,-4.5925,-4.5938,-4.6106,-4.6647,-4.7422,-4.8265,-4.9111,0.0,0.0,0.0,0.0,0.0,0.0,0.0,-5.0584,-5.0554,-5.0565,-5.0624,-5.0644,-5.0654,0.0,-5.0825,0.0,0.0,0.0,0.0,0.0,0.0,0.0,0.0,0.0,0.0,0.0,0.0,0.0,0.0,0.0,0.0,0.0,0.0,0.0,0.0,0.0,0.0,0.0,0.0,0.0,0.0,0.0,0.0,-4.6581,-4.662,-4.6654,-4.6654,-4.6658,-4.6569,-4.6374,-4.6383,-4.6305,-4.6111,-4.6111,-4.6111,-4.613,-4.6555,-4.6764,-4.6745,-4.6569,-4.6472,-4.6472,-4.6281,-4.6203,-4.6203,-4.6192,-4.6208,-4.6185,-4.6131,-4.6123,-4.6123,0.0,0.0,0.0,0.0,0.0,0.0,0.0,0.0,0.0,0.0,0.0,0.0,0.0,0.0,0.0,0.0,0.0,0.0,0.0,0.0,-5.1053,-5.1053,-5.1053,-5.1074,-5.1108,-5.1108,-5.1115,-5.1153,-5.0726,-4.9865,-4.8602,-4.8602,-4.7653,-4.5955,-4.5956,-4.5925,-4.5906,-4.5867,-4.5847,-4.5845,-4.5824,-4.6263,-4.7,-4.7419,-4.8079,-4.8883,-4.9692,0.0,0.0,0.0,0.0,0.0,0.0,0.0,-5.0511,-5.0532,-5.0544,-5.047,0.0,0.0,0.0,0.0,0.0,0.0,0.0,0.0,0.0,0.0,0.0,0.0,0.0,0.0,0.0,0.0,0.0,0.0,0.0,0.0,0.0,0.0,0.0,0.0,0.0,0.0,0.0,0.0,0.0,-4.6002,-4.6002,-4.6032,-4.6042,-4.6042,-4.6085,-4.6099,-4.6099,-4.6089,-4.6098,-4.6098,-4.6098,-4.6098,-4.6098,-4.6138,-4.615,-4.615,-4.615,-4.615,-4.615,-4.615,-4.615,-4.615,-4.6158,-4.6154,-4.6154,-4.6102,-4.6098,-4.6098,0.0,0.0,0.0,0.0,0.0,0.0,0.0,0.0,0.0,0.0,0.0,0.0,0.0,0.0,0.0,0.0,0.0,0.0,0.0,0.0,0.0,-5.0975,-5.0975,-5.0998,-5.1066,-5.1073,-5.1073,-5.108,-5.0188,-4.9356,-4.8541,-4.8418,-4.7475,-4.5873,-4.5874,-4.588,-4.5866,-4.5795,-4.5765,-4.575,-4.5692,-4.6048,-4.6641,-4.675,-4.7213,-4.7885,-4.8699,-4.8985,-4.912,-4.9961,0.0,0.0,0.0,0.0,-5.0229,-5.0076,-5.0038,-4.9916,0.0,0.0,0.0,0.0,0.0,0.0,0.0,0.0,0.0,0.0,0.0,0.0,0.0,0.0,0.0,0.0,0.0,0.0,0.0,0.0,0.0,0.0,0.0,0.0,0.0,0.0,0.0,0.0,0.0,-4.5986,-4.5991,-4.5991,-4.5997,-4.6002,-4.6042,-4.6071,-4.6071,-4.6075,-4.6084,-4.6084,-4.6084,-4.6084,-4.6084,-4.6084,-4.6089,-4.6098,-4.6098,-4.6098,-4.6098,-4.6098,-4.6093,-4.6108,-4.6084,-4.608,-4.6075,-4.6071,-4.6071,-4.6071,0.0,0.0,0.0,0.0,0.0,0.0,0.0,0.0,0.0,0.0,0.0,0.0,0.0,0.0,0.0,0.0,0.0,0.0,-5.0916,0.0,0.0,-5.0827,-5.0827,-5.0863,-5.0924,-5.0924,-5.0921,-5.0933,-5.0058,-4.9192,-4.833,-4.768,-4.6822,-4.5821,-4.5798,-4.5781,-4.5731,-4.5657,-4.5635,-4.562,-4.5549,-4.5561,-4.5688,-4.6436,-4.6771,-4.6972,-4.7775,-4.808,-4.8203,-4.901,-4.9285,0.0,0.0,0.0,-4.9151,-4.8376,-4.8209,-4.8233,0.0,0.0,0.0,0.0,0.0,0.0,0.0,0.0,0.0,0.0,0.0,0.0,0.0,0.0,0.0,0.0,0.0,0.0,0.0,0.0,0.0,0.0,0.0,0.0,0.0,0.0,0.0,0.0,-4.5904,-4.5935,-4.6003,-4.6003,-4.5994,-4.6002,-4.6002,-4.6007,-4.6007,-4.6007,-4.6012,-4.6012,-4.6012,-4.6012,-4.6012,-4.6012,-4.6056,-4.6098,-4.6098,-4.6098,-4.6098,-4.6098,-4.6104,-4.6081,-4.6042,-4.6016,-4.6008,-4.5947,-4.5935,-4.5935,0.0,0.0,0.0,0.0,0.0,0.0,0.0,0.0,0.0,0.0,0.0,0.0,0.0,0.0,0.0,-5.0885,-5.0827,-5.0776,-5.0721,-5.0673,-5.0644,-5.0693,-5.0682,-5.072,-5.0784,-5.081,-5.0836,-5.0833,-4.9484,0.0,0.0,-4.6868,-4.6047,-4.5685,-4.5684,-4.5654,-4.5573,-4.5521,-4.5494,-4.5485,-4.5467,-4.5429,-4.5438,-4.584,-4.5954,-4.6019,-4.684,-4.7116,-4.724,-4.8097,-4.8372,-4.8372,-4.8372,0.0,0.0,0.0,0.0,0.0,0.0,0.0,0.0,0.0,0.0,0.0,0.0,0.0,0.0,0.0,0.0,0.0,0.0,0.0,0.0,0.0,0.0,0.0,0.0,0.0,0.0,0.0,0.0,0.0,0.0,0.0,0.0,0.0,-4.5874,-4.5906,-4.5944,-4.5943,-4.5935,-4.5933,-4.5933,-4.5933,-4.5933,-4.5989,-4.5994,-4.5994,-4.5958,-4.5933,-4.5933,-4.5933,-4.5975,-4.6032,-4.6032,-4.6026,-4.5991,-4.5991,-4.598,-4.5989,-4.5955,-4.5937,-4.5938,-4.5867,-4.5835,-4.5835,0.0,0.0,0.0,0.0,0.0,0.0,0.0,0.0,0.0,0.0,0.0,0.0,0.0,0.0,0.0,0.0,-5.0692,-5.0625,-5.0582,-5.0521,-5.0521,-5.0582,-5.0566,-5.0606,-5.0645,-5.0702,-5.0614,-5.0383,0.0,0.0,-4.7787,-4.6214,-4.5494,0.0,-4.5549,-4.5513,-4.5476,-4.5429,-4.54,-4.54,-4.5371,-4.5361,-4.5369,-4.5369,-4.5338,-4.5373,-4.5984,-4.6194,-4.6328,-4.7177,-4.7463,-4.7463,-4.7463,-4.7463,0.0,0.0,0.0,0.0,0.0,0.0,0.0,0.0,0.0,0.0,0.0,0.0,0.0,0.0,0.0,0.0,0.0,0.0,0.0,0.0,0.0,0.0,0.0,0.0,0.0,0.0,0.0,0.0,0.0,0.0,0.0,0.0,-4.529,-4.5195,-4.5215,-4.5202,-4.5221,-4.5247,-4.5247,-4.5234,-4.524,-4.5309,-4.532,-4.5314,-4.5485,-4.5563,-4.5576,-4.579,-4.5893,-4.595,-4.5968,-4.5937,-4.5867,-4.5867,-4.588,-4.5867,-4.586,-4.5866,-4.5833,-4.5778,-4.5745,-4.5737,0.0,0.0,0.0,0.0,0.0,0.0,0.0,0.0,0.0,0.0,0.0,0.0,-5.0433,-5.0615,-5.0613,-5.0613,-5.0542,-5.0511,-5.0511,-5.05,-5.05,-5.0511,-5.0511,0.0,-5.0511,-5.0521,-5.0099,-4.9285,0.0,0.0,-4.6752,-4.5832,-4.541,-4.5409,-4.541,-4.541,-4.541,0.0,0.0,0.0,0.0,-4.5307,-4.5307,-4.5307,-4.5307,-4.5307,-4.5364,-4.5354,-4.5488,-4.6309,-4.6577,-4.6577,0.0,0.0,0.0,0.0,0.0,0.0,0.0,0.0,0.0,0.0,0.0,0.0,0.0,0.0,0.0,0.0,0.0,0.0,0.0,0.0,0.0,0.0,0.0,0.0,0.0,0.0,0.0,0.0,0.0,0.0,0.0,0.0,0.0,0.0,-4.3713,-4.3269,-4.3341,-4.3341,-4.3362,-4.3434,-4.3441,-4.3434,-4.3446,-4.3495,-4.3495,-4.3452,-4.4273,-4.4679,-4.4692,-4.5465,-4.5812,-4.5803,-4.5873,-4.5867,-4.5814,-4.5814,-4.5812,-4.5815,-4.5815,-4.5773,-4.5688,-4.5648,-4.5613,-4.5605,0.0,0.0,0.0,0.0,0.0,0.0,0.0,0.0,0.0,0.0,0.0,0.0,0.0,-5.0197,-5.0532,-5.0532,-5.0478,-5.0424,-5.0371,-5.0371,-5.0371,-5.0371,-5.0404,-5.0435,-5.0435,-4.9933,-4.9514,-4.9207,0.0,-4.6941,-4.6624,-4.5701,-4.5277,-4.5286,-4.536,-4.538,-4.5339,-4.5288,0.0,0.0,0.0,0.0,0.0,0.0,0.0,0.0,0.0,0.0,0.0,0.0,0.0,0.0,0.0,0.0,0.0,0.0,0.0,0.0,0.0,0.0,0.0,0.0,0.0,0.0,0.0,0.0,0.0,0.0,0.0,0.0,0.0,0.0,0.0,0.0,0.0,0.0,0.0,0.0,0.0,0.0,0.0,0.0,0.0,0.0,0.0,0.0,0.0,-4.3055,-4.3068,-4.3111,-4.3154,-4.3169,-4.318,-4.3185,-4.324,-4.3265,-4.3258,-4.3232,-4.3513,-4.3631,-4.3651,-4.3941,-4.4033,-4.3992,-4.4025,-4.4654,-4.5669,-4.5665,-4.566,-4.5662,-4.5618,-4.5593,-4.5556,-4.5503,-4.5465,-4.5465,0.0,0.0,0.0,0.0,0.0,0.0,0.0,0.0,0.0,-4.6559,0.0,0.0,0.0,0.0,-5.0427,-5.0427,-5.0382,-5.0337,-5.0302,-5.0302,-5.0302,-5.0302,-5.0337,-5.0245,-4.9977,-4.9417,-4.8854,-4.8299,-4.7106,-4.6385,0.0,-4.547,-4.517,-4.517,-4.5265,-4.5256,0.0,0.0,0.0,-4.5159,0.0,0.0,-4.517,0.0,0.0,0.0,0.0,0.0,0.0,0.0,0.0,0.0,0.0,0.0,0.0,0.0,0.0,0.0,0.0,0.0,0.0,0.0,0.0,0.0,0.0,0.0,0.0,0.0,0.0,0.0,0.0,0.0,0.0,0.0,0.0,0.0,0.0,0.0,0.0,0.0,0.0,0.0,0.0,0.0,0.0,0.0,0.0,0.0,-4.2054,-4.2108,-4.2134,-4.217,-4.2189,-4.2225,-4.2251,-4.2282,-4.2287,-4.226,-4.2483,-4.2596,-4.2612,-4.2883,-4.2972,-4.2917,-4.2908,-4.3567,-4.4673,-4.4657,-4.465,-4.4651,-4.4604,-4.4585,-4.4585,-4.4528,-4.4489,-4.4489,0.0,0.0,0.0,0.0,0.0,0.0,0.0,0.0,-4.5658,-4.6451,0.0,0.0,0.0,0.0,0.0,-5.029,-5.029,-5.029,-5.029,-5.029,-5.029,-5.029,-5.029,-4.992,-4.9117,-4.9002,-4.8159,-4.6507,-4.6412,-4.5921,-4.5103,-4.5103,-4.5084,-4.5084,-4.5091,-4.5091,-4.5091,0.0,-4.5103,-4.5103,0.0,-4.5103,-4.5103,0.0,0.0,0.0,-4.5103,-4.5103,0.0,-4.5103,0.0,0.0,0.0,0.0,0.0,0.0,0.0,0.0,0.0,0.0,0.0,0.0,0.0,0.0,0.0,0.0,0.0,0.0,0.0,0.0,0.0,0.0,0.0,0.0,0.0,0.0,0.0,0.0,0.0,0.0,0.0,0.0,0.0,0.0,0.0,0.0,-4.0634,-4.0196,-4.0196,-4.0196,-4.0224,-4.0279,-4.0347,-4.0397,-4.0397,-4.0465,-4.0465,-4.0397,-4.1191,-4.1558,-4.157,-4.2355,-4.2708,-4.2727,-4.2658,-4.265,-4.2709,-4.2766,-4.2795,-4.2785,-4.2785,-4.2785,-4.2785,-4.2725,-4.2704,-4.2694,0.0,0.0,0.0,0.0,0.0,0.0,-4.5184,-4.5184,-4.526,0.0,0.0,0.0,-4.7998,-4.93,-5.0158,-5.0158,-5.0158,-5.0158,-5.0158,-5.0158,-5.0158,-5.0158,-5.0158,-4.9777,-4.8958,-4.8317,-4.7467,-4.642,-4.578,-4.5331,-4.5103,-4.4991,-4.4962,0.0,-4.4846,-4.4808,-4.4808,-4.4974,0.0,-4.5014,-4.4967,-4.4979,0.0,0.0,0.0,0.0,0.0,-4.5103,-4.5103,0.0,-4.508,-4.5014,0.0,0.0,0.0,0.0,0.0,0.0,-4.4895,0.0,0.0,0.0,0.0,0.0,0.0,0.0,0.0,0.0,0.0,0.0,0.0,0.0,0.0,0.0,0.0,0.0,0.0,0.0,0.0,0.0,0.0,0.0,0.0,0.0,0.0,0.0,-4.0231,-4.0137,-4.0128,-4.0128,-4.0157,-4.0234,-4.0244,-4.0252,-4.027,-4.026,-4.027,-4.0262,-4.0482,-4.0559,-4.0519,-4.0757,-4.0852,-4.0842,-4.0832,-4.0803,-4.086,-4.2139,-4.2664,-4.2673,-4.2673,-4.2673,-4.2644,-4.2633,-4.2622,-4.2622,0.0,0.0,0.0,0.0,0.0,-4.5033,-4.5033,-4.5045,-4.5068,0.0,0.0,0.0,-4.8566,-4.9505,-5.0095,-5.0095,-5.0095,-5.0095,-5.0095,-5.0082,-4.9917,-4.9575,-4.9512,-4.8935,-4.7808,-4.7239,-4.6562,-4.5727,-4.5209,-4.4931,-4.4931,-4.4846,-4.4827,-4.4808,0.0,0.0,0.0,0.0,0.0,0.0,-4.4895,0.0,0.0,-4.4955,-4.4979,0.0,0.0,0.0,-4.5033,-4.5033,-4.4979,0.0,0.0,0.0,0.0,0.0,0.0,0.0,0.0,0.0,0.0,0.0,0.0,0.0,-4.4895,-4.4895,0.0,0.0,0.0,0.0,0.0,0.0,0.0,0.0,0.0,0.0,0.0,0.0,0.0,0.0,0.0,0.0,0.0,-3.9837,-3.9859,-3.9859,-3.9911,-3.9933,-3.9933,-3.9994,-4.0036,-4.0077,-4.0137,-4.0157,-4.0158,-4.0158,-4.0167,-4.0157,-4.0118,-4.0098,-4.0057,-3.9986,-3.9965,-3.9965,-3.9962,-3.9911,-3.9946,-4.0975,-4.1418,-4.148,-4.148,-4.1459,-4.1429,-4.1429,-4.1407,-4.1385,0.0,0.0,0.0,-4.4883,-4.487,-4.487,-4.487,-4.4919,-4.4955,0.0,-4.6465,-4.8156,-4.9733,-5.0,-5.0057,-5.0057,-5.0057,-5.0019,-4.9924,-4.9853,-4.9466,-4.865,-4.8509,-4.7717,-4.6184,-4.6081,-4.564,-4.4776,-4.4712,-4.4685,-4.4685,-4.4672,-4.4672,-4.4672,0.0,0.0,0.0,0.0,0.0,-4.4757,-4.4833,-4.487,0.0,0.0,-4.487,-4.487,-4.4902,-4.4883,-4.4883,-4.4895,-4.4895,0.0,0.0,0.0,0.0,0.0,-4.487,0.0,0.0,0.0,0.0,0.0,0.0,0.0,-4.4895,-4.4838,-4.4762,0.0,0.0,0.0,0.0,0.0,0.0,0.0,0.0,0.0,0.0,0.0,0.0,0.0,0.0,0.0,-3.9701,-3.9701,-3.9701,-3.9701,-3.9701,-3.9701,-3.9701,-3.9804,-3.9878,-3.9878,-3.9994,-4.0057,-4.0057,-4.0057,-4.0057,-4.0046,-4.0005,-3.9965,-3.9965,-3.9837,-3.9792,-3.9781,-3.9724,-3.9701,-3.9701,-3.9701,-3.9758,-3.9878,-3.9878,-3.9826,-3.9792,-3.9792,-3.9747,-3.9701,0.0,0.0,-4.4745,-4.4732,-4.4751,-4.4751,-4.4751,-4.4764,-4.4764,-4.4764,-4.6225,-4.7656,-4.8626,-4.9363,-4.9778,-4.9778,-4.9778,-4.9476,-4.8777,-4.8725,-4.8338,-4.7466,-4.7401,-4.6901,-4.582,-4.5768,-4.5392,-4.457,-4.4556,-4.4537,-4.4542,-4.4482,-4.4454,-4.4454,-4.4397,0.0,0.0,0.0,0.0,-4.4496,-4.4672,0.0,-4.4751,-4.4751,-4.4751,-4.4751,-4.4796,-4.4808,-4.4821,-4.487,-4.4895,-4.4883,0.0,0.0,0.0,0.0,0.0,0.0,0.0,0.0,0.0,0.0,0.0,0.0,-4.4883,-4.4402,-4.3929,0.0,0.0,0.0,0.0,0.0,0.0,0.0,0.0,0.0,0.0,0.0,0.0,0.0,0.0,0.0,-3.9701,-3.9701,-3.9701,-3.9701,-3.9701,-3.9701,-3.9701,-3.9724,-3.9735,-3.9735,-3.9758,-3.9789,-3.9789,-3.9789,-3.9789,-3.9789,-3.9758,-3.9758,-3.9758,-3.9724,-3.9712,-3.9712,-3.9701,-3.9701,-3.9701,-3.9701,-3.9712,-3.9735,-3.9735,-3.9724,-3.9712,-3.9712,-3.9712,-3.9701,0.0,0.0,-4.4537,-4.451,-4.4496,-4.4496,-4.4496,-4.4537,-4.4551,-4.4551,-4.5664,-4.6784,-4.7612,-4.8102,-4.8347,-4.8347,-4.8347,-4.8177,-4.773,-4.7663,-4.7262,-4.6344,-4.6281,-4.5814,-4.4864,-4.4845,-4.4659,-4.4248,-4.4248,-4.4248,-4.4248,-4.4218,-4.4188,-4.4188,-4.4177,0.0,0.0,0.0,-4.4218,-4.4258,-4.4532,0.0,-4.4659,-4.4699,-4.4712,-4.4693,-4.4751,-4.4764,-4.4764,-4.4783,-4.4796,0.0,0.0,-4.4764,-4.4732,0.0,-4.4712,-4.4712,0.0,0.0,0.0,-4.4732,0.0,0.0,0.0,-4.39,-4.3472,0.0,0.0,0.0,0.0,0.0,0.0,0.0,0.0,0.0,0.0,0.0,0.0,0.0,0.0,0.0,-3.9656,-3.9656,-3.9644,-3.9607,-3.957,-3.9558,-3.9558,-3.9545,-3.9557,-3.9557,-3.9575,-3.963,-3.9654,-3.9654,-3.9665,-3.9701,-3.9701,-3.9701,-3.9701,-3.9715,-3.9691,-3.9691,-3.9631,-3.9595,-3.9595,-3.957,-3.9558,-3.957,-3.9618,-3.9642,-3.9606,-3.9551,-3.9545,-3.9558,-4.4252,0.0,0.0,-4.4237,-4.4237,-4.4237,-4.4237,-4.4296,-4.4354,-4.4368,-4.5138,-4.5917,-4.663,-4.6836,-4.6915,-4.69,-4.69,-4.6825,-4.6656,-4.6596,-4.6161,-4.5229,-4.5134,-4.4758,-4.3976,-4.3942,-4.3908,-4.3908,-4.391,-4.391,-4.391,-4.391,-4.391,-4.391,-4.391,0.0,0.0,0.0,0.0,-4.4064,0.0,-4.4496,-4.4551,-4.4605,-4.4632,-4.4646,-4.4672,-4.4699,-4.4712,-4.4712,-4.4712,-4.4699,-4.4667,-4.4685,0.0,0.0,0.0,0.0,0.0,0.0,0.0,0.0,0.0,-4.4246,0.0,0.0,0.0,0.0,0.0,0.0,0.0,0.0,0.0,0.0,0.0,0.0,0.0,0.0,0.0,0.0,0.0,0.0,-3.9596,-3.9583,-3.9546,-3.9482,-3.9418,-3.936,-3.936,-3.9362,-3.9337,-3.935,-3.9414,-3.9477,-3.9557,-3.9557,-3.9582,-3.9649,-3.9649,-3.9649,-3.9649,-3.9638,-3.9645,-3.9633,-3.9533,-3.9469,-3.9444,-3.9386,-3.936,-3.936,-3.9514,-3.9502,-3.9439,-3.9376,-3.9362,-3.9346,-4.4079,-4.414,0.0,0.0,-4.4036,-4.4036,-4.4036,-4.4094,-4.4188,-4.43,-4.5025,0.0,0.0,0.0,0.0,0.0,0.0,0.0,-4.5462,0.0,-4.4989,-4.4112,-4.4059,-4.3992,-4.3837,-4.3716,-4.3647,-4.3647,-4.3599,-4.3548,-4.3548,-4.3548,-4.3548,-4.3548,-4.3548,0.0,0.0,0.0,-4.3716,0.0,-4.3929,-4.4116,0.0,-4.4344,-4.4368,-4.4454,-4.4565,-4.4646,-4.4712,0.0,-4.4712,-4.4699,0.0,-4.4605,-4.4592,0.0,0.0,0.0,0.0,0.0,0.0,0.0,-4.3559,0.0,0.0,0.0,0.0,0.0,0.0,0.0,0.0,0.0,0.0,0.0,0.0,0.0,0.0,0.0,0.0,0.0,0.0,0.0,0.0,-3.9457,-3.9431,-3.9418,-3.9301,-3.921,-3.921,-3.917,-3.917,-3.9224,-3.9237,-3.9296,-3.9412,-3.9412,-3.9425,-3.9425,-3.9425,-3.9425,-3.9425,-3.9425,-3.9444,-3.9444,-3.9418,-3.9328,-3.9224,-3.9229,-3.9202,-3.9142,-3.936,-3.9354,-3.9237,-3.9224,-3.9183,-3.9129,-4.3913,-4.3929,0.0,0.0,-4.3881,-4.3881,-4.3881,-4.3897,-4.3963,0.0,0.0,0.0,0.0,0.0,0.0,0.0,0.0,-4.4753,0.0,0.0,0.0,-4.3582,-4.3546,-4.3531,-4.3445,-4.3392,-4.3375,-4.3375,-4.3339,-4.334,-4.334,-4.334,-4.334,-4.334,-4.334,0.0,-4.3375,0.0,-4.3427,0.0,0.0,0.0,0.0,-4.4113,-4.4252,-4.4358,-4.4416,-4.444,-4.4468,0.0,-4.4468,0.0,0.0,0.0,0.0,0.0,0.0,0.0,0.0,0.0,0.0,0.0,0.0,0.0,-4.1569,0.0,-4.0754,0.0,0.0,0.0,0.0,0.0,0.0,0.0,-3.9608,0.0,0.0,0.0,0.0,0.0,0.0,0.0,0.0,0.0,0.0,0.0,-3.9036,-3.8979,-3.8979,-3.8873,-3.8826,-3.8855,-3.8917,-3.9007,-3.911,-3.9138,-3.9193,-3.9234,-3.9234,-3.9234,-3.9234,-3.9234,-3.9234,-3.9215,-3.918,-3.9106,-3.9021,-3.8993,-3.8902,-3.8811,-3.8902,-3.896,-3.9021,-3.8993,-3.8921,-3.8866,-4.3719,0.0,0.0,0.0,0.0,-4.3719,-4.3736,-4.3754,-4.3736,0.0,0.0,0.0,-4.3669,-4.3651,0.0,0.0,-4.3635,-4.3583,0.0,0.0,-4.3426,0.0,0.0,0.0,0.0,-4.3178,-4.316,-4.316,-4.3142,-4.3123,-4.3123,-4.3123,-4.3123,-4.3123,0.0,-4.3142,-4.316,0.0,0.0,-4.3286,-4.3375,-4.3462,-4.3545,-4.3923,-4.4097,-4.4195,-4.4226,-4.4226,-4.4226,-4.4226,-4.4226,0.0,-4.3946,0.0,0.0,0.0,0.0,0.0,-4.2646,0.0,0.0,0.0,0.0,0.0,0.0,0.0,0.0,0.0,0.0,0.0,0.0,0.0,0.0,0.0,0.0,0.0,0.0,0.0,0.0,0.0,0.0,0.0,0.0,0.0,0.0,-3.8892,-3.8788,-3.8713,-3.8713,-3.8603,-3.8554,-3.8569,-3.8664,-3.8743,-3.8818,-3.8877,-3.8935,-3.8993,-3.8993,-3.8974,-3.8956,-3.8956,-3.8956,-3.8956,-3.8902,-3.8862,-3.8788,-3.8713,-3.8621,-3.851,-3.8476,-3.8538,-3.8667,-3.8698,-3.8655,-3.858,-4.3515,-4.3548,0.0,0.0,0.0,-4.3513,-4.36,-4.3599,-4.3615,0.0,0.0,0.0,0.0,0.0,0.0,0.0,0.0,-4.3233,-4.3196,0.0,-4.3196,0.0,0.0,-4.3196,0.0,0.0,-4.3104,-4.3104,-4.2957,-4.2901,-4.2901,-4.2901,-4.2901,-4.2901,-4.2901,-4.2994,-4.3104,-4.3104,-4.3142,-4.3196,-4.3214,-4.325,-4.3355,0.0,-4.3897,-4.3913,-4.3989,0.0,0.0,-4.402,-4.402,0.0,0.0,0.0,0.0,0.0,0.0,0.0,0.0,0.0,0.0,-4.0816,0.0,0.0,0.0,0.0,-3.9442,0.0,0.0,0.0,0.0,0.0,0.0,0.0,0.0,0.0,0.0,0.0,0.0,0.0,0.0,0.0,0.0,0.0,-3.8758,-3.8615,-3.8538,-3.851,-3.851,-3.8446,-3.843,-3.851,-3.851,-3.8538,-3.86,-3.8615,-3.8652,-3.8723,-3.8723,-3.867,-3.8615,-3.8615,-3.8615,-3.8615,-3.8615,-3.8569,-3.851,-3.8446,-3.8368,-3.8307,-3.817,-3.8068,-3.8069,-3.8399,-3.8433,-3.8307,0.0,0.0,0.0,0.0,0.0,-4.3304,-4.3322,-4.3339,0.0,0.0,0.0,0.0,0.0,-4.3214,-4.3232,0.0,0.0,-4.3178,-4.3142,-4.3123,0.0,0.0,0.0,-4.3013,0.0,0.0,0.0,0.0,0.0,-4.2901,-4.2901,-4.2901,-4.2901,-4.2901,0.0,-4.2938,0.0,0.0,0.0,0.0,0.0,-4.3178,-4.325,0.0,-4.3565,-4.3651,-4.3649,-4.3666,0.0,-4.3666,-4.3332,-4.2834,-4.2558,-4.2097,-4.1617,-4.1341,-4.0926,0.0,0.0,0.0,-3.9853,-3.9588,0.0,0.0,0.0,0.0,0.0,0.0,0.0,0.0,0.0,0.0,0.0,0.0,0.0,0.0,0.0,0.0,-3.8781,0.0,0.0,0.0,0.0,0.0,0.0,-3.8283,-3.8219,-3.817,-3.817,-3.8104,-3.8088,-3.8105,-3.8136,-3.8186,-3.8201,-3.8251,-3.8267,-3.8302,-3.8302,-3.8302,-3.8267,-3.8267,-3.8267,-3.8267,-3.8267,-3.8234,-3.817,-3.8153,-3.8087,-3.8038,-3.7985,-3.7951,-3.7951,-3.8103,-3.8121,-3.8038,-4.305,0.0,0.0,0.0,0.0,0.0,0.0,0.0,0.0,0.0,-4.316,0.0,-4.3105,0.0,-4.3087,0.0,-4.3087,-4.3068,-4.303,-4.303,0.0,-4.2901,-4.2901,0.0,0.0,0.0,0.0,0.0,0.0,-4.2901,-4.2901,-4.2901,-4.29,-4.2862,0.0,-4.2824,-4.2805,0.0,-4.2805,0.0,0.0,-4.2955,0.0,0.0,-4.3196,-4.3392,0.0,-4.3209,-4.2971,-4.2971,-4.2421,-4.1724,-4.1431,-4.0974,-4.0498,-4.0221,-3.9795,-3.9439,-3.947,-3.9145,0.0,-3.8844,-3.8888,0.0,-3.895,0.0,0.0,0.0,0.0,0.0,0.0,0.0,0.0,0.0,0.0,0.0,0.0,-3.8556,0.0,0.0,0.0,0.0,0.0,0.0,-3.8156,-3.8053,-3.7984,-3.7967,0.0,-3.7916,-3.7899,-3.7899,-3.7951,-3.7967,-3.7967,-3.8019,-3.8036,-3.8036,-3.8036,-3.8036,-3.8036,-3.8036,-3.8036,-3.8036,-3.8036,-3.7966,-3.7897,-3.7862,-3.781,-3.7721,-3.7703,-3.7685,-3.7703,-3.7827,-3.7828,-3.7721,0.0,0.0,0.0,0.0,-4.3178,0.0,0.0,0.0,-4.316,0.0,-4.3086,-4.303,-4.2919,-4.29,-4.2901,-4.2901,-4.2901,-4.2901,-4.2901,-4.2901,0.0,0.0,-4.29,-4.2882,-4.29,0.0,0.0,0.0,0.0,0.0,-4.29,-4.29,-4.2843,-4.2783,-4.2783,0.0,-4.2609,-4.2609,-4.2609,-4.2609,-4.2609,-4.2609,-4.2609,-4.2573,-4.277,-4.3105,-4.3105,-4.2613,-4.1921,-4.1921,-4.1374,-4.0589,-3.9824,-3.9534,-3.9369,-3.8603,-3.8366,-3.8399,-3.8462,-3.8478,-3.851,-3.8554,-3.8585,0.0,0.0,0.0,-3.8585,0.0,0.0,0.0,0.0,0.0,0.0,0.0,0.0,0.0,0.0,0.0,0.0,0.0,0.0,0.0,0.0,-3.7984,-3.7967,-3.7881,-3.7881,0.0,0.0,0.0,-3.7864,-3.7864,-3.7864,-3.7864,-3.7864,-3.7864,-3.7864,-3.7864,-3.7864,-3.7864,-3.7864,-3.7864,-3.7864,-3.7864,-3.7864,-3.7793,-3.7667,-3.7613,-3.7503,-3.7392,-3.7316,-3.7297,-3.7316,-3.7577,-3.7559,-3.7392,-4.2831,-4.2918,-4.2841,0.0,-4.2881,-4.2957,0.0,0.0,0.0,0.0,-4.2822,-4.286,-4.2841,-4.2862,-4.2901,-4.2901,-4.2901,0.0,0.0,0.0,0.0,-4.2841,-4.2841,-4.2785,-4.267,-4.267,0.0,-4.267,0.0,0.0,-4.267,-4.267,-4.2668,0.0,0.0,0.0,-4.2609,-4.2609,-4.2609,-4.2609,-4.2609,-4.2609,0.0,0.0,-4.1768,-4.1863,-4.1863,-4.1377,-4.0745,-4.0745,-4.0185,-3.9499,-3.9283,-3.8814,-3.829,-3.8092,-3.8053,-3.8103,-3.8119,-3.8152,-3.8201,-3.8218,-3.8234,-3.8234,0.0,0.0,0.0,0.0,0.0,0.0,0.0,0.0,0.0,0.0,0.0,0.0,0.0,0.0,0.0,-3.7721,0.0,0.0,0.0,-3.7774,-3.7739,-3.7685,-3.7577,0.0,0.0,0.0,-3.7447,-3.7447,-3.7447,-3.7447,-3.7447,-3.7447,-3.7447,-3.7447,-3.7447,-3.7447,-3.7447,-3.7447,-3.7447,-3.7447,-3.7447,-3.7428,-3.741,-3.7391,-3.7353,-3.7316,-3.7297,-3.7201,-3.7105,-3.7334,-3.7372,-3.7316,-4.2641,0.0,0.0,-4.2609,0.0,0.0,-4.2707,0.0,0.0,-4.2609,-4.2686,0.0,-4.2707,-4.2746,-4.2767,-4.2767,-4.2767,0.0,-4.2767,0.0,0.0,-4.2707,-4.2707,-4.2686,-4.2609,-4.2609,0.0,-4.2609,0.0,0.0,-4.2512,0.0,0.0,0.0,0.0,-4.2369,0.0,-4.2346,-4.2346,-4.2346,-4.2346,0.0,0.0,-4.1368,-4.0779,-4.019,-4.0247,-4.0036,-3.9787,-3.9787,-3.9247,-3.8582,-3.8582,-3.8258,-3.7899,-3.7899,-3.7934,-3.7968,-3.7968,-3.7984,-3.8019,-3.8019,-3.8019,-3.8019,-3.8019,-3.8019,-3.8019,0.0,-3.8019,-3.8019,0.0,0.0,0.0,0.0,0.0,0.0,0.0,0.0,0.0,0.0,-3.7392,0.0,0.0,-3.7522,-3.7503,-3.7484,0.0,0.0,0.0,0.0,-3.7297,-3.7297,-3.7297,-3.7297,-3.7297,-3.7297,-3.7297,-3.7297,-3.7297,-3.7297,-3.7297,-3.7297,-3.7297,-3.7297,-3.7297,-3.7239,-3.7163,-3.7163,-3.7105,-3.7044,-3.7044,-3.6965,-3.6886,-3.6928,-3.6987,-3.7044,0.0,0.0,0.0,0.0,0.0,0.0,0.0,-4.253,0.0,-4.253,0.0,-4.255,-4.257,-4.257,-4.2589,-4.2609,0.0,-4.2609,-4.2609,-4.2609,-4.2589,-4.257,-4.257,-4.255,-4.253,-4.251,0.0,0.0,0.0,0.0,0.0,0.0,0.0,0.0,0.0,0.0,0.0,-4.1962,-4.1962,-4.1945,-4.1839,-4.14,-4.0766,-4.0692,-3.9809,-3.8602,-3.8607,-3.874,-3.8905,-3.8905,-3.8438,-3.7864,-3.7864,-3.7864,-3.7864,-3.7864,-3.7864,-3.7864,-3.7864,-3.7864,-3.7864,-3.7864,-3.7864,-3.7864,-3.7864,-3.7864,-3.7864,-3.7846,-3.7828,-3.7828,0.0,0.0,0.0,0.0,0.0,0.0,0.0,0.0,0.0,0.0,0.0,0.0,0.0,0.0,0.0,0.0,0.0,0.0,0.0,0.0,-3.7259,-3.7259,-3.7259,-3.7259,-3.7259,-3.7259,-3.7259,-3.7259,-3.7259,-3.7259,-3.7259,-3.7239,-3.7239,-3.7239,-3.7238,-3.7105,-3.693,-3.693,-3.6809,-3.6643,-3.6643,-3.6643,-3.662,-3.6482,-3.6499,-3.6599,0.0,0.0,0.0,0.0,0.0,-4.2072,-4.2094,-4.2142,-4.2163,-4.2115,-4.2142,-4.2228,-4.2348,-4.2391,-4.2472,-4.2589,-4.2609,0.0,0.0,0.0,0.0,-4.2369,-4.2348,-4.2267,-4.2094,-4.2111,-4.2111,0.0,0.0,0.0,0.0,0.0,0.0,0.0,0.0,0.0,-4.1688,-4.1688,0.0,-4.1618,-4.1071,-4.0761,-4.0517,-3.9368,-3.8752,-3.8433,-3.7797,-3.7698,-3.7864,-3.7864,-3.7774,-3.7667,-3.7667,-3.7667,-3.7667,-3.7667,-3.7667,-3.7667,-3.7667,-3.7667,-3.7667,-3.7667,-3.7667,-3.7667,-3.7667,-3.7667,-3.7631,-3.7503,-3.7485,-3.7466,-3.741,0.0,0.0,0.0,0.0,0.0,0.0,0.0,0.0,0.0,0.0,0.0,0.0,0.0,0.0,0.0,0.0,0.0,0.0,0.0,-3.7066,0.0,-3.7066,0.0,0.0,0.0,-3.7066,-3.7066,-3.7066,-3.7066,-3.7046,-3.6948,-3.6888,-3.6871,-3.6826,-3.6725,-3.6585,-3.6585,-3.6506,-3.6364,-3.6364,-3.6335,-3.6268,-3.6144,-3.6019,-3.5993,0.0,0.0,0.0,0.0,0.0,0.0,0.0,-4.1653,0.0,-4.1984,-4.203,-4.2076,-4.2157,-4.2181,-4.2222,-4.2284,-4.2284,-4.2284,-4.2284,-4.2284,-4.2243,-4.2157,-4.2097,0.0,-4.1902,-4.1819,-4.1797,-4.1797,0.0,0.0,0.0,0.0,0.0,0.0,0.0,-4.1244,0.0,0.0,0.0,-4.069,-4.0368,-3.9804,-3.9084,-3.8468,-3.7981,-3.7576,-3.7306,-3.726,-3.7337,-3.7411,-3.7447,-3.7447,-3.7447,-3.7447,-3.7447,-3.7447,-3.7447,-3.7447,-3.7447,-3.7447,-3.7447,-3.7447,-3.7447,-3.7447,-3.7447,-3.7447,-3.7428,-3.7354,-3.7353,-3.7334,-3.7297,-3.7239,0.0,0.0,0.0,0.0,0.0,0.0,0.0,0.0,0.0,0.0,0.0,0.0,0.0,0.0,0.0,0.0,0.0,0.0,-3.6829,0.0,0.0,0.0,-3.6829,0.0,-3.6829,-3.6829,-3.6829,-3.6829,-3.6846,-3.6708,-3.6629,-3.6647,-3.6544,-3.6398,-3.6233,-3.6084,-3.5997,-3.5937,-3.5937,-3.5932,-3.5866,-3.5739,-3.5622,-3.5571,0.0,-4.1498,0.0,0.0,-4.142,0.0,-4.129,-4.1203,-4.1295,-4.1754,-4.1837,-4.1837,-4.1858,-4.188,-4.188,-4.1902,-4.1902,-4.1902,-4.1902,-4.1902,-4.1902,-4.188,-4.1736,-4.167,-4.1648,-4.1515,-4.1448,0.0,0.0,0.0,0.0,0.0,0.0,0.0,0.0,0.0,0.0,0.0,-4.0238,-3.9767,-3.9461,-3.8681,-3.77,-3.7648,-3.7271,-3.6768,-3.6913,-3.6992,-3.7029,-3.7143,-3.722,-3.7297,-3.7297,-3.7297,-3.7297,-3.7297,-3.7297,-3.7297,-3.7297,-3.7297,-3.7297,-3.7297,-3.7297,-3.7297,-3.7297,-3.7297,-3.7297,-3.7259,-3.722,-3.7182,-3.718,-3.7105,0.0,0.0,0.0,0.0,0.0,0.0,0.0,0.0,0.0,0.0,0.0,0.0,0.0,0.0,0.0,0.0,-3.6623,0.0,0.0,0.0,0.0,-3.6623,-3.6623,0.0,-3.6623,-3.6623,-3.6623,-3.6623,-3.6602,-3.6461,-3.6381,-3.6381,-3.6216,-3.6023,-3.5822,-3.56,-3.5487,-3.5441,-3.5441,-3.5441,-3.5441,-3.5287,-3.5211,-3.5182,0.0,0.0,0.0,0.0,0.0,0.0,-4.0982,-4.0942,-4.1012,-4.1232,-4.1277,-4.1318,-4.1448,-4.1448,-4.1493,-4.1626,-4.1626,-4.1626,-4.1626,-4.1626,-4.1582,-4.1448,-4.134,-4.1226,-4.1163,-4.1029,-4.0982,0.0,0.0,-4.0942,0.0,0.0,0.0,0.0,0.0,0.0,0.0,-3.963,-3.9378,-3.9326,-3.8053,-3.7467,-3.7283,-3.6701,-3.6475,-3.6544,-3.6564,-3.6626,-3.6725,-3.6745,-3.7005,-3.7297,-3.7297,-3.7297,-3.7297,-3.7297,-3.7297,-3.7297,-3.7297,-3.7297,-3.7297,-3.7297,-3.7297,-3.7297,-3.7297,-3.7297,-3.7278,-3.7147,-3.697,-3.6829,-3.6766,-3.6763,-3.6705,0.0,0.0,0.0,0.0,0.0,0.0,0.0,0.0,0.0,0.0,-3.5667,0.0,0.0,0.0,0.0,0.0,0.0,0.0,-3.6343,-3.6343,-3.6343,-3.6343,-3.6343,-3.6343,-3.6343,-3.6343,-3.6343,-3.6322,-3.6148,-3.6041,-3.6041,-3.5778,-3.5532,-3.536,-3.5205,-3.5088,-3.497,-3.497,-3.497,-3.4947,-3.4811,-3.4763,-3.4739,0.0,0.0,0.0,0.0,0.0,0.0,0.0,-4.0655,-4.0704,-4.0782,-4.0924,-4.1059,-4.1082,-4.1105,-4.1129,-4.1175,-4.1175,-4.1175,-4.1175,-4.1175,-4.1152,-4.1105,-4.0965,-4.0847,-4.0745,-4.0624,-4.051,0.0,0.0,0.0,0.0,0.0,0.0,0.0,0.0,-3.9884,-3.9885,-3.9143,-3.8661,-3.8275,-3.7295,-3.6627,-3.6253,-3.6073,-3.6019,-3.6101,-3.6251,-3.6335,-3.6416,-3.6461,-3.6667,-3.6946,-3.6987,-3.7007,-3.7027,-3.7105,-3.7124,-3.7124,-3.7124,-3.7124,-3.7124,-3.7124,-3.7066,-3.7007,-3.7007,-3.6968,-3.6926,-3.6869,-3.6728,-3.6606,-3.6564,-3.6478,-3.6353,-3.6212,0.0,0.0,0.0,0.0,0.0,0.0,0.0,0.0,0.0,0.0,0.0,0.0,0.0,0.0,0.0,0.0,0.0,-3.5871,0.0,-3.5871,-3.5871,-3.5871,-3.5871,-3.5871,-3.5871,-3.5871,-3.5871,-3.5717,-3.556,-3.5441,-3.5188,-3.5001,-3.4923,-3.4804,-3.4707,-3.4667,-3.4667,-3.4667,-3.4643,-3.4594,-3.4521,-3.4448,-4.051,0.0,-4.0485,0.0,-4.0436,-4.0436,-4.0387,-4.0362,-4.0337,-4.0337,-4.0461,-4.0607,-4.0752,-4.0776,-4.0776,-4.0776,-4.0776,-4.0776,-4.0776,-4.0769,-4.0728,-4.0728,-4.0551,0.0,-4.0337,-4.0188,-4.0087,-3.9969,-3.9969,0.0,0.0,0.0,0.0,0.0,-3.9599,-3.9482,-3.9257,-3.8539,-3.7877,-3.7244,-3.6505,-3.5929,-3.5509,-3.5616,-3.5661,-3.5711,-3.5905,-3.5993,-3.6036,-3.6127,-3.6293,-3.6478,-3.6647,-3.6748,-3.6788,-3.6888,-3.6908,-3.6908,-3.6908,-3.6908,-3.6908,-3.6908,-3.6829,-3.6768,-3.6728,-3.6684,-3.6623,-3.6579,-3.644,-3.6339,-3.6314,-3.6144,-3.5993,-3.5844,0.0,0.0,0.0,0.0,0.0,0.0,-3.4994,-3.4923,-3.4923,0.0,0.0,0.0,0.0,0.0,0.0,0.0,0.0,0.0,0.0,0.0,-3.5396,-3.5396,-3.5396,-3.5396,-3.5396,-3.5396,-3.5396,-3.5264,-3.5095,-3.4923,-3.4715,-3.4618,-3.457,-3.4472,-3.4423,-3.4374,-3.4374,-3.4349,-3.4325,-3.4325,-3.425,-3.4126,-4.051,-4.051,-4.0461,-4.033,-4.0305,-4.0263,-4.0138,-3.9986,-3.9901,-3.9901,-3.9781,-3.9935,-4.0461,-4.0493,-4.0493,-4.0493,-4.0493,-4.0493,-4.0493,-4.0387,-4.0305,0.0,0.0,-3.9901,-3.9901,-3.9781,-3.9703,-3.9703,0.0,0.0,-3.9703,0.0,-3.9501,-3.9501,-3.9352,-3.898,-3.8378,-3.7636,-3.696,-3.6336,-3.5616,-3.5308,-3.5291,-3.5314,-3.5344,-3.5402,-3.5402,-3.5492,-3.5622,-3.5773,-3.5817,-3.5883,-3.6356,-3.6602,-3.6702,-3.6702,-3.6702,-3.6702,-3.6702,-3.6702,-3.6702,-3.6702,-3.6702,-3.6681,-3.6523,-3.6502,-3.644,-3.6247,-3.6101,-3.5954,-3.5839,-3.5689,-3.556,-3.5424,0.0,0.0,0.0,0.0,0.0,0.0,-3.4594,-3.4497,-3.4497,0.0,0.0,0.0,0.0,0.0,0.0,0.0,0.0,-3.4923,-3.4899,0.0,-3.4899,-3.4899,-3.4899,-3.4899,-3.4899,-3.4899,-3.4899,-3.4763,-3.4618,-3.4497,-3.4497,-3.4423,-3.43,-3.43,-3.4226,-3.4101,-3.4101,-3.4025,-3.3899,-3.3899,-3.3822,-3.371,-4.0238,-4.0163,-4.0079,-4.0011,-3.9935,-3.9884,-3.9833,-3.9781,-3.9755,-3.9755,-3.9729,-3.9781,-3.9935,-3.9944,-3.9944,0.0,-3.9944,-3.9944,0.0,-3.9893,-3.9884,-3.9884,-3.9807,-3.972,-3.9616,-3.959,-3.9511,-3.9432,0.0,0.0,0.0,-3.9379,-3.9352,-3.9335,-3.8785,-3.8437,-3.8164,-3.6937,-3.6306,-3.6048,-3.5317,-3.5018,-3.5041,-3.5128,-3.5182,-3.5205,-3.5297,-3.5367,-3.5389,-3.5452,-3.5503,-3.5538,-3.5694,-3.6041,-3.6374,-3.6402,-3.6423,-3.6423,-3.6423,-3.6423,-3.6423,-3.6423,-3.6398,-3.6331,-3.6191,-3.6019,-3.5866,-3.58,-3.5661,-3.5503,-3.5475,-3.5274,-3.5071,-3.4954,-3.4906,0.0,-3.4707,0.0,0.0,0.0,-3.4399,-3.4374,-3.4374,-3.4374,0.0,0.0,0.0,0.0,0.0,0.0,0.0,0.0,-3.4618,0.0,-3.4618,-3.4618,-3.4618,-3.4618,-3.4618,-3.4618,-3.4618,-3.4497,-3.4349,-3.4226,-3.4126,-3.4,-3.3899,-3.3899,-3.3873,-3.3822,-3.3822,-3.3797,-3.3771,-3.3771,-3.3736,-3.3694,-4.0037,-3.991,-3.9807,-3.9807,-3.9755,-3.9703,-3.9703,-3.9668,-3.9625,-3.9625,-3.9573,-3.9547,-3.9547,-3.9547,0.0,-3.9677,-3.9703,-3.9703,-3.9703,-3.9651,-3.9625,-3.9625,-3.9573,-3.9511,-3.9448,-3.9405,0.0,-3.9299,-3.9299,-3.9299,-3.9299,-3.9299,-3.9149,-3.8858,-3.8411,-3.7897,-3.7317,-3.639,-3.5843,-3.5545,-3.5033,-3.4811,-3.4828,-3.4875,-3.4875,-3.4899,-3.497,-3.4994,-3.4994,-3.5065,-3.5095,-3.5148,-3.5195,-3.5441,-3.5756,-3.598,-3.6045,-3.6045,-3.6045,-3.6045,-3.6045,-3.6045,-3.6019,-3.5927,-3.5773,-3.5554,-3.5396,-3.535,-3.5205,-3.5065,-3.5065,-3.4899,-3.4715,-3.4643,-3.457,-3.4521,-3.4423,0.0,0.0,0.0,0.0,0.0,0.0,-3.4101,-3.4101,0.0,0.0,0.0,0.0,0.0,0.0,-3.4349,-3.4349,-3.4349,-3.4349,-3.4349,-3.4349,-3.4349,-3.43,-3.425,-3.4201,-3.4126,-3.4025,-3.3949,-3.3848,-3.3771,-3.3694,-3.3694,-3.3694,-3.3694,-3.3694,-3.3684,-3.3633,-3.3581,-3.3529,-3.3477,-3.9901,-3.9798,-3.9677,0.0,-3.9677,-3.9677,-3.9677,-3.9563,-3.9501,-3.9501,-3.9379,-3.9299,-3.9299,-3.9299,-3.9405,-3.9651,0.0,0.0,-3.9677,-3.9563,-3.9501,-3.9501,-3.9352,-3.9299,-3.9299,-3.9299,-3.9299,-3.9299,-3.9299,-3.9299,-3.9272,-3.9222,-3.8841,-3.816,-3.8086,-3.7275,-3.5968,-3.5918,-3.5504,-3.4875,-3.4756,-3.4691,-3.4667,-3.4546,-3.4497,-3.4497,-3.4497,-3.4497,-3.4521,-3.4643,-3.4691,-3.4707,-3.4828,-3.4875,-3.4954,-3.5418,-3.5554,-3.5554,-3.5554,-3.5554,-3.5554,-3.5554,-3.5554,-3.5487,-3.5314,-3.5152,-3.5018,-3.4899,-3.478,-3.4667,-3.4667,-3.4546,-3.4472,-3.4472,-3.4349,-3.4275,-3.4275,0.0,0.0,0.0,0.0,0.0,-3.3873,-3.3771,-3.3694,0.0,0.0,0.0,0.0,0.0,-3.4201,-3.4075,-3.4075,-3.4075,-3.4075,-3.4075,-3.4075,-3.4075,-3.3949,-3.3822,-3.3694,-3.3694,-3.3694,-3.3684,-3.3684,-3.3684,-3.3658,-3.3658,-3.3642,-3.3642,-3.3642,-3.3581,-3.345,-3.3293,-3.316,-3.3043,0.0,0.0,-3.9554,-3.9554,-3.9458,-3.9388,-3.9388,-3.9379,-3.9352,-3.9352,-3.9325,-3.9299,-3.9299,-3.9299,-3.9325,-3.9405,-3.9388,-3.9388,-3.9388,-3.9352,-3.9352,-3.9352,-3.9325,-3.9299,-3.9299,-3.9299,-3.9299,-3.9299,-3.9299,-3.9202,-3.905,-3.855,-3.815,-3.7847,-3.6713,-3.6023,-3.5662,-3.5087,-3.4758,-3.4594,-3.4546,-3.4546,-3.4546,-3.4521,-3.4497,-3.4497,-3.4497,-3.4497,-3.4497,-3.4546,-3.4546,-3.4546,-3.457,-3.4594,-3.4667,-3.4977,-3.5065,-3.5065,-3.5065,-3.5065,-3.5065,-3.5065,-3.4977,-3.4906,-3.4851,-3.4739,-3.4618,-3.4594,-3.4497,-3.4399,-3.4399,-3.43,-3.4201,-3.4201,-3.4075,-3.4,-3.4,-3.3873,0.0,0.0,-3.3771,-3.3761,-3.3761,-3.372,-3.3694,0.0,0.0,0.0,-3.3694,-3.3797,-3.3822,-3.3813,-3.3797,-3.3797,-3.3797,-3.3797,-3.3797,-3.3797,-3.3745,-3.372,-3.3694,-3.3694,-3.3642,-3.3555,-3.345,-3.3335,-3.3229,-3.3123,-3.3085,-3.3085,-3.3085,-3.3085,-3.3032,-3.2834,-3.2753,-3.2699,-3.9616,-3.9511,-3.9379,-3.9299,-3.9202,-3.9148,-3.9067,-3.9067,-3.9067,-3.9067,-3.9067,-3.9067,-3.9067,-3.9067,-3.9067,-3.9067,-3.9202,-3.9299,-3.9299,-3.9299,-3.9272,-3.9175,-3.9148,-3.9121,-3.9067,-3.9067,-3.9067,-3.9067,-3.8754,-3.8562,-3.8438,-3.7715,-3.718,-3.6767,-3.5955,-3.5398,-3.507,-3.4661,-3.4497,-3.4497,-3.4423,-3.4399,-3.4399,-3.4349,-3.4325,-3.4325,-3.4325,-3.4275,-3.4226,-3.4226,-3.4201,-3.4126,-3.4126,-3.4126,-3.4151,-3.43,-3.4521,-3.4715,-3.4715,-3.4715,-3.4715,-3.4715,-3.4667,-3.4594,-3.4521,-3.4423,-3.43,-3.425,-3.4126,-3.4025,-3.4025,-3.3975,-3.3924,-3.3924,-3.3848,-3.3797,-3.3797,-3.3761,-3.3694,-3.3694,-3.3658,-3.3607,-3.3607,-3.3555,-3.3529,-3.3529,-3.3529,0.0,-3.3529,-3.3529,-3.3581,-3.371,-3.3694,-3.3694,-3.3694,-3.3694,-3.3684,-3.3607,-3.3555,-3.3477,-3.3424,-3.3346,-3.3309,-3.3229,-3.315,-3.3027,-3.2877,-3.2769,-3.273,-3.2676,-3.2676,-3.2676,-3.2648,-3.2413,-3.2315,-3.2287,-3.9379,-3.9299,-3.9175,-3.8996,-3.8969,-3.8942,-3.8832,-3.8805,-3.8805,-3.8805,-3.8805,-3.8805,-3.8805,-3.8805,-3.8805,-3.8805,-3.9067,-3.9218,-3.9218,-3.9218,-3.9148,-3.8969,-3.8969,-3.8914,-3.8805,-3.8805,-3.8756,-3.8641,-3.8068,-3.7697,-3.7539,-3.682,-3.6107,-3.5477,-3.5379,-3.4987,-3.4374,-3.4374,-3.4374,-3.4374,-3.425,-3.4201,-3.4201,-3.4075,-3.405,-3.405,-3.405,-3.3975,-3.3873,-3.3873,-3.3797,-3.3694,-3.3694,-3.3694,-3.3694,-3.3694,-3.4025,-3.4374,-3.4374,-3.4374,-3.4374,-3.4374,-3.4374,-3.4349,-3.4226,-3.4126,-3.4,-3.3899,-3.3771,-3.3694,-3.3694,-3.3694,-3.3694,-3.3694,-3.3684,-3.3684,-3.3684,0.0,-3.3658,-3.3658,-3.3529,-3.345,-3.345,-3.3335,-3.3229,-3.3229,-3.3229,-3.3229,-3.3229,-3.3229,-3.3346,-3.3581,-3.3633,-3.3633,-3.3607,-3.3581,-3.3529,-3.3398,-3.3309,-3.3176,-3.3016,-3.2908,-3.2843,-3.2816,-3.2816,-3.2676,-3.252,-3.2492,-3.2382,-3.2244,-3.2244,-3.2244,-3.2231,-3.1981,-3.1883,-3.1811,-3.8914,-3.8887,-3.886,-3.8832,-3.8832,-3.8832,-3.8805,-3.8805,-3.8805,-3.8805,-3.8805,-3.8805,-3.8805,-3.8805,-3.8805,-3.8805,-3.886,-3.8887,-3.8887,-3.8887,-3.886,-3.8832,-3.8832,-3.8832,-3.8805,-3.8805,-3.851,-3.7964,-3.7758,-3.7248,-3.6523,-3.5661,-3.5126,-3.4908,-3.4256,-3.3935,-3.3822,-3.3822,-3.3822,-3.3822,-3.3797,-3.3797,-3.3797,-3.3771,-3.3745,-3.3745,-3.3745,-3.3761,-3.372,-3.372,-3.372,-3.3694,-3.3694,-3.3694,-3.3694,-3.3694,-3.3745,-3.3822,-3.3822,-3.3822,-3.3822,-3.3822,-3.3822,-3.3822,-3.3797,-3.3771,-3.3761,-3.3736,-3.3694,-3.3694,-3.3694,-3.3694,-3.3694,-3.3694,-3.3591,-3.3529,-3.3529,0.0,-3.3346,-3.3346,-3.3256,-3.315,-3.315,-3.3032,-3.2951,-3.2951,-3.2951,-3.2951,-3.2951,-3.2951,-3.2978,-3.3032,-3.3256,-3.3309,-3.3203,-3.3085,-3.3005,-3.3005,-3.2978,-3.2866,-3.2683,-3.2656,-3.2574,-3.2453,-3.2358,-3.2234,-3.2094,-3.191,-3.1752,-3.1623,-3.1623,-3.1623,-3.1623,-3.1481,-3.1307,-3.1117,-3.8572,-3.8572,-3.8544,-3.8427,-3.8427,-3.8399,-3.8331,-3.8319,-3.8319,-3.8319,-3.8319,-3.8319,-3.8319,-3.8319,-3.8319,-3.8319,-3.8319,-3.8319,-3.8319,-3.8556,-3.8595,-3.8427,-3.8427,-3.8371,-3.8319,-3.7959,-3.7619,-3.7339,-3.6427,-3.5771,-3.538,-3.45,-3.4048,-3.398,-3.3646,-3.3529,-3.3607,-3.3607,-3.3617,-3.3694,-3.3694,-3.3694,-3.3694,-3.3694,-3.3658,-3.3607,-3.3607,-3.3503,-3.3372,-3.3372,-3.3335,-3.3282,-3.3282,-3.3282,-3.3282,-3.3282,-3.3477,-3.3694,-3.3694,-3.3694,-3.3694,-3.3694,-3.3694,-3.3694,-3.3694,-3.3642,-3.3607,-3.3607,-3.3529,-3.3477,-3.3477,-3.3477,-3.3477,-3.3477,-3.3372,-3.3266,-3.3266,-3.3176,-3.3069,-3.3069,-3.3032,-3.3005,-3.3005,-3.2839,-3.2742,-3.2742,-3.2676,-3.2621,-3.2621,-3.2621,-3.2621,-3.2621,-3.2935,-3.3,-3.2823,-3.2769,-3.2687,-3.2621,-3.2566,-3.2428,-3.2259,-3.2176,-3.2048,-3.1908,-3.1866,-3.1739,-3.1611,-3.1423,-3.1234,-3.1131,-3.1029,-3.1029,-3.0999,-3.0822,-3.0703,-3.0613,-3.8221,-3.8193,-3.8119,-3.7972,-3.7927,-3.7915,-3.7801,-3.7772,-3.7772,-3.7772,-3.7772,-3.7772,-3.7772,-3.7772,-3.7772,-3.7772,-3.7772,-3.7772,-3.7743,-3.803,-3.8144,-3.8001,-3.7812,-3.7646,-3.7562,-3.6905,-3.6458,-3.6298,-3.505,-3.4365,-3.4175,-3.3423,-3.3081,-3.3081,-3.3081,-3.3171,-3.3277,-3.3277,-3.3382,-3.3503,-3.3503,-3.3503,-3.3503,-3.3503,-3.345,-3.3346,-3.3346,-3.3187,-3.2973,-3.2973,-3.2893,-3.2773,-3.2773,-3.2773,-3.2773,-3.2773,-3.3081,-3.3408,-3.3503,-3.3503,-3.3503,-3.3503,-3.3503,-3.3503,-3.3503,-3.3424,-3.3346,-3.3346,-3.3282,-3.3203,-3.3203,-3.3203,-3.3203,-3.3203,0.0,-3.3043,-3.2973,-3.2908,-3.2827,-3.2773,-3.2761,-3.2734,-3.2734,-3.2523,-3.2382,-3.2382,-3.2272,-3.2203,-3.2203,-3.2203,-3.2203,-3.2203,-3.2539,-3.2648,-3.2465,-3.241,-3.2327,-3.2203,-3.2092,-3.1966,-3.184,-3.1625,-3.1466,-3.135,-3.1306,-3.1204,-3.1073,-3.0911,-3.0777,-3.0627,-3.0522,-3.0492,-3.0462,-3.0296,-3.0221,-3.016,-3.7759,-3.7581,-3.7476,-3.7431,-3.7447,-3.7447,-3.7447,-3.7447,-3.7447,-3.7447,-3.7447,-3.7447,-3.7447,-3.7447,-3.7447,-3.7447,-3.7447,-3.7387,-3.7254,-3.7103,-3.7222,-3.77,-3.6962,-3.6511,-3.6511,-3.5859,-3.5193,-3.4501,-3.4148,-3.3591,-3.2935,-3.2617,-3.248,-3.248,-3.248,-3.2547,-3.2683,-3.2683,-3.2796,-3.2951,-3.2951,-3.2951,-3.2951,-3.2951,-3.2951,-3.2951,-3.2951,-3.2812,-3.2656,-3.2656,-3.2563,-3.2425,-3.2425,-3.2425,-3.2425,-3.2425,-3.2453,-3.2563,-3.2854,-3.2951,-3.2951,-3.2951,-3.2951,-3.2951,-3.2951,-3.2951,-3.2951,-3.2951,-3.2939,-3.2924,-3.2924,-3.2924,-3.2924,-3.2924,0.0,0.0,-3.2656,-3.2629,-3.2574,-3.2453,-3.233,-3.2247,-3.2247,-3.1966,-3.1752,-3.1752,-3.1638,-3.1566,-3.1566,-3.1566,-3.1566,-3.1566,-3.2007,-3.2178,-3.2053,-3.1853,-3.1695,-3.1566,-3.1566,-3.1466,-3.1336,-3.1146,-3.0984,-3.0851,-3.0732,-3.0568,-3.0372,-3.0342,-3.0266,-3.0142,-3.0142,-3.0142,-3.0142,-3.0111,-3.0005,-2.9853,-3.7271,-3.7195,-3.715,-3.715,-3.715,-3.7089,-3.6983,-3.6983,-3.6952,-3.6831,-3.6831,-3.6831,-3.6831,-3.6831,-3.6831,-3.6831,-3.6831,-3.6816,-3.6754,-3.6569,-3.6445,-3.633,-3.602,-3.5647,-3.5225,-3.4556,-3.4088,-3.3796,-3.3153,-3.2715,-3.2425,-3.212,-3.2035,-3.215,-3.2007,-3.212,-3.2342,-3.2342,-3.2425,-3.2578,-3.2578,-3.2578,-3.2578,-3.2578,-3.2539,-3.2471,-3.2471,-3.2373,-3.2219,-3.2092,-3.2007,-3.1951,-3.1866,-3.1851,-3.1851,-3.1851,-3.1851,-3.1879,-3.1994,-3.2302,-3.2578,-3.2578,-3.2578,-3.2578,-3.2578,-3.2578,-3.2578,-3.2578,-3.2578,-3.2578,-3.2578,-3.2578,-3.2578,-3.2578,0.0,-3.2401,-3.2247,-3.212,-3.1992,-3.1851,-3.1809,-3.1781,-3.1781,-3.1596,-3.1452,-3.1452,-3.1219,-3.1073,-3.1073,-3.0984,-3.094,-3.094,-3.1117,-3.1336,-3.1553,-3.1365,-3.1204,-3.1073,-3.097,-3.0851,-3.0673,-3.0613,-3.0477,-3.0355,-3.031,-3.0264,-3.0158,-3.0038,-2.9946,-2.9898,-2.982,-2.9803,-2.9803,-2.9803,-2.9727,-2.9682,-3.6739,-3.6708,-3.6693,-3.6693,-3.6693,-3.6647,-3.6507,-3.6476,-3.6445,-3.6367,-3.6336,-3.6336,-3.6336,-3.6289,-3.6258,-3.6258,-3.6179,-3.6148,-3.6148,-3.5792,-3.5473,-3.5294,-3.4865,-3.4406,-3.3872,-3.323,-3.2865,-3.2865,-3.2222,-3.191,-3.191,-3.1625,-3.1582,-3.1712,-3.1582,-3.1653,-3.191,-3.191,-3.1979,-3.212,-3.212,-3.212,-3.212,-3.212,-3.2064,-3.1979,-3.1979,-3.1881,-3.1754,-3.1625,-3.1538,-3.1496,-3.1394,-3.1321,-3.1292,-3.1292,-3.1263,-3.1234,-3.1234,-3.1508,-3.1879,-3.2076,-3.212,-3.212,-3.212,-3.212,-3.212,-3.212,-3.212,-3.212,-3.212,-3.212,-3.212,-3.212,-3.2035,-3.1938,-3.1811,-3.1596,-3.1437,-3.1292,-3.1234,-3.1234,-3.1234,-3.1073,-3.0984,-3.0984,-3.0732,-3.0582,-3.0582,-3.0492,-3.0431,-3.0431,-3.0431,-3.0612,-3.0925,-3.0822,-3.0717,-3.0582,-3.0492,-3.0371,-3.0249,-3.016,-3.0068,-3.0005,-2.9958,-2.9927,-2.9927,-2.9806,-2.973,-2.973,-2.9634,-2.9571,-2.954,-2.954,-2.9509,-2.9446,-3.6196,-3.6085,-3.6005,-3.6005,-3.6005,-3.6005,-3.6005,-3.6005,-3.6005,-3.6005,-3.6005,-3.6005,-3.6005,-3.5831,-3.5688,-3.5688,-3.5512,-3.5385,-3.5385,-3.4626,-3.4347,-3.4769,-3.3502,-3.269,-3.2482,-3.1853,-3.1508,-3.1508,-3.135,-3.1307,-3.1292,-3.1161,-3.1117,-3.1117,-3.1117,-3.1161,-3.1307,-3.1307,-3.1394,-3.1508,-3.1508,-3.1508,-3.1508,-3.1508,-3.1508,-3.1508,-3.1508,-3.1408,-3.1307,-3.1278,-3.122,-3.1087,-3.1087,-3.0955,-3.0791,-3.0791,-3.0702,-3.0598,-3.0598,-3.0598,-3.0747,-3.1335,-3.148,-3.148,-3.148,-3.148,-3.148,-3.148,-3.148,-3.148,-3.148,-3.148,-3.148,-3.148,-3.148,-3.1437,-3.1307,-3.1117,-3.094,-3.0821,-3.0672,-3.0598,-3.0598,-3.0417,-3.0282,-3.0282,-3.0158,-3.008,-3.008,-3.008,-3.008,-3.008,-3.008,-3.008,-3.008,-3.0235,-3.0235,-3.008,-3.008,-3.008,-3.008,-2.9884,-2.9808,-2.9777,-2.9651,-2.9602,-2.9602,-2.9602,-2.9602,-2.9602,-2.9602,-2.9509,-2.9383,-2.9383,-2.9257,-2.9099,-3.6068,-3.6037,-3.6005,-3.6005,-3.5863,-3.5767,-3.5651,-3.5539,-3.5394,-3.5264,-3.5216,-3.5216,-3.5216,-3.5184,-3.5151,-3.5151,-3.5085,-3.4878,-3.4433,-3.3321,-3.2684,-3.2698,-3.2405,-3.2005,-3.1545,-3.1308,-3.1205,-3.1205,-3.119,-3.1161,-3.1161,-3.0984,-3.0955,-3.1087,-3.0955,-3.0984,-3.1161,-3.1161,-3.119,-3.1205,-3.1205,-3.1205,-3.1205,-3.1205,-3.1205,-3.1205,-3.1205,-3.1087,-3.094,-3.0836,-3.0687,-3.0507,-3.0446,-3.0355,-3.0325,-3.0325,-3.0294,-3.0264,-3.0264,-3.0264,-3.0341,-3.0777,-3.0866,-3.0866,-3.0866,-3.0866,-3.0866,-3.0866,-3.0866,-3.0866,-3.0866,-3.0866,-3.0866,-3.0866,-3.0866,-3.0807,-3.0613,-3.0553,-3.0447,-3.0325,-3.0264,-3.0264,-3.0264,-3.0189,-3.0158,-3.0158,-2.9991,-2.9837,-2.9758,-2.9741,-2.9741,-2.9741,-2.9741,-2.9741,-2.9741,-2.9884,-2.9946,-2.9884,-2.9789,-2.9741,-2.9741,-2.9696,-2.962,-2.9526,-2.9477,-2.9383,-2.9257,-2.9257,-2.9257,-2.9257,-2.9257,-2.9226,-2.9194,-2.9194,-2.9162,-2.9099,-3.5686,-3.5686,-3.5653,-3.5589,-3.5477,-3.5347,-3.5279,-3.5148,-3.5034,-3.4935,-3.4902,-3.4902,-3.4902,-3.4835,-3.4817,-3.4817,-3.4534,-3.409,-3.3445,-3.2405,-3.1655,-3.1346,-3.1392,-3.1262,-3.0895,-3.0895,-3.0895,-3.0895,-3.0895,-3.0895,-3.0895,-3.0791,-3.0791,-3.0895,-3.0791,-3.0791,-3.0895,-3.0895,-3.0895,-3.0895,-3.0821,-3.0791,-3.0776,-3.0717,-3.0687,-3.0687,-3.0687,-3.0627,-3.0492,-3.0431,-3.031,-3.0219,-3.0142,-3.005,-2.9974,-2.9974,-2.9943,-2.9896,-2.9896,-2.9896,-2.9958,-3.0158,-3.031,-3.0401,-3.0401,-3.0401,-3.0401,-3.0401,-3.0401,-3.0401,-3.0401,-3.0401,-3.0401,-3.0401,-3.0401,-3.0371,-3.0249,-3.016,-3.0068,-2.9991,-2.9913,-2.9896,-2.9896,-2.9896,-2.9896,-2.9896,-2.9744,-2.962,-2.954,-2.9446,-2.9383,-2.9383,-2.9383,-2.9383,-2.9383,-2.9495,-2.9543,-2.9637,-2.9477,-2.9383,-2.9383,-2.9383,-2.9352,-2.9289,-2.9289,-2.9194,-2.9099,-2.9099,-2.9099,-2.9099,-2.9099,-2.9035,-2.8972,-2.8972,-2.894,-2.8908,-3.5213,-3.518,-3.5115,-3.4935,-3.4902,-3.4868,-3.4868,-3.4868,-3.4868,-3.4868,-3.4868,-3.4868,-3.4868,-3.475,-3.4664,-3.4664,-3.3889,-3.3137,-3.2556,-3.183,-3.1177,-3.0627,-3.0598,-3.0598,-3.0598,-3.0598,-3.0598,-3.0598,-3.0598,-3.0598,-3.0598,-3.0598,-3.0598,-3.0568,-3.0568,-3.0582,-3.0552,-3.0552,-3.0552,-3.0552,-3.0357,-3.0296,-3.0266,-3.0142,-3.008,-3.008,-3.008,-3.008,-3.008,-3.005,-3.005,-3.005,-3.005,-2.9943,-2.9777,-2.9777,-2.9713,-2.9602,-2.9602,-2.9571,-2.9571,-2.9571,-2.9803,-3.0019,-3.005,-3.005,-3.005,-3.005,-3.005,-3.005,-3.005,-3.005,-3.005,-3.005,-3.005,-3.005,-3.005,-2.9867,-2.9747,-2.9747,-2.962,-2.954,-2.954,-2.954,-2.954,-2.954,-2.9446,-2.9383,-2.9383,-2.9194,-2.9099,-2.9099,-2.9099,-2.9099,-2.9099,-2.9067,-2.9162,-2.9383,-2.9194,-2.9099,-2.9099,-2.9099,-2.9099,-2.9067,-2.9067,-2.9067,-2.9067,-2.9067,-2.9067,-2.9067,-2.9067,-2.894,-2.878,-2.878,-2.8683,-2.8587,-3.5001,-3.4968,-3.4935,-3.4902,-3.4817,-3.475,-3.475,-3.4616,-3.4515,-3.4515,-3.4515,-3.4515,-3.4515,-3.4481,-3.4481,-3.4481,-3.3383,-3.2672,-3.2495,-3.1424,-3.0757,-3.0612,-3.0598,-3.0598,-3.0598,-3.0598,-3.0598,-3.0598,-3.0598,-3.0598,-3.0598,-3.0598,-3.0507,-3.0387,-3.0387,-3.0296,-3.0203,-3.0203,-3.0203,-3.0203,-3.0172,-3.0127,-3.0142,-3.0111,-3.008,-3.008,-3.008,-3.0005,-2.9853,-2.9727,-2.971,-2.971,-2.971,-2.9665,-2.962,-2.962,-2.9634,-2.9602,-2.9602,-2.9509,-2.9446,-2.9446,-2.9383,-2.9383,-2.9634,-2.971,-2.971,-2.971,-2.971,-2.971,-2.971,-2.971,-2.971,-2.971,-2.971,-2.9665,-2.9571,-2.9509,-2.9432,-2.9275,-2.9226,-2.9194,-2.9194,-2.9194,-2.9194,-2.9194,-2.9194,-2.9162,-2.9162,-2.9131,-2.9099,-2.9099,-2.9099,-2.9099,-2.9099,-2.894,-2.8972,-2.9162,-2.9131,-2.9099,-2.9099,-2.9099,-2.9004,-2.8876,-2.8876,-2.8812,-2.8716,-2.8716,-2.8716,-2.8716,-2.8716,-2.8683,-2.8651,-2.8651,-2.8619,-2.8587,-3.485,-3.4817,-3.4769,-3.4668,-3.4616,-3.4563,-3.4563,-3.4481,-3.438,-3.4264,-3.4264,-3.4244,-3.4157,-3.4157,-3.4027,-3.371,-3.2803,-3.2126,-3.1856,-3.0919,-3.0341,-3.0341,-3.0341,-3.0341,-3.0341,-3.0341,-3.0401,-3.0447,-3.0447,-3.0417,-3.0341,-3.0341,-3.031,-3.0205,-3.0205,-3.0158,-3.008,-3.008,-3.008,-3.008,-3.0005,-2.9974,-2.9943,-2.9882,-2.9865,-2.9865,-2.9865,-2.9789,-2.9682,-2.9634,-2.954,-2.9509,-2.9509,-2.9446,-2.9352,-2.9352,-2.9352,-2.9352,-2.9352,-2.932,-2.9257,-2.9257,-2.9194,-2.9162,-2.932,-2.9352,-2.9352,-2.9352,-2.9352,-2.9352,-2.9352,-2.9352,-2.9352,-2.9352,-2.9352,-2.9352,-2.9257,-2.9257,-2.9226,-2.9099,-2.9099,-2.9099,-2.9099,-2.9099,-2.9099,-2.9099,-2.9004,-2.8972,-2.8972,-2.8908,-2.8844,-2.8844,-2.8844,-2.8844,-2.8844,-2.8748,-2.8748,-2.8844,-2.8844,-2.8844,-2.8844,-2.8844,-2.8812,-2.8683,-2.8683,-2.8651,-2.8587,-2.8587,-2.8554,-2.8444,-2.8444,-2.8425,-2.8373,-2.8373,-2.8373,-2.8373,-3.4698,-3.4631,-3.4549,-3.438,-3.4346,-3.4312,-3.4312,-3.4312,-3.4244,-3.4108,-3.4074,-3.404,-3.3917,-3.3896,-3.3682,-3.3125,-3.2397,-3.18,-3.1271,-3.0525,-3.008,-3.008,-3.008,-3.008,-3.008,-3.008,-3.0158,-3.0266,-3.0266,-3.0219,-3.008,-3.008,-3.008,-3.0036,-3.0036,-3.005,-3.0019,-2.9988,-2.9988,-2.9958,-2.9761,-2.9699,-2.9668,-2.9571,-2.9509,-2.9509,-2.9509,-2.9509,-2.9509,-2.9509,-2.9446,-2.9352,-2.9352,-2.9226,-2.9099,-2.9099,-2.9099,-2.9099,-2.9099,-2.9067,-2.9035,-2.9035,-2.9035,-2.9004,-2.9004,-2.9067,-2.9099,-2.9099,-2.9099,-2.9099,-2.9099,-2.9099,-2.9099,-2.9099,-2.9099,-2.9099,-2.9035,-2.9035,-2.9035,-2.9004,-2.8972,-2.8958,-2.8958,-2.894,-2.894,-2.894,-2.878,-2.8683,-2.8683,-2.8554,-2.849,-2.849,-2.849,-2.849,-2.849,-2.849,-2.849,-2.849,-2.849,-2.849,-2.8554,-2.8522,-2.849,-2.849,-2.849,-2.849,-2.849,-2.849,-2.8425,-2.8268,-2.8235,-2.8151,-2.8046,-2.8013,-2.8013,-2.8013,-3.4481,-3.4312,-3.4162,-3.4162,-3.404,-3.3965,-3.3965,-3.3965,-3.3965,-3.3931,-3.3931,-3.3931,-3.3896,-3.3896,-3.3854,-3.3768,-3.2668,-3.1986,-3.1886,-3.0768,-3.008,-3.008,-3.008,-3.008,-3.008,-3.008,-3.0111,-3.0142,-3.0142,-3.0111,-3.008,-3.008,-3.0005,-2.9853,-2.9853,-2.9775,-2.9665,-2.954,-2.9477,-2.9477,-2.9289,-2.918,-2.918,-2.9162,-2.9162,-2.9162,-2.9162,-2.9162,-2.9162,-2.9162,-2.9162,-2.9131,-2.9131,-2.9131,-2.9099,-2.9099,-2.9099,-2.9099,-2.9099,-2.8972,-2.8844,-2.8844,-2.8748,-2.8651,-2.8651,-2.8876,-2.9099,-2.9099,-2.9099,-2.9099,-2.9099,-2.9099,-2.9099,-2.9099,-2.9099,-2.9035,-2.8876,-2.8844,-2.8812,-2.8683,-2.8495,-2.8398,-2.8398,-2.8281,-2.8243,-2.8243,-2.821,-2.8177,-2.8177,-2.8177,-2.8177,-2.8177,-2.8177,-2.8177,-2.8177,-2.8177,-2.8177,-2.8177,-2.7987,-2.8072,-2.8333,-2.8229,-2.8177,-2.8177,-2.8177,-2.8177,-2.8177,-2.8177,-2.8145,-2.8112,-2.7954,-2.7855,-2.7822,-2.7669,-2.7603,-2.7603,-3.4122,-3.4054,-3.3985,-3.3985,-3.3951,-3.3896,-3.3896,-3.3793,-3.3675,-3.357,-3.3486,-3.3368,-3.3248,-3.3213,-3.3087,-3.2737,-3.1895,-3.1222,-3.0919,-3.0031,-2.954,-2.954,-2.954,-2.954,-2.954,-2.954,-2.954,-2.954,-2.9741,-2.9741,-2.954,-2.954,-2.9509,-2.9401,-2.9401,-2.9369,-2.932,-2.9257,-2.9226,-2.9226,-2.9131,-2.9099,-2.9099,-2.9099,-2.9099,-2.9099,-2.9099,-2.9099,-2.9099,-2.9099,-2.9035,-2.894,-2.894,-2.8876,-2.8812,-2.8812,-2.8812,-2.8812,-2.8812,-2.8748,-2.8651,-2.8541,-2.8476,-2.8411,-2.8327,-2.8438,-2.8587,-2.878,-2.8812,-2.8812,-2.8812,-2.8734,-2.8656,-2.8656,-2.8587,-2.849,-2.8438,-2.8406,-2.8406,-2.8341,-2.8229,-2.8197,-2.8197,-2.8131,-2.8046,-2.7934,-2.7934,-2.7868,-2.7769,-2.7769,-2.7769,-2.7769,-2.7769,-2.7769,-2.7769,-2.7769,-2.7769,-2.7769,-2.749,-2.7577,-2.8006,-2.7822,-2.7769,-2.7769,-2.7769,-2.7769,-2.7769,-2.7769,-2.7669,-2.749,-2.7377,-2.7209,-2.6994,-2.6939,-2.6905,-2.6905]},{"header":{"parameterUnit":"m.s-1","parameterCategory":1,"la1":30.6,"la2":28.766,"lo1":-90.7593,"lo2":-88.6598,"dy":0.0162,"dx":0.0183,"nx":116,"ny":114,"refTime":"2023-08-19T18:00:00:Z","depth":0,"parameterNumber":3,"parameterNumberName":"V-component_of_WINDS"},"data":[0.0,0.0,0.0,0.0,0.0,0.0,0.0,0.0,0.0,0.0,0.0,0.0,0.0,0.0,0.0,0.0,0.0,0.0,0.0,0.0,0.0,0.0,0.0,0.0,0.0,0.0,0.0,0.0,0.0,0.0,0.0,0.0,0.0,0.0,0.0,0.0,0.0,0.0,0.0,0.0,0.0,0.0,0.0,0.0,0.0,0.0,0.0,0.0,0.0,0.0,0.0,0.0,0.0,0.0,0.0,0.0,0.0,0.0,0.0,0.0,0.0,0.0,0.0,0.0,0.0,0.0,0.0,0.0,0.0,0.0,0.0,0.0,0.0,0.0,0.0,0.0,0.0,0.0,0.0,0.0,0.0,0.0,0.0,0.0,0.0,0.0,0.0,0.0,0.0,0.0,0.0,0.0,0.0,0.0,0.0,0.0,0.0,0.0,0.0,0.0,0.0,0.0,0.0,0.0,0.0,0.0,0.0,0.0,0.0,0.0,0.0,0.0,0.0,0.0,0.0,0.0,0.0,0.0,0.0,0.0,0.0,0.0,0.0,0.0,0.0,0.0,0.0,0.0,0.0,0.0,0.0,0.0,0.0,0.0,0.0,0.0,0.0,0.0,0.0,0.0,0.0,0.0,0.0,0.0,0.0,0.0,0.0,0.0,0.0,0.0,0.0,0.0,0.0,0.0,0.0,0.0,0.0,0.0,0.0,0.0,0.0,0.0,0.0,0.0,0.0,0.0,0.0,0.0,0.0,0.0,0.0,0.0,0.0,0.0,0.0,0.0,0.0,0.0,0.0,0.0,0.0,0.0,0.0,0.0,0.0,0.0,0.0,0.0,0.0,0.0,0.0,0.0,0.0,0.0,0.0,0.0,0.0,0.0,0.0,0.0,0.0,0.0,0.0,0.0,0.0,0.0,0.0,0.0,0.0,0.0,0.0,0.0,0.0,0.0,0.0,0.0,0.0,0.0,0.0,0.0,0.0,0.0,0.0,0.0,0.0,0.0,0.0,0.0,0.0,0.0,0.0,0.0,0.0,0.0,0.0,0.0,0.0,0.0,0.0,0.0,0.0,0.0,0.0,0.0,0.0,0.0,0.0,0.0,0.0,0.0,0.0,0.0,0.0,0.0,0.0,0.0,0.0,0.0,0.0,0.0,0.0,0.0,0.0,0.0,0.0,0.0,0.0,0.0,0.0,0.0,0.0,0.0,0.0,0.0,0.0,0.0,0.0,0.0,0.0,0.0,0.0,0.0,0.0,0.0,0.0,0.0,0.0,0.0,0.0,0.0,0.0,0.0,0.0,0.0,0.0,0.0,0.0,0.0,0.0,0.0,0.0,0.0,0.0,0.0,0.0,0.0,0.0,0.0,0.0,0.0,0.0,0.0,0.0,0.0,0.0,0.0,0.0,0.0,0.0,0.0,0.0,0.0,0.0,0.0,0.0,0.0,0.0,0.0,0.0,0.0,0.0,0.0,0.0,0.0,0.0,0.0,0.0,0.0,0.0,0.0,0.0,0.0,0.0,0.0,0.0,0.0,0.0,0.0,0.0,0.0,0.0,0.0,0.0,0.0,0.0,0.0,0.0,0.0,0.0,0.0,0.0,0.0,0.0,0.0,0.0,0.0,0.0,0.0,0.0,0.0,0.0,0.0,0.0,0.0,0.0,0.0,0.0,0.0,0.0,0.0,0.0,0.0,0.0,0.0,0.0,0.0,0.0,0.0,0.0,0.0,0.0,0.0,0.0,0.0,0.0,0.0,0.0,0.0,0.0,0.0,0.0,0.0,0.0,0.0,0.0,0.0,0.0,0.0,0.0,0.0,0.0,0.0,0.0,0.0,0.0,0.0,0.0,0.0,0.0,0.0,0.0,0.0,0.0,0.0,0.0,0.0,0.0,0.0,0.0,0.0,0.0,0.0,0.0,0.0,0.0,0.0,0.0,0.0,0.0,0.0,0.0,0.0,0.0,0.0,0.0,0.0,0.0,0.0,0.0,0.0,0.0,0.0,0.0,0.0,0.0,0.0,0.0,0.0,0.0,0.0,0.0,0.0,0.0,0.0,0.0,0.0,0.0,0.0,0.0,0.0,0.0,0.0,0.0,0.0,0.0,0.0,0.0,0.0,0.0,0.0,0.0,0.0,0.0,0.0,0.0,0.0,0.0,0.0,0.0,0.0,0.0,0.0,0.0,0.0,0.0,0.0,0.0,0.0,0.0,0.0,0.0,0.0,0.0,0.0,0.0,0.0,0.0,0.0,0.0,0.0,0.0,0.0,0.0,0.0,0.0,0.0,0.0,0.0,0.0,0.0,0.0,0.0,0.0,0.0,0.0,0.0,0.0,0.0,0.0,0.0,0.0,0.0,0.0,0.0,0.0,0.0,0.0,0.0,0.0,0.0,0.0,0.0,0.0,0.0,0.0,0.0,0.0,0.0,0.0,0.0,0.0,0.0,0.0,0.0,0.0,0.0,0.0,0.0,0.0,0.0,0.0,0.0,0.0,0.0,0.0,0.0,0.0,0.0,0.0,0.0,0.0,0.0,0.0,0.0,0.0,0.0,0.0,0.0,0.0,0.0,0.0,0.0,0.0,0.0,0.0,0.0,0.0,0.0,0.0,0.0,0.0,0.0,0.0,0.0,0.0,0.0,0.0,0.0,0.0,0.0,0.0,0.0,0.0,0.0,0.0,0.0,0.0,0.0,0.0,0.0,0.0,0.0,0.0,0.0,0.0,0.0,0.0,0.0,0.0,0.0,0.0,0.0,0.0,0.0,0.0,0.0,0.0,0.0,0.0,0.0,0.0,0.0,0.0,0.0,0.0,0.0,0.0,0.0,0.0,0.0,0.0,0.0,0.0,0.0,0.0,0.0,0.0,0.0,0.0,0.0,0.0,0.0,0.0,0.0,0.0,0.0,0.0,0.0,0.0,0.0,0.0,0.0,0.0,0.0,0.0,0.0,0.0,0.0,0.0,0.0,0.0,0.0,0.0,0.0,0.0,0.0,0.0,0.0,0.0,0.0,0.0,0.0,0.0,0.0,0.0,0.0,0.0,0.0,0.0,0.0,0.0,0.0,0.0,0.0,0.0,0.0,0.0,0.0,0.0,0.0,0.0,0.0,0.0,0.0,0.0,0.0,0.0,0.0,0.0,0.0,0.0,0.0,0.0,0.0,0.0,0.0,0.0,0.0,0.0,0.0,0.0,0.0,0.0,0.0,0.0,0.0,0.0,0.0,0.0,0.0,0.0,0.0,0.0,0.0,0.0,0.0,0.0,0.0,0.0,0.0,0.0,0.0,0.0,0.0,0.0,0.0,0.0,0.0,0.0,0.0,0.0,0.0,0.0,0.0,0.0,0.0,0.0,0.0,0.0,0.0,0.0,0.0,0.0,0.0,0.0,0.0,0.0,0.0,0.0,0.0,0.0,0.0,0.0,0.0,0.0,0.0,0.0,0.0,0.0,0.0,0.0,0.0,0.0,0.0,0.0,0.0,0.0,0.0,0.0,0.0,0.0,0.0,0.0,0.0,0.0,0.0,0.0,0.0,0.0,0.0,0.0,0.0,0.0,0.0,0.0,0.0,0.0,0.0,0.0,0.0,0.0,0.0,0.0,0.0,0.0,0.0,0.0,0.0,0.0,0.0,0.0,0.0,0.0,0.0,0.0,0.0,0.0,0.0,0.0,0.0,0.0,0.0,0.0,0.0,0.0,0.0,0.0,0.0,0.0,0.0,0.0,0.0,0.0,0.0,0.0,0.0,0.0,0.0,0.0,0.0,0.0,0.0,0.0,0.0,0.0,0.0,0.0,0.0,0.0,0.0,0.0,0.0,0.0,0.0,0.0,0.0,0.0,0.0,0.0,0.0,0.0,0.0,0.0,0.0,0.0,0.0,0.0,0.0,0.0,0.0,0.0,0.0,0.0,0.0,0.0,0.0,0.0,0.0,0.0,0.0,0.0,0.0,0.0,0.0,0.0,0.0,0.0,0.0,0.0,0.0,0.0,0.0,0.0,0.0,0.0,0.0,0.0,0.0,0.0,0.0,0.0,0.0,0.0,0.0,0.0,0.0,0.0,0.0,0.0,0.0,0.0,0.0,0.0,0.0,0.0,0.0,0.0,0.0,0.0,0.0,0.0,0.0,0.0,0.0,0.0,0.0,0.0,0.0,0.0,0.0,0.0,0.0,0.0,0.0,0.0,0.0,0.0,0.0,0.0,0.0,0.0,0.0,0.0,0.0,0.0,0.0,0.0,0.0,0.0,0.0,0.0,0.0,0.0,0.0,0.0,0.0,0.0,0.0,0.0,0.0,0.0,0.0,0.0,0.0,0.0,0.0,0.0,0.0,0.0,0.0,0.0,0.0,0.0,0.0,0.0,0.0,0.0,0.0,0.0,0.0,0.0,0.0,0.0,0.0,0.0,0.0,0.0,0.0,0.0,0.0,0.0,0.0,0.0,0.0,0.0,0.0,0.0,0.0,0.0,0.0,0.0,0.0,0.0,0.0,0.0,0.0,0.0,0.0,0.0,0.0,0.0,0.0,0.0,0.0,0.0,0.0,0.0,0.0,0.0,0.0,0.0,0.0,0.0,0.0,0.0,0.0,0.0,0.0,0.0,0.0,0.0,0.0,0.0,0.0,0.0,0.0,0.0,0.0,0.0,0.0,0.0,0.0,0.0,0.0,0.0,0.0,0.0,0.0,0.0,0.0,0.0,0.0,0.0,0.0,0.0,0.0,0.0,0.0,0.0,0.0,0.0,0.0,0.0,0.0,0.0,0.0,0.0,0.0,0.0,0.0,0.0,0.0,0.0,0.0,0.0,0.0,0.0,0.0,0.0,0.0,0.0,0.0,0.0,0.0,0.0,0.0,0.0,0.0,0.0,0.0,0.0,0.0,0.0,0.0,0.0,0.0,0.0,0.0,0.0,0.0,0.0,0.0,0.0,0.0,0.0,0.0,0.0,0.0,0.0,0.0,0.0,0.0,0.0,0.0,0.0,0.0,0.0,0.0,0.0,0.0,0.0,0.0,0.0,0.0,0.0,0.0,0.0,0.0,0.0,0.0,0.0,0.0,0.0,0.0,0.0,0.0,0.0,0.0,0.0,0.0,0.0,0.0,0.0,0.0,0.0,0.0,0.0,0.0,0.0,0.0,0.0,0.0,0.0,0.0,0.0,0.0,0.0,0.0,0.0,0.0,0.0,0.0,0.0,0.0,0.0,0.0,0.0,0.0,0.0,0.0,0.0,0.0,0.0,0.0,0.0,0.0,0.0,0.0,0.0,0.0,0.0,0.0,0.0,0.0,0.0,0.0,0.0,0.0,0.0,0.0,0.0,0.0,0.0,0.0,0.0,0.0,0.0,0.0,0.0,0.0,0.0,0.0,0.0,0.0,0.0,0.0,0.0,0.0,0.0,0.0,0.0,0.0,0.0,0.0,0.0,0.0,0.0,0.0,0.0,0.0,0.0,0.0,0.0,0.0,0.0,0.0,0.0,0.0,0.0,0.0,0.0,0.0,0.0,0.0,0.0,0.0,0.0,0.0,0.0,0.0,0.0,0.0,0.0,0.0,0.0,0.0,0.0,0.0,0.0,0.0,0.0,0.0,0.0,0.0,0.0,0.0,0.0,0.0,0.0,0.0,0.0,0.0,0.0,0.0,0.0,0.0,0.0,0.0,0.0,0.0,0.0,0.0,0.0,0.0,0.0,0.0,0.0,0.0,0.0,0.0,0.0,0.0,0.0,0.0,0.0,0.0,0.0,0.0,0.0,0.0,0.0,0.0,0.0,0.0,0.0,0.0,0.0,0.0,0.0,0.0,0.0,0.0,0.0,0.0,0.0,0.0,0.0,0.0,0.0,0.0,0.0,0.0,0.0,0.0,0.0,0.0,0.0,0.0,0.0,0.0,0.0,0.0,0.0,0.0,0.0,0.0,0.0,0.0,0.0,0.0,0.0,0.0,0.0,0.0,0.0,0.0,0.0,0.0,0.0,0.0,0.0,0.0,0.0,0.0,0.0,0.0,0.0,0.0,0.0,0.0,0.0,0.0,0.0,0.0,0.0,0.0,0.0,0.0,0.0,0.0,0.0,0.0,0.0,0.0,0.0,0.0,0.0,0.0,0.0,0.0,-0.6487,0.0,0.0,0.0,0.0,0.0,0.0,0.0,0.0,0.0,0.0,0.0,0.0,0.0,0.0,0.0,0.0,0.0,0.0,0.0,0.0,0.0,0.0,0.0,0.0,0.0,0.0,0.0,0.0,0.0,0.0,0.0,0.0,0.0,0.0,0.0,0.0,0.0,0.0,0.0,0.1482,0.142,0.1235,0.0741,0.0309,0.0,0.0,0.0,0.0,0.0,0.0,0.0,0.0,0.0,0.0,0.0,0.0,0.0,0.0,0.0,0.0,0.0,0.0,0.0,0.0,0.0,0.0,0.0,0.0,0.0,0.0,0.0,0.0,0.0,0.0,0.0,0.0,0.0,0.0,0.0,0.0,0.0,0.0,0.0,0.0,0.0,0.0,0.0,0.0,0.0,0.0,0.0,0.0,0.0,0.0,0.0,0.0,0.0,0.0,0.0,0.0,0.0,0.0,0.0,0.0,0.0,0.0,0.0,0.0,0.0,0.0,0.0,0.0,0.0,0.0,0.0,0.0,-0.6289,0.0,0.0,0.0,0.0,0.0,0.0,0.0,0.0,0.0,0.0,0.0,0.0,0.0,0.0,0.0,0.0,0.0,0.0,0.0,0.0,0.0,0.0,0.0,0.0,0.1907,0.1346,0.1012,0.0685,0.0,0.0,0.0,0.0,0.0,0.0,0.0,0.0,0.0,0.0,0.1977,0.1853,0.1482,0.0864,0.0432,0.0062,0.0,0.0,0.0,0.0,0.0,0.0,0.0,0.0,0.0,0.0,0.0,0.0,0.0,0.0,0.0,0.0,0.0,0.0,0.0,0.0,0.0,0.0,0.0,0.0,0.0,0.0,0.0,0.0,0.0,0.0,0.0,0.0,0.0,0.0,0.0,0.0,0.0,0.0,0.0,0.0,0.0,0.0,0.0,0.0,0.0,0.0,0.0,0.0,0.0,0.0,0.0,0.0,0.0,0.0,0.0,0.0,0.0,0.0,0.0,0.0,0.0,0.0,0.0,0.0,-1.0429,-1.0115,-0.9867,-0.9492,-0.908,-0.8531,-0.764,-0.6989,-0.6587,-0.6289,0.0,0.0,0.0,0.0,0.0,0.0,0.0,0.0,0.0,0.0,0.0,0.0,0.0,0.0,0.0,0.0,0.0,0.0,0.0,0.0,0.0,0.202,0.1683,0.1346,0.0795,0.0462,0.0,0.0,0.0,0.0,0.0,0.0,0.0,0.1853,0.1977,0.1977,0.1977,0.1853,0.1482,0.1111,0.0741,0.0432,0.0123,0.0,0.0,0.0,0.0,0.0,0.0,0.0,0.0,0.0,0.0,0.0,0.0,0.0,0.0,0.0,0.0,0.0,0.0,0.0,0.0,0.0,0.0,0.0,0.0,0.0,0.0,0.0,0.0,0.0,0.0,0.0,0.0,0.0,0.0,0.0,0.0,0.0,0.0,0.0,0.0,0.0,0.0,0.0,-0.4334,-0.5486,0.0,0.0,0.0,0.0,0.0,0.0,0.0,0.0,0.0,0.0,0.0,0.0,0.0,-1.2255,-1.2459,-1.2459,-1.2306,-1.2045,-1.1598,-1.1262,-1.0952,-1.024,-0.9723,-0.9426,-0.9034,0.0,-0.7381,-0.6889,0.0,0.0,0.0,0.0,0.0,0.0,0.0,0.0,0.0,0.0,0.0,0.0,0.0,0.0,0.0,0.0,0.0,0.0,0.0,0.0,0.0,0.1683,0.1346,0.0841,0.0569,0.0347,0.0177,0.0179,0.0,0.0,0.0,0.0,0.1482,0.1667,0.1791,0.1977,0.1977,0.1853,0.1482,0.1173,0.0803,0.0494,0.0123,0.0,0.0,0.0,0.0,0.0,0.0,0.0,0.0,0.0,0.0,0.0,0.0,0.0,0.0,0.0,0.0,0.0,0.0,0.0,0.0,0.0,0.0,0.0,0.0,0.0,0.0,0.0,0.0,0.0,0.0,0.0,0.0,0.0,0.0,0.0,0.0,0.0,0.0,0.0,0.0,0.0,0.0,-0.3681,-0.4585,-0.5486,-0.5586,-0.5861,0.0,0.0,0.0,0.0,0.0,0.0,0.0,0.0,0.0,-1.1559,-1.2029,-1.2343,-1.2447,-1.2601,-1.2648,-1.2545,-1.2342,-1.2089,-1.1782,-1.1286,-1.0941,-1.0632,-0.992,-0.9318,-0.8801,-0.7869,-0.7391,-0.7185,0.0,0.0,0.0,0.0,-0.6602,-0.6657,0.0,0.0,0.0,0.0,0.0,0.0,0.0,0.0,0.0,0.0,0.0,0.0,0.1683,0.129,0.0899,0.0451,0.0344,0.0233,0.0,0.0,0.0,0.0,0.0,0.0741,0.1235,0.142,0.1667,0.1977,0.1915,0.1729,0.1482,0.105,0.0741,0.0494,0.0123,0.0,0.0,0.0,0.0,0.0,0.0,0.0,0.0,0.0,0.0,0.0,0.0,0.0,0.0,0.0,0.0,0.0,0.0,0.0,0.0,0.0,0.0,0.0,0.0,0.0,0.0,0.0,0.0,0.0,0.0,0.0,0.0,0.0,0.0,0.0,0.0,0.0,0.0,0.0,0.0,0.0,0.0,-0.4151,-0.4772,-0.5576,-0.5701,-0.5953,0.0,0.0,0.0,0.0,0.0,0.0,-0.9489,-1.0217,-1.0927,-1.1554,-1.2135,-1.2506,-1.2663,-1.2924,-1.3086,-1.3086,-1.292,-1.2785,-1.2573,-1.226,-1.1925,-1.1554,-1.0783,-1.031,-1.009,-0.8764,-0.8035,-0.7779,-0.7487,-0.7388,-0.7288,-0.7238,-0.7188,-0.72,0.0,0.0,0.0,0.0,0.0,0.0,0.0,0.0,0.0,0.0,0.0,0.1683,0.1346,0.0785,0.0451,0.0401,0.0175,0.0,0.0,0.0,0.0,0.0,0.0309,0.0494,0.0556,0.1173,0.1667,0.1977,0.1667,0.1544,0.1482,0.0803,0.0494,0.0494,0.0123,0.0,0.0,0.0,0.0,0.0,0.0,0.0,0.0,0.0,0.0,0.0,0.0,0.0,0.0,0.0,0.0,0.0,0.0,0.0,0.0,0.0,0.0,0.0,0.0,0.0,0.0,0.0,0.0,0.0,0.0,0.0,0.0,0.0,0.0,0.0,0.0,0.0,0.0,0.0,0.0,0.0,0.0,0.0,0.0,-0.5686,-0.5879,0.0,0.0,0.0,0.0,-0.7217,-0.7915,-0.8528,-0.9122,-1.0136,-1.1101,-1.1919,-1.2575,-1.3117,-1.3609,-1.3938,-1.4105,-1.4105,-1.3598,-1.3378,-1.332,-1.2848,-1.239,-1.1874,-1.1813,-1.1493,-1.0841,-0.9361,-0.8577,-0.8333,-0.8088,-0.7793,-0.7547,-0.7288,-0.7188,-0.7188,0.0,0.0,0.0,0.0,0.0,0.0,0.0,0.0,0.0,0.2188,0.1739,0.129,0.0785,0.0505,0.0339,0.0172,0.0058,0.0,0.0,0.0,0.0,0.0,0.0123,0.0309,0.0494,0.0926,0.1235,0.1359,0.1235,0.105,0.0864,0.0617,0.037,0.0185,0.0062,0.0,0.0,0.0,0.0,0.0,0.0,0.0,0.0,0.0,0.0,0.0,0.0,0.0,0.0,0.0,0.0,0.0,0.0,0.0,0.0,0.0,0.0,0.0,0.0,0.0,0.0,0.0,0.0,0.0,0.0,0.0,0.0,0.0,0.0,0.0,0.0,0.0,0.0,0.0,0.0,0.0,0.0,0.0,0.0,-0.5846,-0.5984,0.0,-0.6859,-0.6921,-0.7058,-0.7408,-0.7837,-0.8352,-0.8955,-0.9889,-1.0637,-1.1131,-1.206,-1.2659,-1.2876,-1.3532,-1.3862,-1.3862,-1.3885,-1.3896,-1.3896,-1.3545,-1.3237,-1.3019,-1.2552,-1.2121,-1.173,-1.0887,-1.0044,-0.9287,-0.8686,-0.8324,-0.8088,-0.7839,-0.7739,-0.7739,0.0,0.0,0.0,0.0,0.0,0.0,0.0,0.0,0.2244,0.1851,0.1346,0.0841,0.0449,0.0338,0.0171,0.0,0.0,0.0,0.0,0.0,0.0,0.0,0.0,0.0185,0.0494,0.0741,0.0864,0.0988,0.0864,0.0741,0.0494,0.037,0.0185,0.0,0.0,0.0,0.0,0.0,0.0,0.0,0.0,0.0,0.0,0.0,0.0,0.0,0.0,0.0,0.0,0.0,0.0,0.0,0.0,0.0,0.0,0.0,0.0,0.0,0.0,0.0,0.0,0.0,0.0,0.0,0.0,0.0,0.0,0.0,0.0,0.0,0.0,0.0,0.0,0.0,0.0,0.0,0.0,0.0,-0.5367,-0.5957,-0.6095,-0.6362,-0.698,-0.7043,-0.7185,-0.7432,-0.7715,-0.8156,-0.8758,-0.9423,-1.0088,-1.0692,-1.1514,-1.211,-1.2387,-1.3098,-1.3483,-1.3586,-1.3867,-1.4029,-1.4029,-1.3921,-1.3807,-1.3689,-1.3207,-1.2768,-1.2379,-1.1981,-1.1281,-1.042,-0.9477,-0.8859,-0.8457,-0.8204,-0.8088,-0.7988,0.0,0.0,0.0,0.0,0.0,0.0,0.0,0.2354,0.1795,0.1739,0.0953,0.0393,0.0393,0.0171,0.0,0.0,0.0,0.0,0.0,0.0,0.0,0.0,0.0,0.0123,0.0494,0.0494,0.0617,0.0988,0.0617,0.0494,0.0494,0.0123,0.0,0.0,0.0,0.0,0.0,0.0,0.0,0.0,0.0,0.0,0.0,0.0,0.0,0.0,0.0,0.0,0.0,0.0,0.0,0.0,0.0,0.0,0.0,0.0,0.0,0.0,0.0,0.0,0.0,0.0,0.0,0.0,0.0,0.0,0.0,0.0,0.0,0.0,0.0,0.0,0.0,0.0,0.0,0.0,-0.4763,-0.4976,-0.5412,-0.6011,-0.6212,-0.655,-0.7154,-0.721,-0.721,-0.721,-0.7438,-0.7881,-0.8429,-0.8758,-0.942,-1.0637,-1.0907,-1.1509,-1.2327,-1.2713,-1.2989,-1.3261,-1.3537,-1.3694,-1.3699,-1.4029,-1.4029,-1.3699,-1.3699,-1.3423,-1.2881,-1.255,-1.2166,-1.1575,-1.0403,-0.9442,-0.8714,-0.85,-0.824,-0.7988,0.0,0.0,0.0,0.0,0.0,0.0,0.0,0.2075,0.157,0.0897,0.0561,0.0338,0.0114,0.0057,0.0,0.0,0.0,0.0,0.0,0.0,0.0,0.0,0.0,0.0062,0.0123,0.0123,0.0185,0.0247,0.0185,0.0123,0.0123,0.0062,0.0,0.0,0.0,0.0,0.0,0.0,0.0,0.0,0.0,0.0,0.0,0.0,0.0,0.0,0.0,0.0,0.0,0.0,0.0,0.0,0.0,0.0,0.0,0.0,0.0,0.0,0.0,0.0,0.0,0.0,0.0,0.0,0.0,0.0,0.0,0.0,0.0,0.0,0.0,0.0,0.0,0.0,0.0,-0.497,-0.5202,-0.5271,-0.5567,-0.6176,-0.6255,-0.655,-0.7154,-0.721,-0.721,-0.721,-0.7438,-0.7662,-0.7826,-0.854,-0.903,-0.9364,-1.0304,-1.0911,-1.1185,-1.1896,-1.2387,-1.2659,-1.2989,-1.3315,-1.3699,-1.3807,-1.3921,-1.4083,-1.4083,-1.3867,-1.3478,-1.3152,-1.2733,-1.2058,-1.0841,-1.0092,-0.9705,-0.8922,-0.8334,-0.7988,0.0,0.0,0.0,0.0,0.0,0.0,0.0,0.1683,0.1121,0.0336,0.0113,-0.0057,-0.0345,-0.0407,-0.0414,-0.0422,-0.0425,-0.0367,-0.0247,-0.0062,0.0,0.0,0.0,0.0,0.0,0.0,0.0,0.0,0.0,0.0,0.0,0.0,0.0,0.0,0.0,0.0,0.0,0.0,0.0,0.0,0.0,0.0,0.0,0.0,0.0,0.0,-0.0185,-0.0432,-0.074,-0.0856,0.0,0.0,0.0,0.0,0.0,0.0,0.0,0.0,0.0,0.0,0.0,0.0,0.0,0.0,0.0,0.0,0.0,0.0,0.0,0.0,0.0,0.0,0.0,0.0,-0.4929,-0.5156,-0.5382,-0.5382,-0.5605,-0.6219,-0.6274,-0.655,-0.7154,-0.721,-0.721,-0.721,-0.7324,-0.7493,-0.7607,-0.81,-0.8513,-0.8795,-0.9635,-1.0226,-1.0463,-1.1247,-1.1806,-1.2084,-1.2645,-1.3094,-1.3422,-1.3607,-1.384,-1.4167,-1.4017,-1.3862,-1.3694,-1.3532,-1.3152,0.0,0.0,0.0,0.0,0.0,-0.8512,-0.8273,0.0,0.0,0.0,0.0,0.0,0.0,0.0,0.1234,0.0617,0.0,-0.0342,-0.0633,-0.0867,-0.0949,-0.1026,-0.1028,-0.098,-0.0864,-0.0556,-0.0247,-0.0062,-0.0062,0.0,0.0,0.0,0.0,0.0,0.0,0.0,0.0,0.0,0.0,0.0,0.0,0.0,0.0,0.0,0.0,0.0,0.0,0.0,0.0,0.0,0.0,0.0,-0.0062,-0.037,-0.0741,-0.105,-0.1359,0.0,0.0,0.0,0.0,0.0,0.0,0.0,0.0,0.0,0.0,0.0,0.0,0.0,0.0,0.0,0.0,0.0,0.0,0.0,0.0,0.0,0.0,0.0,0.0,-0.5156,-0.5382,-0.5382,-0.5382,-0.5605,-0.6219,-0.6274,-0.655,-0.7154,-0.721,-0.721,-0.721,-0.721,-0.7329,-0.7572,0.0,0.0,0.0,0.0,-0.9471,-1.0066,-1.0705,-1.1224,-1.1508,-1.2369,-1.2831,-1.2884,-1.3316,-1.3735,-1.4008,-1.3806,-1.3702,-1.3736,-1.3681,-1.334,-1.2753,-1.1975,-1.1193,-1.0379,-0.9242,-0.8757,-0.8656,0.0,0.0,0.0,0.0,0.0,0.0,0.0,0.0673,0.0056,-0.0343,-0.0631,-0.0871,-0.0954,-0.1022,-0.097,-0.0983,-0.0986,-0.0988,-0.0926,-0.0617,-0.0432,-0.0432,-0.0123,0.0,0.0,0.0,0.0,0.0,0.0,0.0,0.0,0.0,0.0,0.0,0.0,0.0,0.0,0.0,0.0,0.0,0.0,0.0,0.0,0.0,0.0,-0.0062,-0.037,-0.0741,-0.105,-0.1359,-0.1729,-0.1977,-0.1977,0.0,0.0,0.0,0.0,0.0,0.0,0.0,0.0,0.0,0.0,0.0,0.0,0.0,0.0,0.0,0.0,0.0,0.0,0.0,0.0,-0.4873,-0.5156,-0.5382,-0.5382,-0.5382,-0.5605,-0.6219,-0.6274,-0.655,-0.7154,-0.721,-0.721,-0.721,-0.721,-0.7254,-0.7352,-0.7641,-0.7869,-0.8113,-0.864,-0.9061,-0.9494,-0.9896,-1.0358,-1.0874,0.0,0.0,-1.2311,-1.2847,-1.3288,-1.3628,-1.3815,-1.3918,-1.397,-1.3518,-1.2973,-1.2436,-1.1855,-1.1145,-1.0412,-0.9705,-0.9097,-0.867,0.0,0.0,0.0,0.0,0.0,0.0,0.0,0.0282,-0.0228,-0.0862,-0.1108,-0.1245,-0.1446,-0.1458,-0.147,-0.1481,-0.1359,-0.1235,-0.1235,-0.0926,-0.0679,-0.0494,-0.037,-0.0185,0.0,0.0,0.0,0.0,0.0,0.0,0.0,0.0,0.0,0.0,0.0,0.0,0.0,0.0,0.0,0.0,0.0,-0.0123,-0.0247,-0.0062,-0.0123,-0.0309,-0.0617,-0.0988,-0.1297,-0.1667,-0.1853,-0.1977,-0.1977,-0.1977,-0.1977,0.0,0.0,0.0,0.0,0.0,0.0,0.0,0.0,0.0,0.0,0.0,0.0,0.0,0.0,-0.3802,0.0,0.0,-0.4648,-0.5098,-0.5268,-0.5382,-0.5382,-0.5382,-0.5549,-0.5993,-0.6216,-0.6495,-0.6935,-0.7099,-0.7235,-0.7241,-0.7244,-0.7298,-0.7421,-0.7541,-0.7713,-0.7839,-0.8257,-0.8582,-0.8831,-0.9304,-0.9776,-1.0247,-1.0779,-1.1311,-1.1955,-1.2274,-1.2815,-1.3389,-1.3456,-1.3633,-1.3969,-1.3405,-1.3015,-1.2748,-1.1932,-1.1344,-1.092,-0.9973,-0.9409,-0.9093,0.0,0.0,0.0,0.0,0.0,0.0,0.0,0.0,-0.0518,-0.1328,-0.1482,-0.1692,-0.1879,-0.2023,-0.2099,-0.2161,-0.1914,-0.1667,-0.1667,-0.1296,-0.0926,-0.0617,-0.0556,-0.037,0.0,0.0,0.0,0.0,0.0,0.0,0.0,0.0,-0.0062,-0.0123,-0.0123,-0.0123,-0.0185,-0.0185,-0.0185,-0.0185,-0.0185,-0.037,-0.0556,-0.0309,-0.037,-0.0617,-0.0988,-0.1297,-0.1544,-0.1915,-0.1977,-0.1977,-0.1977,-0.1977,-0.1977,-0.1977,-0.1977,0.0,0.0,0.0,0.0,0.0,0.0,0.0,0.0,0.0,-0.3829,-0.3829,-0.373,-0.3868,-0.4442,-0.4509,-0.4696,-0.5263,-0.5418,-0.5406,-0.5406,-0.5392,-0.5497,-0.5736,-0.6061,-0.6393,-0.669,-0.7025,-0.7239,-0.7306,-0.7315,-0.7423,-0.7548,-0.7554,-0.7611,-0.7731,-0.7973,-0.8202,-0.8369,-0.8851,-0.9278,-0.964,-1.0304,-1.091,-1.145,-1.1729,-1.2314,-1.3017,-1.3042,-1.3298,-1.3685,-1.3402,-1.3177,-1.3007,-1.2018,-1.1658,-1.1442,-1.0093,-0.9646,-0.9476,0.0,0.0,0.0,0.0,0.0,0.0,0.0,0.0,0.0,-0.1408,-0.1671,-0.1881,-0.1969,-0.2281,-0.259,-0.2838,-0.259,-0.2406,-0.2406,-0.179,-0.1297,-0.0988,-0.0679,-0.037,0.0,0.0,0.0,0.0,0.0,0.0,0.0,0.0,-0.0185,-0.0432,-0.0432,-0.0617,-0.0864,-0.0864,-0.0864,-0.0864,-0.0864,-0.0926,-0.0926,-0.0926,-0.0926,-0.0988,-0.1297,-0.1482,-0.1544,-0.1915,-0.1977,-0.1977,-0.1977,-0.1977,-0.1977,-0.1977,0.0,-0.1977,-0.1977,-0.1974,-0.2155,-0.2825,-0.2915,-0.3066,0.0,0.0,-0.3829,-0.3829,-0.3822,-0.3875,-0.4165,-0.4509,-0.48,-0.5152,-0.5376,-0.5494,-0.5494,-0.5429,-0.5408,-0.5541,-0.5989,-0.6478,-0.6858,-0.7147,-0.7366,-0.7489,-0.7497,-0.7551,-0.7674,-0.7682,-0.7733,-0.7847,-0.7914,-0.8105,-0.8369,-0.8491,-0.8671,-0.9037,-0.964,-0.994,-1.0061,-1.1253,-1.1848,-1.2016,-1.2904,-1.3173,-1.3038,-1.3346,-1.321,-1.2762,-1.212,-1.1782,-1.1455,-1.0233,-0.9693,-0.9452,0.0,0.0,0.0,0.0,0.0,0.0,0.0,0.0,0.0,0.0,-0.1867,-0.1962,-0.1975,-0.2283,-0.2652,-0.2961,-0.2714,-0.2529,-0.2529,-0.2037,-0.1667,-0.1297,-0.1173,-0.0864,-0.0309,-0.0309,-0.0309,-0.0309,-0.0309,-0.037,-0.0556,-0.0556,-0.0679,-0.0803,-0.0803,-0.0864,-0.0988,-0.0988,-0.0988,-0.0988,-0.0988,-0.1111,-0.1297,-0.1297,-0.142,-0.1606,-0.1544,-0.1606,0.0,0.0,-0.1977,-0.1977,-0.1977,-0.1977,-0.1977,-0.1977,-0.1977,0.0,-0.1977,-0.1977,0.0,0.0,-0.2824,-0.3055,-0.3545,-0.3771,-0.3875,-0.3875,-0.3846,-0.3941,-0.4234,-0.4499,-0.4826,0.0,-0.5381,-0.553,-0.553,-0.5557,-0.5547,-0.5584,-0.5903,-0.6299,-0.6688,-0.698,-0.7261,-0.7616,-0.7625,-0.7676,-0.7793,-0.7801,-0.782,-0.7869,-0.7872,-0.7994,-0.8119,-0.8119,-0.8305,-0.8613,-0.8854,-0.9278,-0.9822,-1.0365,-1.1031,-1.1812,-1.2397,-1.2724,-1.277,-1.2867,-1.2735,-1.2524,-1.1842,-1.1479,-1.1116,-1.0181,-0.9771,-0.9588,0.0,0.0,0.0,0.0,0.0,0.0,0.0,0.0,0.0,0.0,0.0,-0.2099,-0.2285,-0.2468,-0.2775,-0.3208,-0.29,-0.2652,-0.2652,-0.2222,-0.1853,-0.1544,-0.1482,-0.1235,-0.0679,-0.0617,-0.0617,-0.0617,-0.0617,-0.0741,-0.0988,-0.0988,-0.105,-0.1112,-0.1112,-0.1173,-0.1297,-0.1297,-0.1297,-0.1297,-0.1297,-0.1417,-0.1596,-0.1596,-0.1775,-0.1954,-0.1724,-0.1791,-0.1977,0.0,-0.1977,-0.1977,-0.1977,-0.1977,-0.1977,-0.1977,-0.1915,-0.1853,-0.1977,0.0,0.0,-0.2406,-0.2714,-0.2961,-0.3394,-0.3642,-0.3826,-0.3889,-0.3916,-0.3945,-0.4125,-0.4446,-0.471,-0.5069,-0.5345,-0.5562,-0.5623,-0.56,-0.5594,-0.5678,-0.5861,-0.6166,-0.6487,-0.6879,-0.7205,-0.7561,-0.7689,-0.7785,-0.7867,-0.7872,-0.7872,-0.7872,-0.7872,-0.7872,-0.7872,-0.7872,-0.7994,-0.8244,-0.8369,-0.8732,-0.9396,-0.97,-1.0365,-1.1394,-1.1812,-1.2118,-1.247,-1.2396,-1.2368,-1.2358,-1.1791,-1.1337,-1.0896,-1.0151,-0.9739,-0.9409,0.0,0.0,0.0,0.0,0.0,0.0,0.0,0.0,0.0,0.0,0.0,0.0,0.0,0.0,-0.3209,-0.3826,-0.3332,-0.2961,-0.2961,-0.2346,-0.1853,-0.1544,-0.1482,-0.1359,-0.0988,-0.0988,-0.0988,-0.0988,-0.0988,-0.0988,-0.0988,-0.0988,-0.1173,-0.1482,-0.1482,-0.1667,-0.1977,-0.1977,-0.1977,-0.1977,-0.1977,-0.1959,-0.1872,-0.1872,-0.1914,-0.1896,-0.1955,-0.1977,-0.1977,0.0,-0.1977,-0.1977,-0.1977,-0.1977,0.0,-0.1977,-0.1791,-0.1606,0.0,0.0,-0.1667,-0.2344,-0.2529,-0.2714,-0.3332,-0.3517,-0.358,-0.3826,-0.3888,-0.3887,-0.3887,-0.419,-0.4495,-0.4865,-0.5106,-0.5414,-0.5776,-0.57,-0.5676,-0.5765,-0.5778,-0.5991,0.0,-0.6912,-0.7255,-0.7373,-0.7683,-0.7867,-0.7872,-0.7872,-0.7872,-0.7872,-0.7872,-0.7872,-0.7872,-0.7872,-0.7933,-0.7933,-0.8244,-0.843,-0.8491,-0.94,-1.0001,-1.0365,-1.1031,-1.1514,-1.1877,-1.2109,-1.2303,-1.2379,-1.2077,-1.1562,-1.0912,-1.0333,-0.9608,-0.8865,0.0,0.0,0.0,0.0,0.0,0.0,0.0,0.0,0.0,0.0,0.0,0.0,0.0,0.0,0.0,0.0,-0.29,-0.2652,-0.2652,-0.2222,-0.1977,-0.1853,-0.1853,-0.1667,-0.1359,-0.1359,-0.1359,-0.1359,-0.1359,-0.142,-0.1667,-0.1667,-0.1729,-0.1853,-0.1853,-0.1915,-0.1977,-0.1977,-0.1965,-0.1947,-0.1947,-0.1928,-0.1901,-0.1901,-0.1895,-0.1889,0.0,-0.193,-0.1949,0.0,0.0,0.0,-0.1977,-0.1853,-0.1606,-0.142,-0.1235,-0.1173,-0.1297,0.0,-0.1296,-0.1729,-0.1974,-0.2281,-0.2714,-0.3208,-0.3517,-0.3642,-0.3765,-0.3889,-0.3889,-0.4195,-0.4501,-0.4872,-0.5154,-0.5502,-0.5811,-0.5845,-0.5837,-0.5867,-0.5872,0.0,0.0,0.0,0.0,-0.7018,-0.7385,-0.7569,-0.7569,-0.775,-0.7872,-0.7872,-0.7872,-0.7872,-0.7872,-0.7872,-0.7872,-0.7933,-0.8244,-0.8369,-0.843,-0.8976,-0.9339,-0.964,-1.0122,-1.0486,-1.0849,-1.1152,-1.1298,-1.1299,-1.107,-1.0781,-1.0306,-0.9738,-0.9063,-0.8448,0.0,0.0,0.0,0.0,0.0,0.0,0.0,0.0,0.0,0.0,0.0,0.0,0.0,0.0,0.0,0.0,0.0,-0.2529,-0.2529,-0.216,-0.1977,-0.1977,-0.1977,-0.1915,-0.1667,-0.1667,-0.1667,-0.1667,-0.1667,-0.1791,-0.1977,-0.1977,-0.1977,-0.1977,-0.1977,-0.1971,-0.196,-0.196,-0.1943,-0.1915,-0.1915,-0.1896,-0.187,-0.187,-0.1863,0.0,-0.1866,-0.1882,0.0,0.0,0.0,0.0,-0.1777,-0.1598,-0.1297,-0.105,-0.0926,-0.0864,-0.0988,-0.0926,-0.0926,-0.1235,-0.1481,-0.1789,-0.2221,-0.2652,-0.3085,-0.3455,-0.3642,-0.3765,-0.3889,-0.4071,-0.4318,-0.4687,-0.4993,-0.5362,-0.5669,-0.5794,-0.5916,-0.5916,-0.5916,-0.5916,0.0,0.0,0.0,-0.6714,-0.7021,-0.7204,-0.7204,-0.7569,-0.775,-0.775,-0.7811,-0.7872,-0.7872,-0.7872,-0.7872,-0.7933,-0.8119,-0.8244,-0.8244,-0.8552,-0.8793,-0.8973,-0.9339,-0.97,-1.0122,-1.0365,-1.0607,-1.0778,-1.0677,-1.0305,-0.9867,-0.9442,-0.8803,-0.8115,0.0,0.0,0.0,0.0,0.0,0.0,0.0,0.0,0.0,0.0,0.0,0.0,0.0,0.0,0.0,0.0,0.0,0.0,-0.2467,-0.216,-0.1977,-0.1977,-0.1977,-0.1977,-0.1977,-0.1977,-0.1977,-0.1977,-0.1977,-0.1977,-0.1977,-0.1977,-0.1977,-0.1977,-0.1977,-0.196,-0.1871,-0.1871,-0.1913,-0.1883,-0.1883,-0.1865,-0.178,-0.178,-0.182,-0.1799,-0.1827,0.0,0.0,0.0,0.0,0.0,0.0,-0.1159,-0.0926,-0.0926,-0.0679,-0.0494,-0.0803,-0.0679,-0.0494,-0.0864,-0.0926,-0.1111,-0.1788,-0.1973,-0.2281,-0.3209,-0.3455,-0.358,0.0,0.0,-0.4011,-0.4316,-0.4687,-0.4995,-0.5298,-0.5669,-0.5855,0.0,0.0,0.0,0.0,0.0,0.0,-0.6342,0.0,-0.69,-0.69,-0.7204,-0.7388,-0.7388,-0.7689,-0.7872,-0.7872,-0.7872,-0.7872,-0.7872,-0.7872,-0.7872,-0.7933,-0.8244,-0.8369,-0.8369,-0.8732,-0.9217,-0.97,-0.9761,-1.0126,-1.0728,-1.0728,-1.0212,-0.9525,-0.9377,-0.8711,-0.778,0.0,0.0,0.0,0.0,0.0,0.0,0.0,0.0,0.0,0.0,0.0,0.0,0.0,0.0,0.0,0.0,0.0,0.0,-0.2099,-0.2038,-0.1977,-0.1977,-0.1977,-0.1977,-0.1977,-0.1977,-0.1977,-0.1977,-0.1977,-0.1977,-0.1977,-0.1977,-0.1977,-0.1977,-0.1977,-0.196,-0.1871,-0.1871,-0.19,-0.1852,-0.1852,-0.1834,-0.1806,-0.1806,-0.1802,-0.1796,-0.1804,0.0,0.0,0.0,0.0,0.0,0.0,-0.0122,0.0185,0.0432,0.0556,0.0617,0.0494,0.0556,0.0556,0.0185,-0.0062,-0.037,-0.0802,-0.1481,-0.2097,-0.2343,-0.2961,-0.3517,0.0,0.0,0.0,-0.4316,-0.4501,0.0,-0.4995,-0.53,0.0,-0.5544,0.0,-0.5916,-0.5916,-0.5916,0.0,0.0,-0.6344,-0.6528,-0.6528,-0.6837,-0.7021,-0.7021,-0.7324,-0.7508,-0.7508,-0.775,-0.7872,-0.7872,-0.7872,-0.7872,-0.7933,-0.7994,-0.8058,-0.8058,-0.8366,-0.8613,-0.8793,-0.9037,-0.9217,-0.94,-0.94,-0.9255,-0.9013,-0.8537,-0.8191,-0.7899,0.0,0.0,0.0,0.0,0.0,0.0,0.0,0.0,0.0,0.0,0.0,0.0,0.0,0.0,0.0,0.0,0.0,0.0,0.0,-0.1977,-0.1977,-0.1977,-0.1977,-0.1977,-0.1977,-0.1977,-0.1977,-0.1977,-0.1977,-0.1977,-0.1977,-0.1977,-0.1977,-0.1976,-0.1962,-0.194,-0.191,-0.1897,-0.1805,0.0,0.0,-0.181,-0.1795,-0.1795,-0.1795,-0.1795,0.0,0.0,0.0,0.0,0.0,-0.0178,0.024,0.0546,0.0734,0.0924,0.0,0.0988,0.0988,0.0988,0.0926,0.0741,0.0556,0.0309,-0.0185,-0.0741,-0.1296,-0.185,-0.259,0.0,0.0,0.0,0.0,0.0,0.0,0.0,-0.4624,-0.4993,-0.5177,0.0,-0.5485,0.0,-0.5669,-0.5794,-0.5916,0.0,-0.6101,-0.616,-0.616,-0.6469,-0.6653,-0.6653,-0.7021,-0.7204,-0.7204,-0.7508,-0.7689,-0.7689,-0.7811,-0.7872,-0.7872,-0.7872,-0.7872,-0.7933,0.0,-0.8244,-0.843,-0.8613,-0.8796,-0.8915,-0.8915,-0.8793,-0.8641,-0.8195,-0.7924,-0.7713,0.0,0.0,0.0,0.0,0.0,0.0,0.0,0.0,0.0,0.0,0.0,0.0,0.0,0.0,0.0,0.0,0.0,0.0,0.0,0.0,0.0,0.0,-0.1975,-0.1977,-0.1977,-0.1977,-0.1977,-0.1977,-0.1977,-0.1977,-0.1977,-0.1973,-0.1971,-0.1969,-0.1939,-0.1908,-0.1878,-0.1851,-0.1823,-0.1795,-0.1795,-0.1795,-0.1795,0.0,0.0,0.0,0.0,0.0,0.0,0.0,0.0227,0.0347,0.0832,0.1082,0.1149,0.1226,0.1233,0.1235,0.1235,0.1173,0.1173,0.1173,0.1111,0.0926,0.0247,0.0062,-0.037,-0.1604,0.0,-0.2652,-0.3332,0.0,-0.3889,-0.3889,0.0,-0.4316,-0.4316,-0.4626,-0.481,-0.481,-0.5116,-0.536,-0.5421,-0.5669,-0.5855,-0.5916,-0.5916,-0.5916,-0.5916,-0.616,-0.6342,-0.6403,-0.6653,-0.6839,-0.69,-0.7204,-0.7324,-0.7324,-0.7691,-0.7811,-0.7811,-0.7869,-0.7872,-0.7872,-0.7872,-0.8058,-0.8308,-0.8308,-0.8491,-0.8793,-0.8793,-0.861,-0.8276,-0.8019,-0.7749,-0.7483,0.0,0.0,0.0,0.0,0.0,0.0,0.0,0.0,0.0,0.0,-0.1855,-0.1888,0.0,0.0,0.0,0.0,0.0,0.0,0.0,0.0,0.0,0.0,-0.1963,-0.1977,-0.1977,-0.1977,-0.1977,-0.1977,-0.1977,-0.1977,-0.1976,-0.1951,-0.1939,-0.1938,-0.1907,-0.1877,-0.179,-0.1785,-0.1823,-0.1795,-0.1795,-0.1795,-0.1795,0.0,0.0,0.0,0.0,0.0,0.0,0.0,0.1248,0.1497,0.1621,0.2067,0.2533,0.254,0.2626,0.2591,0.2344,0.2221,0.2159,0.1914,0.1606,0.1297,0.0926,0.037,0.0,0.0,0.0,-0.2281,-0.2961,-0.3332,0.0,-0.3889,0.0,0.0,0.0,0.0,-0.4501,0.0,0.0,0.0,0.0,0.0,0.0,0.0,0.0,-0.5916,-0.5916,-0.5978,-0.6099,-0.6403,-0.6464,-0.6589,-0.69,-0.6962,-0.6962,-0.6962,-0.7324,-0.7508,-0.7508,-0.775,-0.7872,-0.7872,-0.7872,0.0,-0.7994,-0.7994,-0.7994,-0.8055,-0.8055,-0.8055,-0.7967,-0.7665,-0.7577,-0.7483,0.0,0.0,0.0,0.0,0.0,0.0,0.0,-0.1795,-0.1795,-0.1795,-0.1821,-0.1844,-0.186,-0.1862,-0.1868,0.0,0.0,0.0,0.0,0.0,0.0,0.0,0.0,0.0,0.0,-0.193,0.0,0.0,0.0,0.0,0.0,0.0,0.0,0.0,-0.1876,-0.1854,-0.1782,-0.1823,-0.1808,-0.1795,-0.1795,-0.1795,0.0,0.0,0.0,0.0,0.0,0.0,0.0,0.0,0.1861,0.2275,0.2295,0.2499,0.2833,0.2879,0.2909,0.2931,0.277,0.2775,0.2653,0.2345,0.216,0.1913,0.1358,0.0,0.0,0.0,-0.0987,-0.1666,-0.2344,0.0,0.0,0.0,0.0,0.0,0.0,0.0,0.0,0.0,0.0,0.0,0.0,0.0,0.0,0.0,0.0,-0.5916,-0.5916,-0.5916,-0.5978,-0.616,-0.616,-0.6223,-0.6407,-0.653,-0.665,-0.665,-0.6959,-0.7143,-0.7143,-0.7327,-0.7447,-0.7627,-0.7627,-0.775,-0.7872,-0.7872,-0.7872,-0.7872,-0.7872,-0.7834,-0.7761,-0.7584,-0.7478,-0.7399,0.0,0.0,0.0,0.0,0.0,0.0,0.0,-0.1795,-0.1795,-0.1795,-0.1795,-0.1804,-0.1828,-0.1773,-0.184,0.0,0.0,0.0,0.0,0.0,0.0,0.0,0.0,0.0,0.0,0.0,0.0,0.0,0.0,0.0,0.0,0.0,0.0,0.0,0.0,0.0,0.0,-0.1579,-0.1627,0.0,0.0,0.0,0.0,0.0,0.0,0.0,0.0,0.0,0.0,0.0,0.23,0.2812,0.2849,0.2926,0.2949,0.3021,0.3118,0.3082,0.3121,0.3077,0.3023,0.2714,0.259,0.2406,0.179,0.142,0.0,0.0,-0.037,-0.0987,-0.1665,0.0,0.0,0.0,0.0,0.0,0.0,0.0,0.0,0.0,0.0,0.0,0.0,0.0,0.0,0.0,0.0,0.0,-0.5916,-0.5916,-0.5916,-0.5916,-0.5916,-0.5916,-0.5916,-0.616,-0.628,-0.628,-0.6653,-0.6775,-0.6775,-0.6839,-0.7021,-0.7266,-0.7266,-0.7508,-0.7811,-0.7811,-0.7811,-0.7869,-0.7845,-0.778,-0.7684,-0.7535,-0.7418,-0.7261,0.0,0.0,0.0,0.0,0.0,0.0,0.0,-0.1795,-0.1795,-0.1795,-0.1795,-0.1796,-0.1799,-0.1799,-0.18,0.0,0.0,0.0,0.0,0.0,0.0,0.0,0.0,0.0,0.0,0.0,0.0,0.0,0.0,0.0,0.0,0.0,0.0,0.0,0.0,0.0,0.0,0.0,0.0,0.0,0.0,0.0,0.0,0.0,0.0,0.0,0.0,0.0,0.0,0.0,0.0,0.3138,0.3426,0.3577,0.3624,0.3633,0.0,0.0,0.3443,0.3418,0.3394,0.3023,0.2961,0.2775,0.2097,0.0,0.0,0.0679,0.0185,-0.0309,-0.0986,-0.1603,-0.2158,0.0,0.0,0.0,0.0,0.0,0.0,0.0,0.0,0.0,0.0,0.0,0.0,0.0,0.0,0.0,-0.5855,-0.5916,-0.5916,-0.5916,-0.5916,-0.5916,-0.5916,-0.5916,-0.5916,-0.5978,-0.6283,-0.6464,-0.6464,-0.6775,-0.69,-0.6962,-0.6962,-0.7143,0.0,-0.7447,-0.7627,-0.7861,-0.7758,-0.7712,-0.7674,-0.7437,-0.7288,-0.7261,0.0,0.0,0.0,0.0,0.0,0.0,-0.1851,-0.1795,-0.1795,-0.1795,-0.1795,-0.1795,-0.1795,-0.1795,-0.1795,-0.1795,0.0,0.0,0.0,0.0,0.0,0.0,0.0,0.0,0.0,0.0,-0.103,-0.0915,-0.0915,0.0,0.0,0.0,0.0,0.0,0.0,0.0,0.0,0.0,0.0,0.0,0.0,0.0,0.0,0.0,0.0,0.0,0.0,0.0,0.0,0.0,0.0,0.0,0.3475,0.3604,0.0,0.0,0.3713,0.3766,0.372,0.3695,0.366,0.3386,0.3271,0.3208,0.2714,0.0,0.0,0.1542,0.111,0.0678,0.0,-0.0494,-0.0984,-0.1524,0.0,0.0,0.0,0.0,0.0,0.0,0.0,0.0,0.0,0.0,0.0,0.0,0.0,0.0,-0.5302,-0.5671,-0.5916,-0.5916,-0.5916,-0.5916,-0.5916,-0.5916,-0.5916,-0.5916,-0.6039,-0.6099,-0.6099,-0.6223,-0.6407,-0.6589,-0.6589,-0.6773,0.0,-0.7082,-0.7165,-0.7221,-0.7355,-0.7313,-0.724,-0.7257,-0.729,-0.722,0.0,0.0,0.0,0.0,0.0,-0.2132,-0.1851,-0.1795,-0.1795,-0.1795,-0.1795,-0.1795,-0.1795,-0.1795,-0.1795,-0.1795,-0.1795,0.0,0.0,0.0,0.0,0.0,0.0,0.0,0.0,0.0,-0.0449,-0.0393,-0.0393,-0.0393,0.0,0.0,0.0,0.0,0.0,0.0,0.0,0.0,0.0,0.0,0.0,0.0,0.0,0.0,0.0,0.0,0.0,0.0,0.0,0.0,0.0,0.0,0.0,0.0,0.0,0.0,0.3665,0.3698,0.3842,0.388,0.3847,0.3664,0.3616,0.3559,0.0,0.0,0.2714,0.2343,0.1973,0.148,0.1049,0.0492,-0.0061,-0.0604,0.0,-0.1573,0.0,0.0,0.0,0.0,0.0,0.0,0.0,0.0,0.0,0.0,0.0,0.0,-0.4873,-0.5365,-0.5609,-0.5609,-0.5609,-0.5671,-0.5732,-0.5732,-0.5794,-0.5916,-0.5916,-0.5916,-0.5916,-0.5916,-0.6039,-0.6283,-0.6283,-0.6467,0.0,-0.6743,-0.6747,-0.6794,-0.6906,-0.6905,-0.6764,-0.7015,-0.7118,-0.7046,0.0,0.0,0.0,0.0,0.0,0.0,-0.1851,-0.1795,-0.1795,-0.1795,-0.1795,-0.1795,-0.1795,-0.1795,-0.1795,-0.1795,-0.1795,0.0,0.0,0.0,0.0,0.0,0.0,0.0,0.0,0.0,0.0561,0.0897,0.0897,0.0897,0.0897,0.0897,0.0897,0.0,0.0,0.0,0.0,0.0,0.0,0.0,0.0,0.0,0.0,0.0,0.0,0.0,0.0,0.0,0.0,0.0,0.0,0.0,0.0,0.0,0.0,0.0,0.3631,0.3679,0.368,0.3725,0.3844,0.3906,0.3921,0.3816,0.0,0.0,0.3394,0.3085,0.2467,0.1973,0.1973,0.1097,0.0302,0.006,-0.0294,0.0,0.0,0.0,0.0,0.0,0.0,0.0,0.0,0.0,0.0,0.0,0.0,0.0,-0.4872,-0.4935,-0.4935,-0.4935,-0.4935,-0.5056,-0.5421,-0.5421,-0.5546,-0.5916,-0.5916,-0.5916,-0.5916,-0.5916,-0.5916,-0.5916,-0.5916,-0.6099,0.0,-0.6357,-0.6499,-0.6782,-0.6508,-0.6424,-0.641,-0.6644,-0.6715,-0.6768,0.0,0.0,0.0,0.0,0.0,0.0,0.0,-0.1908,-0.1795,-0.1795,-0.1795,-0.1795,-0.1795,-0.157,-0.1458,-0.1458,-0.1458,0.0,0.0,0.0,0.0,0.0,0.0,0.0,0.0,0.0,0.1402,0.1514,0.1514,0.1514,0.1514,0.1514,0.1514,0.1514,0.1514,0.0,0.0,0.0,0.0,0.0,0.0,0.0,0.0,0.0,0.0,0.0,0.0,0.0,0.0,0.0,0.0,0.0,0.0,0.0,0.0,0.3587,0.0,0.0,0.3668,0.3692,0.3722,0.3841,0.3858,0.3803,0.3702,0.3706,0.3587,0.3287,0.3047,0.2808,0.2569,0.1905,0.1301,0.1228,0.0463,0.0,0.0,0.0,0.0,0.0,0.0,0.0,0.0,0.0,0.0,0.0,0.0,0.0,-0.4196,-0.4196,-0.4442,-0.4872,-0.4873,-0.4933,-0.5056,-0.5056,-0.5118,-0.5241,-0.5241,-0.5241,-0.5242,-0.5485,-0.5513,0.0,-0.5702,-0.5848,-0.5845,-0.5816,-0.5883,-0.5938,-0.6049,-0.6096,-0.6032,-0.634,-0.6439,-0.6442,0.0,0.0,0.0,0.0,0.0,0.0,0.0,-0.1964,-0.1795,-0.1795,-0.1795,-0.1739,-0.1627,-0.1402,-0.1234,-0.0953,-0.0841,0.0,0.0,0.0,0.0,0.0,0.0,0.0,0.1795,0.202,0.2132,0.2132,0.2132,0.2132,0.2132,0.2132,0.2132,0.2132,0.2132,0.2132,0.0,0.0,0.0,0.0,0.0,0.0,0.2861,0.0,0.0,0.0,0.0,0.0,0.0,0.0,0.0,0.0,0.0,0.0,0.0,0.0,0.3587,0.0,0.0,0.3644,0.3658,0.3719,0.3734,0.0,0.0,0.3829,0.3768,0.3533,0.3414,0.3238,0.3002,0.252,0.2037,0.1843,0.1144,0.0,0.0,0.0,0.0,0.0,0.0,0.0,0.0,0.0,0.0,0.0,0.0,0.0,-0.3764,-0.3826,-0.4062,-0.4343,-0.4429,-0.4566,-0.4687,-0.4687,-0.4734,-0.4891,-0.4891,-0.4877,-0.4848,-0.5088,-0.5179,-0.5132,-0.5312,-0.5402,0.0,-0.5375,-0.5388,-0.5392,-0.5646,-0.571,-0.5712,-0.5993,-0.6105,-0.6105,0.0,0.0,0.0,0.0,0.0,0.0,0.0,-0.202,-0.1795,-0.1795,-0.1795,-0.1627,-0.1346,-0.1234,-0.1009,-0.0393,0.0,0.0,0.0,0.0,0.0,0.0,0.0,0.0,0.2693,0.275,0.275,0.275,0.275,0.2747,0.2744,0.2744,0.2743,0.274,0.274,0.2742,0.2744,0.2744,0.2746,0.275,0.275,0.2917,0.0,0.0,0.0,0.0,0.0,0.0,0.0,0.0,0.0,0.0,0.0,0.0,0.0,0.0,0.0,0.0,0.0,0.0,0.0,0.0,0.0,0.0,0.0,0.3815,0.0,0.3815,0.3521,0.3345,0.3345,0.3015,0.2526,0.2009,0.0,0.0,0.0,0.0,0.0,0.0,0.0,0.0,0.0,0.0,0.0,0.0,0.0,0.0,-0.3441,-0.3692,-0.3666,-0.3372,-0.3664,-0.3997,-0.4301,-0.4301,-0.4454,-0.4692,-0.4692,-0.4715,-0.4708,-0.4765,-0.4764,0.0,-0.4759,-0.4755,-0.4803,-0.4962,-0.5047,-0.5096,-0.5246,-0.5326,-0.538,-0.5656,-0.571,-0.5768,0.0,0.0,0.0,0.0,0.0,0.0,0.0,0.0,0.0,0.0,-0.157,-0.1402,-0.129,-0.0729,-0.0224,0.0,0.0,0.0,0.0,0.0,0.0,0.0,0.0,0.0,0.3026,0.3251,0.3363,0.3363,0.3363,0.3342,0.3298,0.3298,0.3278,0.3238,0.3238,0.3261,0.3298,0.3298,0.3324,0.3363,0.3363,0.3419,0.0,0.0,0.0,0.0,0.3587,0.3587,0.0,0.0,0.0,0.0,0.0,0.0,0.0,0.0,0.3587,0.3587,0.3587,0.0,0.3591,0.3605,0.3609,0.3613,0.0,0.363,0.363,0.363,0.0,0.0,0.3516,0.3222,0.0,0.0,0.0,0.0,0.0,0.0,0.0,0.0,0.0,0.0,0.0,0.0,0.0,0.0,0.0,-0.2726,-0.3035,-0.3095,-0.309,-0.3019,-0.3089,-0.3154,-0.3273,-0.3273,-0.3386,-0.3669,-0.3669,-0.3781,-0.4062,-0.4294,-0.4383,-0.4277,-0.4564,-0.4645,-0.4588,-0.4627,-0.462,-0.4618,-0.4713,-0.4706,-0.4761,-0.5041,-0.5096,-0.5154,0.0,0.0,0.0,0.0,0.0,0.0,0.0,0.0,0.0,0.0,0.0,0.0,0.0,0.0,0.0,0.0,0.0,0.0,0.0,0.0,0.0,0.0,0.0,0.3194,0.3306,0.3531,0.3587,0.3587,0.3559,0.3529,0.3496,0.347,0.3441,0.3413,0.3413,0.3429,0.3459,0.3485,0.3515,0.3548,0.3576,0.0,0.0,0.0,0.0,0.0,0.3587,0.3587,0.0,0.3587,0.3587,0.3587,0.0,0.0,0.0,0.0,0.3587,0.3587,0.3587,0.3587,0.3587,0.3587,0.3587,0.3587,0.3587,0.0,0.0,0.0,0.0,0.0,0.0,0.0,0.0,0.0,0.0,0.0,0.0,0.0,0.0,0.0,0.0,0.0,0.0,0.0,0.0,0.0,0.0,-0.1927,-0.2236,-0.2413,-0.2405,-0.2213,-0.2213,-0.2455,-0.2884,-0.2884,-0.2932,-0.3084,-0.3084,-0.3132,-0.3284,-0.3455,-0.3553,-0.3469,-0.3636,-0.373,-0.3699,-0.381,-0.3921,-0.4089,-0.4203,-0.4369,-0.4536,-0.4648,-0.4706,-0.4761,0.0,0.0,0.0,0.0,0.0,0.0,0.0,0.0,0.0,0.0,0.0,0.0,0.0,0.0,0.0,0.0,0.0,0.0,0.0,0.0,0.0,0.0,0.3194,0.3306,0.3587,0.3587,0.3587,0.3587,0.3526,0.3492,0.3482,0.3425,0.3394,0.3384,0.3384,0.339,0.3402,0.3459,0.3489,0.3501,0.3618,0.0,0.0,0.0,0.0,0.0,0.0,0.0,0.0,0.3754,0.3754,0.3754,0.3754,0.0,0.0,0.0,0.0,0.0,0.3754,0.3754,0.3699,0.3643,0.3587,0.3587,0.0,0.0,0.0,0.0,0.0,0.0,0.0,0.0,0.0,0.0,0.0,0.0,0.0,0.0,0.0,0.0,0.0,0.0,0.0,0.0,0.0,0.0,0.0,-0.0922,-0.1227,-0.1519,-0.1509,-0.1203,-0.1203,-0.1614,-0.2454,-0.257,-0.2612,-0.2575,-0.2575,-0.2558,-0.2581,-0.2581,-0.2581,-0.2581,0.0,0.0,-0.2637,-0.2859,-0.3139,-0.3477,-0.3701,-0.3979,-0.4257,-0.4257,-0.4313,-0.4313,0.0,0.0,0.0,0.0,0.0,0.0,0.0,0.0,0.0,0.0,0.0,0.0,0.0,0.0,0.0,0.0,0.0,0.0,0.0,0.0,0.0,0.3531,0.3531,0.3531,0.3587,0.3587,0.3587,0.3587,0.3526,0.3471,0.3424,0.3364,0.3308,0.3208,0.3208,0.3288,0.3339,0.3399,0.3452,0.3501,0.3842,0.0,0.0,0.0,0.0,0.0,0.0,0.0,0.0,0.4369,0.4369,0.4369,0.4369,0.0,0.0,0.0,0.0,0.0,0.4369,0.4369,0.4257,0.3755,0.3587,0.3587,0.0,0.0,0.0,0.0,0.0,0.0,0.0,0.0,0.0,0.0,0.0,0.0,0.0,0.0,0.0,0.0,0.0,0.0,0.0,0.0,0.0,0.0,0.0,0.0056,-0.0226,-0.0283,-0.0282,-0.0225,-0.0225,-0.0282,-0.0452,-0.096,-0.1298,-0.152,-0.152,-0.1686,-0.1964,-0.1964,-0.1964,-0.1964,0.0,-0.2076,-0.23,-0.23,-0.2524,-0.2862,-0.2862,-0.2918,-0.3029,-0.325,-0.3305,-0.3361,0.0,0.0,0.0,0.0,0.0,0.0,0.0,0.0,0.0,0.0,0.0,0.0,0.0,0.0,0.0,0.0,0.0,0.0,0.0,0.0,0.3587,0.3587,0.3587,0.3587,0.3587,0.3587,0.3587,0.3587,0.3526,0.3467,0.341,0.3316,0.3207,0.323,0.3332,0.3449,0.3484,0.374,0.3907,0.3943,0.0,0.0,0.0,0.0,0.0,0.0,0.0,0.0,0.0,0.0,0.448,0.448,0.448,0.0,0.0,0.0,0.0,0.0,0.448,0.448,0.4424,0.4145,0.4089,0.4089,0.0,0.0,0.0,0.0,0.0,0.0,0.0,0.0,0.0,0.0,0.0,0.0,0.0,0.0,0.0,0.0,0.0,0.0,0.0,0.0,0.0,0.0,0.0,0.0,0.1009,0.0953,0.0953,0.0953,0.0785,0.0729,0.0729,0.028,-0.0168,-0.0617,-0.0617,-0.0673,-0.0841,-0.0841,-0.0897,-0.1065,0.0,-0.1234,-0.1514,-0.1514,-0.1683,-0.1964,-0.1964,-0.2076,-0.2244,-0.2355,-0.241,-0.241,0.0,0.0,0.0,0.0,0.0,0.0,0.0,0.0,0.0,0.0,0.0,0.0,0.0,0.0,0.0,0.0,0.0,0.0,0.0,0.0,0.3699,0.3699,0.3755,0.3755,0.3587,0.3587,0.3587,0.3587,0.3526,0.3461,0.3388,0.3332,0.3281,0.3281,0.3583,0.3685,0.3745,0.4145,0.4314,0.4328,0.0,0.0,0.0,0.0,0.0,0.0,0.0,0.0,0.0,0.0,0.0,0.0,0.0,0.0,0.0,0.4706,0.4706,0.4706,0.4706,0.4706,0.4706,0.4706,0.0,0.0,0.0,0.0,0.0,0.0,0.0,0.0,0.0,0.0,0.0,0.0,0.0,0.0,0.0,0.0,0.0,0.0,0.0,0.0,0.0,0.0,0.0,0.0,0.0,0.0,0.202,0.202,0.202,0.202,0.1739,0.1627,0.1627,0.1402,0.0953,0.0224,0.0224,0.0224,0.0224,0.0224,0.0112,-0.0112,-0.0112,-0.028,-0.0617,-0.0617,-0.0729,-0.1009,-0.1009,-0.1177,-0.1402,-0.1402,-0.1402,-0.1402,0.0,0.0,0.0,0.0,0.0,0.0,0.0,0.0,0.0,0.0,0.0,0.0,0.0,0.0,0.0,0.0,0.0,0.0,0.0,0.0,0.398,0.398,0.4258,0.4145,0.3587,0.3587,0.3587,0.3587,0.3526,0.3439,0.3326,0.3467,0.3584,0.3586,0.3833,0.3984,0.3992,0.4196,0.4314,0.4328,0.4698,0.0,0.0,0.0,0.0,0.0,0.0,0.0,0.0,0.0,0.0,0.0,0.0,0.0,0.5326,0.5326,0.5326,0.5326,0.5326,0.5326,0.5326,0.5326,0.4929,0.0,0.448,0.4479,0.0,0.4036,0.0,0.0,0.0,0.0,0.0,0.0,0.0,0.0,0.0,0.0,0.0,0.0,0.0,0.0,0.0,0.0,0.0,0.0,0.0,0.0,0.2637,0.2637,0.2637,0.2637,0.2637,0.2581,0.2581,0.2581,0.1964,0.0841,0.0841,0.0841,0.0841,0.0841,0.0841,0.0785,0.0785,0.0617,0.028,0.028,0.0168,-0.0112,-0.0112,-0.0112,-0.0112,-0.0112,-0.0112,-0.0112,0.0,0.0,0.0,0.0,0.0,0.0,0.0,0.0,0.0,0.0,0.0,0.0,0.0,0.0,0.0,0.0,0.0,0.0,0.0,0.3924,0.4092,0.4314,0.4424,0.4369,0.4145,0.4145,0.4145,0.4145,0.4033,0.3953,0.3901,0.3888,0.3835,0.3885,0.4135,0.4236,0.4295,0.461,0.4742,0.4801,0.5027,0.5163,0.0,0.0,0.0,0.0,0.0,0.0,0.0,0.0,0.5382,0.5382,0.5382,0.5382,0.5382,0.5382,0.5382,0.5382,0.5382,0.5382,0.5382,0.5382,0.5212,0.0,0.0,0.4873,0.465,0.437,0.0,0.0,0.0,0.0,0.0,0.0,0.0,0.0,0.0,0.0,0.0,0.0,0.0,0.0,0.0,0.0,0.0,0.0,0.0,0.0,0.3253,0.3253,0.3253,0.3253,0.3083,0.2971,0.2971,0.2806,0.2469,0.202,0.202,0.202,0.202,0.202,0.1795,0.1458,0.1458,0.1177,0.0729,0.0729,0.0673,0.0561,0.0561,0.0561,0.0561,0.0561,0.0561,0.056,0.0,0.0,0.0,0.0,0.0,0.0,0.0,0.0,0.0,0.0,0.0,0.0,0.0,0.0,0.0,0.0,0.0,0.0,0.4148,0.426,0.4372,0.4592,0.4706,0.4761,0.4761,0.4761,0.4704,0.448,0.4412,0.4338,0.4312,0.4233,0.4158,0.4135,0.4386,0.4537,0.4543,0.4883,0.5008,0.5075,0.5142,0.5282,0.0,0.0,0.0,0.0,0.0,0.0,0.0,0.0,0.5661,0.5661,0.5661,0.5661,0.5661,0.5661,0.5661,0.5661,0.5547,0.5547,0.5491,0.0,0.0,0.0,0.5382,0.5212,0.0,0.0,0.0,0.0,0.0,0.0,0.0,0.0,0.0,0.0,0.0,0.0,0.0,0.0,0.0,0.0,0.0,0.0,0.0,0.0,0.0,0.0,0.0,0.3587,0.3587,0.3587,0.3362,0.3242,0.3224,0.306,0.2942,0.2927,0.2927,0.2833,0.2693,0.2693,0.2469,0.2076,0.2076,0.1845,0.1447,0.1447,0.1386,0.127,0.1159,0.1159,0.1159,0.1159,0.1159,0.1157,0.0,0.0,0.0,0.0,0.0,0.0,0.0,0.0,0.0,0.0,0.0,0.0,0.0,0.0,0.0,0.0,0.0,0.0,0.4479,0.4761,0.4873,0.4929,0.5212,0.5382,0.5382,0.5382,0.5098,0.4536,0.4464,0.439,0.4312,0.4499,0.4519,0.4438,0.4686,0.4784,0.479,0.4932,0.5023,0.4988,0.5169,0.5188,0.5198,0.0,0.0,0.0,0.0,0.0,0.0,0.0,0.633,0.633,0.633,0.633,0.633,0.633,0.633,0.6219,0.588,0.5822,0.0,0.0,0.0,0.0,0.0,0.0,0.0,0.0,0.0,0.0,0.0,0.0,0.0,0.0,0.0,0.0,0.0,0.0,0.0,0.0,0.0,0.0,0.0,0.0,0.0,0.0,0.0,0.0,0.0,0.3586,0.3586,0.3586,0.3586,0.3556,0.3496,0.3496,0.3467,0.3413,0.3413,0.3149,0.2692,0.2692,0.2692,0.2692,0.2692,0.2667,0.2625,0.2625,0.2381,0.2077,0.1811,0.1704,0.1704,0.1704,0.1704,0.1704,0.0,0.0,0.0,0.0,0.0,0.0,0.0,0.0,0.0,0.0,0.0,0.0,0.0,0.0,0.0,0.0,0.0,0.0,0.4761,0.4873,0.4987,0.5268,0.5326,0.5382,0.5382,0.5382,0.5326,0.5156,0.5015,0.4928,0.4841,0.486,0.4822,0.4686,0.4784,0.4784,0.4786,0.4863,0.4912,0.5029,0.503,0.5235,0.5571,0.0,0.0,0.0,0.0,0.0,0.0,0.0,0.0,0.0,0.6879,0.6935,0.6879,0.6659,0.6604,0.6492,0.6216,0.0,0.0,0.0,0.0,0.0,0.0,0.0,0.0,0.0,0.0,0.0,0.0,0.0,0.0,0.0,0.0,0.0,0.0,0.0,0.0,0.0,0.0,0.0,0.0,0.0,0.0,0.0,0.0,0.0,0.0,0.3838,0.373,0.373,0.3571,0.3455,0.3437,0.3437,0.3429,0.3413,0.3413,0.3324,0.3194,0.3194,0.3086,0.2923,0.2923,0.2752,0.2524,0.2524,0.2463,0.2398,0.229,0.2237,0.2237,0.2237,0.2237,0.2287,0.0,0.0,0.0,0.0,0.0,0.0,0.0,0.0,0.0,0.0,0.0,0.0,0.0,0.0,0.0,0.0,0.0,0.0,0.0,0.5098,0.5212,0.5382,0.5382,0.5382,0.5382,0.5382,0.5382,0.5382,0.5326,0.5233,0.5106,0.5051,0.4957,0.4784,0.4784,0.4784,0.4784,0.4937,0.5019,0.5075,0.5265,0.5529,0.5838,0.0,0.0,0.0,0.0,0.0,0.0,0.0,0.0,0.0,0.7432,0.7543,0.749,0.7268,0.7213,0.716,0.6771,0.0,0.0,0.0,0.0,0.0,0.0,0.0,0.0,0.0,0.0,0.0,0.0,0.0,0.0,0.0,0.0,0.0,0.0,0.0,0.0,0.0,0.0,0.0,0.0,0.0,0.0,0.0,0.0,0.0,0.0,0.4047,0.394,0.394,0.3676,0.3557,0.3533,0.3429,0.3364,0.3341,0.3341,0.3341,0.3342,0.339,0.3305,0.3144,0.3122,0.3006,0.2793,0.2668,0.2608,0.2608,0.2503,0.2451,0.2451,0.2451,0.2451,0.2447,0.0,0.0,0.0,0.0,0.0,0.0,0.0,0.0,0.0,0.0,0.0,0.0,0.0,0.0,0.0,0.0,0.0,0.0,0.0,0.0,0.5493,0.5493,0.5493,0.5493,0.5437,0.5437,0.5437,0.5382,0.5382,0.5288,0.5108,0.5108,0.501,0.4834,0.4834,0.4834,0.4885,0.5138,0.524,0.5297,0.5693,0.595,0.6109,0.6432,0.0,0.0,0.0,0.0,0.0,0.0,0.0,0.0,0.8156,0.8156,0.8156,0.8156,0.81,0.7989,0.7432,0.0,0.0,0.0,0.0,0.0,0.0,0.0,0.0,0.0,0.0,0.0,0.0,0.0,0.0,0.0,0.0,0.0,0.0,0.0,0.0,0.0,0.0,0.0,0.0,0.0,0.0,0.0,0.0,0.0,0.0,0.424,0.424,0.424,0.3973,0.3783,0.3722,0.3466,0.3336,0.3281,0.3281,0.3281,0.3283,0.3345,0.3395,0.3392,0.3338,0.3313,0.3258,0.2948,0.2826,0.2826,0.2573,0.2522,0.2522,0.2521,0.2522,0.2522,0.0,0.0,0.0,0.0,0.0,0.0,0.0,0.0,0.0,0.0,0.0,0.0,0.0,0.0,0.0,0.0,0.0,0.0,0.0,0.0,0.6107,0.6107,0.6107,0.5993,0.5712,0.5712,0.5603,0.5382,0.5382,0.5288,0.5108,0.5108,0.5116,0.509,0.509,0.5238,0.5434,0.5486,0.5639,0.5844,0.5917,0.6297,0.6823,0.6998,0.7285,0.0,0.0,0.0,0.0,0.0,0.0,0.0,0.9375,0.9427,0.9372,0.9154,0.893,0.8647,0.0,0.7709,0.0,0.0,0.0,0.0,0.0,0.0,0.0,0.0,0.0,0.0,0.0,0.0,0.0,0.0,0.0,0.0,0.0,0.0,0.0,0.0,0.0,0.0,0.0,0.0,0.0,0.0,0.0,0.0,0.469,0.4489,0.4338,0.4338,0.4082,0.3972,0.3955,0.3854,0.3848,0.3831,0.3831,0.3831,0.3833,0.3409,0.3219,0.3217,0.3205,0.3199,0.3199,0.3135,0.313,0.313,0.3281,0.3332,0.3381,0.358,0.3681,0.3681,0.0,0.0,0.0,0.0,0.0,0.0,0.0,0.0,0.0,0.0,0.0,0.0,0.0,0.0,0.0,0.0,0.0,0.0,0.0,0.0,0.6495,0.6495,0.6495,0.6328,0.6049,0.6049,0.5993,0.5828,0.578,0.5571,0.5269,0.5269,0.5324,0.5388,0.5541,0.5639,0.5789,0.6089,0.6239,0.6392,0.6542,0.6914,0.7392,0.7617,0.7938,0.8345,0.8818,0.0,0.0,0.0,0.0,0.0,0.0,0.0,0.9761,0.9651,0.9482,0.924,0.0,0.0,0.0,0.0,0.0,0.0,0.0,0.0,0.0,0.0,0.0,0.0,0.0,0.0,0.0,0.0,0.0,0.0,0.0,0.0,0.0,0.0,0.0,0.0,0.0,0.0,0.0,0.0,0.0,0.4784,0.4784,0.4686,0.4585,0.4585,0.4336,0.4185,0.4185,0.4083,0.3982,0.3982,0.3982,0.3982,0.3982,0.3732,0.3581,0.3581,0.3581,0.3581,0.3581,0.3581,0.3581,0.3581,0.3734,0.3784,0.3784,0.3932,0.3982,0.3982,0.0,0.0,0.0,0.0,0.0,0.0,0.0,0.0,0.0,0.0,0.0,0.0,0.0,0.0,0.0,0.0,0.0,0.0,0.0,0.0,0.0,0.6937,0.6937,0.6771,0.6553,0.6497,0.6497,0.6442,0.6329,0.606,0.5799,0.5677,0.5672,0.5734,0.6039,0.6142,0.6242,0.6742,0.6942,0.7042,0.7288,0.7654,0.8014,0.8296,0.8591,0.8929,0.9356,0.9522,0.9548,0.9825,0.0,0.0,0.0,0.0,0.9877,0.9847,0.984,0.9646,0.0,0.0,0.0,0.0,0.0,0.0,0.0,0.0,0.0,0.0,0.0,0.0,0.0,0.0,0.0,0.0,0.0,0.0,0.0,0.0,0.0,0.0,0.0,0.0,0.0,0.0,0.0,0.0,0.0,0.4935,0.4885,0.4885,0.4834,0.4784,0.4585,0.4487,0.4487,0.4234,0.4133,0.4133,0.4133,0.4133,0.4133,0.4133,0.4083,0.3982,0.3982,0.3982,0.3982,0.3982,0.4033,0.4085,0.4133,0.4183,0.4234,0.4284,0.4284,0.4284,0.0,0.0,0.0,0.0,0.0,0.0,0.0,0.0,0.0,0.0,0.0,0.0,0.0,0.0,0.0,0.0,0.0,0.0,0.7496,0.0,0.0,0.7823,0.7823,0.7715,0.744,0.744,0.7326,0.7102,0.6868,0.6859,0.6954,0.6383,0.6164,0.6287,0.6589,0.6842,0.7039,0.7385,0.7637,0.7839,0.8134,0.8393,0.8674,0.8921,0.9038,0.913,0.9503,0.9673,0.9752,1.0194,1.0307,0.0,0.0,0.0,1.0279,1.0172,0.9918,0.9704,0.0,0.0,0.0,0.0,0.0,0.0,0.0,0.0,0.0,0.0,0.0,0.0,0.0,0.0,0.0,0.0,0.0,0.0,0.0,0.0,0.0,0.0,0.0,0.0,0.0,0.0,0.0,0.0,0.5484,0.5386,0.514,0.514,0.5037,0.4784,0.4784,0.4734,0.4734,0.4734,0.4684,0.4684,0.4684,0.4684,0.4684,0.4684,0.4435,0.3982,0.3982,0.3982,0.3982,0.3982,0.4135,0.4386,0.4585,0.4836,0.509,0.5286,0.5386,0.5386,0.0,0.0,0.0,0.0,0.0,0.0,0.0,0.0,0.0,0.0,0.0,0.0,0.0,0.0,0.0,0.7435,0.7823,0.8269,0.8602,0.8878,0.893,0.8768,0.8595,0.8374,0.81,0.7934,0.7768,0.7654,0.7561,0.0,0.0,0.7476,0.7293,0.7083,0.7338,0.764,0.7882,0.818,0.8329,0.8482,0.8581,0.8779,0.9038,0.9118,0.9245,0.9415,0.9689,0.98,0.988,1.0168,1.0282,1.0282,1.0282,0.0,0.0,0.0,0.0,0.0,0.0,0.0,0.0,0.0,0.0,0.0,0.0,0.0,0.0,0.0,0.0,0.0,0.0,0.0,0.0,0.0,0.0,0.0,0.0,0.0,0.0,0.0,0.0,0.0,0.0,0.0,0.0,0.0,0.5887,0.5789,0.5641,0.5489,0.5386,0.5233,0.5233,0.5233,0.5233,0.5087,0.5037,0.5037,0.5186,0.5233,0.5233,0.5233,0.5035,0.4686,0.4686,0.4736,0.4885,0.4885,0.4985,0.5087,0.5388,0.5539,0.5691,0.5937,0.6034,0.6034,0.0,0.0,0.0,0.0,0.0,0.0,0.0,0.0,0.0,0.0,0.0,0.0,0.0,0.0,0.0,0.0,0.8654,0.904,0.9489,0.9706,0.9706,0.9489,0.9258,0.9037,0.8816,0.8598,0.8413,0.8375,0.0,0.0,0.8265,0.8409,0.8329,0.0,0.8134,0.8333,0.8531,0.8779,0.8928,0.8928,0.8973,0.9126,0.9282,0.9282,0.943,0.9644,0.9774,0.9819,0.9847,1.0082,1.0143,1.0143,1.0143,1.0143,0.0,0.0,0.0,0.0,0.0,0.0,0.0,0.0,0.0,0.0,0.0,0.0,0.0,0.0,0.0,0.0,0.0,0.0,0.0,0.0,0.0,0.0,0.0,0.0,0.0,0.0,0.0,0.0,0.0,0.0,0.0,0.0,0.6415,0.6251,0.6103,0.5901,0.5753,0.5706,0.5706,0.5654,0.5605,0.5363,0.5264,0.5313,0.5534,0.5695,0.5748,0.5774,0.5737,0.5591,0.5441,0.5539,0.5784,0.5784,0.5837,0.5937,0.6139,0.6242,0.6339,0.6587,0.6684,0.6734,0.0,0.0,0.0,0.0,0.0,0.0,0.0,0.0,0.0,0.0,0.0,0.0,0.8779,0.9096,0.9323,0.9323,0.9596,0.9761,0.9761,0.9816,0.9816,0.9761,0.9761,0.0,0.9761,0.9706,0.9625,0.9413,0.0,0.0,0.9035,0.8857,0.8878,0.9084,0.8878,0.8775,0.8775,0.0,0.0,0.0,0.0,0.9579,0.9579,0.9579,0.9579,0.9579,0.9591,0.964,0.9669,0.9843,0.99,0.99,0.0,0.0,0.0,0.0,0.0,0.0,0.0,0.0,0.0,0.0,0.0,0.0,0.0,0.0,0.0,0.0,0.0,0.0,0.0,0.0,0.0,0.0,0.0,0.0,0.0,0.0,0.0,0.0,0.0,0.0,0.0,0.0,0.0,0.0,0.7168,0.6853,0.6381,0.6381,0.6239,0.6008,0.596,0.5863,0.5623,0.5389,0.5389,0.5576,0.5779,0.5981,0.6182,0.6289,0.6489,0.6692,0.6192,0.6089,0.6337,0.6337,0.6489,0.6745,0.6745,0.6892,0.7185,0.7434,0.7531,0.758,0.0,0.0,0.0,0.0,0.0,0.0,0.0,0.0,0.0,0.0,0.0,0.0,0.0,0.953,0.9651,0.9651,0.9926,1.0202,1.0363,1.0363,1.0363,1.0363,1.0198,1.0147,1.0147,0.9763,0.9568,0.9509,0.0,0.939,0.938,0.9506,0.9624,0.9677,0.9229,0.913,0.9327,0.9575,0.0,0.0,0.0,0.0,0.0,0.0,0.0,0.0,0.0,0.0,0.0,0.0,0.0,0.0,0.0,0.0,0.0,0.0,0.0,0.0,0.0,0.0,0.0,0.0,0.0,0.0,0.0,0.0,0.0,0.0,0.0,0.0,0.0,0.0,0.0,0.0,0.0,0.0,0.0,0.0,0.0,0.0,0.0,0.0,0.0,0.0,0.0,0.0,0.0,0.7543,0.7352,0.7214,0.7076,0.6982,0.6791,0.6502,0.6125,0.6225,0.6272,0.6317,0.6552,0.6813,0.706,0.7107,0.727,0.751,0.7318,0.7222,0.7182,0.7335,0.7487,0.759,0.7736,0.7885,0.7982,0.828,0.8375,0.8375,0.0,0.0,0.0,0.0,0.0,0.0,0.0,0.0,0.0,0.9208,0.0,0.0,0.0,0.0,1.0088,1.0088,1.0308,1.0527,1.0692,1.0692,1.0692,1.0692,1.0527,1.0394,1.0338,1.0054,0.9884,0.9772,0.9852,0.986,0.0,1.0028,1.0117,1.0117,0.9776,0.9723,0.0,0.0,0.0,1.0167,0.0,0.0,1.0117,0.0,0.0,0.0,0.0,0.0,0.0,0.0,0.0,0.0,0.0,0.0,0.0,0.0,0.0,0.0,0.0,0.0,0.0,0.0,0.0,0.0,0.0,0.0,0.0,0.0,0.0,0.0,0.0,0.0,0.0,0.0,0.0,0.0,0.0,0.0,0.0,0.0,0.0,0.0,0.0,0.0,0.0,0.0,0.0,0.0,0.8127,0.7947,0.7809,0.7721,0.7392,0.7066,0.6786,0.6839,0.6934,0.6977,0.73,0.7559,0.7802,0.7948,0.811,0.8294,0.834,0.8222,0.7927,0.8126,0.8275,0.8376,0.8519,0.8616,0.8616,0.8908,0.9001,0.9001,0.0,0.0,0.0,0.0,0.0,0.0,0.0,0.0,0.903,0.945,0.0,0.0,0.0,0.0,0.0,1.0747,1.0747,1.0747,1.0747,1.0747,1.0747,1.0747,1.0747,1.0611,1.044,1.0695,1.0621,1.031,1.0555,1.0602,1.0413,1.0413,1.0408,1.0408,1.0462,1.0462,1.0462,0.0,1.0413,1.0413,0.0,1.0413,1.0413,0.0,0.0,0.0,1.0413,1.0413,0.0,1.0413,0.0,0.0,0.0,0.0,0.0,0.0,0.0,0.0,0.0,0.0,0.0,0.0,0.0,0.0,0.0,0.0,0.0,0.0,0.0,0.0,0.0,0.0,0.0,0.0,0.0,0.0,0.0,0.0,0.0,0.0,0.0,0.0,0.0,0.0,0.0,0.0,0.9008,0.8819,0.8636,0.8636,0.8504,0.8241,0.7797,0.7533,0.7533,0.7272,0.7272,0.7533,0.796,0.8219,0.8458,0.881,0.9029,0.9033,0.9262,0.9114,0.8641,0.8652,0.8804,0.9045,0.9045,0.9045,0.9045,0.9325,0.9418,0.9465,0.0,0.0,0.0,0.0,0.0,0.0,0.9965,0.9965,0.9982,0.0,0.0,0.0,1.0806,1.1156,1.135,1.135,1.135,1.135,1.135,1.135,1.135,1.135,1.135,1.1263,1.1078,1.0988,1.085,1.061,1.0517,1.0465,1.0413,1.0801,1.1002,0.0,1.1389,1.1536,1.1536,1.0953,0.0,1.0703,1.09,1.085,0.0,0.0,0.0,0.0,0.0,1.0413,1.0413,0.0,1.0511,1.0703,0.0,0.0,0.0,0.0,0.0,0.0,1.1194,0.0,0.0,0.0,0.0,0.0,0.0,0.0,0.0,0.0,0.0,0.0,0.0,0.0,0.0,0.0,0.0,0.0,0.0,0.0,0.0,0.0,0.0,0.0,0.0,0.0,0.0,0.0,0.9288,0.9174,0.9126,0.9126,0.8995,0.8736,0.86,0.8464,0.8285,0.8237,0.8285,0.8512,0.8605,0.8806,0.9076,0.9176,0.9197,0.9242,0.9286,0.9326,0.9339,0.9439,0.9507,0.9558,0.9558,0.9558,0.96,0.9647,0.9693,0.9693,0.0,0.0,0.0,0.0,0.0,1.0708,1.0708,1.0659,1.056,0.0,0.0,0.0,1.1212,1.1486,1.1623,1.1623,1.1623,1.1623,1.1623,1.1678,1.1697,1.1616,1.1715,1.1692,1.1367,1.1395,1.1286,1.1084,1.1063,1.1047,1.1047,1.1389,1.1541,1.1536,0.0,0.0,0.0,0.0,0.0,0.0,1.1194,0.0,0.0,1.0949,1.085,0.0,0.0,0.0,1.0708,1.0708,1.085,0.0,0.0,0.0,0.0,0.0,0.0,0.0,0.0,0.0,0.0,0.0,0.0,0.0,1.1194,1.1194,0.0,0.0,0.0,0.0,0.0,0.0,0.0,0.0,0.0,0.0,0.0,0.0,0.0,0.0,0.0,0.0,0.0,1.0164,1.0077,1.0077,0.9951,0.9864,0.9864,0.9694,0.9519,0.9345,0.9174,0.8995,0.8903,0.8903,0.8951,0.9087,0.917,0.9257,0.9432,0.9646,0.9733,0.9733,0.9825,0.9951,1.0052,1.0121,1.0039,0.9863,0.9863,0.9953,0.9994,0.9994,1.0084,1.0175,0.0,0.0,0.0,1.1243,1.1292,1.1292,1.1292,1.1096,1.0949,0.0,1.1102,1.1339,1.1711,1.1773,1.1787,1.1787,1.1787,1.1778,1.1755,1.1969,1.199,1.1792,1.2038,1.2063,1.1676,1.1917,1.1909,1.1736,1.198,1.2078,1.2078,1.2127,1.2127,1.2127,0.0,0.0,0.0,0.0,0.0,1.1731,1.1438,1.1292,0.0,0.0,1.1292,1.1292,1.1247,1.1243,1.1243,1.1194,1.1194,0.0,0.0,0.0,0.0,0.0,1.1292,0.0,0.0,0.0,0.0,0.0,0.0,0.0,1.1194,1.1179,1.1161,0.0,0.0,0.0,0.0,0.0,0.0,0.0,0.0,0.0,0.0,0.0,0.0,0.0,0.0,0.0,1.0684,1.0684,1.0684,1.0684,1.0684,1.0684,1.0684,1.0294,1.0081,1.0081,0.9694,0.9432,0.9432,0.9432,0.9432,0.9476,0.965,0.9733,0.9733,1.0164,1.0337,1.0381,1.0598,1.0684,1.0684,1.0684,1.0467,1.0081,1.0081,1.0207,1.0337,1.0337,1.0511,1.0684,0.0,0.0,1.178,1.1829,1.1834,1.1834,1.1834,1.1785,1.1785,1.1785,1.2062,1.238,1.2689,1.2881,1.2989,1.2989,1.2989,1.2911,1.2728,1.2771,1.2783,1.2719,1.2812,1.2787,1.2815,1.2854,1.2748,1.257,1.2619,1.2613,1.2667,1.2807,1.2905,1.2905,1.3098,0.0,0.0,0.0,0.0,1.2759,1.2127,0.0,1.1834,1.1834,1.1834,1.1834,1.1585,1.1536,1.1487,1.1292,1.1194,1.1243,0.0,0.0,0.0,0.0,0.0,0.0,0.0,0.0,0.0,0.0,0.0,0.0,1.1243,1.1071,1.0953,0.0,0.0,0.0,0.0,0.0,0.0,0.0,0.0,0.0,0.0,0.0,0.0,0.0,0.0,0.0,1.0684,1.0684,1.0684,1.0684,1.0684,1.0684,1.0684,1.0598,1.0554,1.0554,1.0467,1.0429,1.0429,1.0429,1.0429,1.0429,1.0467,1.0467,1.0467,1.0598,1.0641,1.0641,1.0684,1.0684,1.0684,1.0684,1.0641,1.0554,1.0554,1.0598,1.0641,1.0641,1.0641,1.0684,0.0,0.0,1.2613,1.271,1.2759,1.2759,1.2759,1.2613,1.2565,1.2565,1.2718,1.2919,1.3148,1.3283,1.3351,1.3351,1.3351,1.3304,1.3237,1.333,1.3385,1.3398,1.3545,1.3679,1.3716,1.3711,1.3653,1.3528,1.3528,1.3528,1.3528,1.3624,1.3721,1.3721,1.3823,0.0,0.0,0.0,1.3624,1.3426,1.2559,0.0,1.2175,1.2029,1.198,1.1975,1.1834,1.1785,1.1785,1.1634,1.1585,0.0,0.0,1.1785,1.1829,0.0,1.198,1.198,0.0,0.0,0.0,1.1829,0.0,0.0,0.0,1.1302,1.1243,0.0,0.0,0.0,0.0,0.0,0.0,0.0,0.0,0.0,0.0,0.0,0.0,0.0,0.0,0.0,1.0997,1.0997,1.1041,1.117,1.13,1.1343,1.1343,1.1246,1.1203,1.1203,1.1068,1.0944,1.0857,1.0857,1.0814,1.0684,1.0684,1.0684,1.0684,1.0781,1.0868,1.0868,1.1084,1.1214,1.1214,1.13,1.1343,1.13,1.0987,1.0901,1.103,1.1154,1.1246,1.1343,1.3582,0.0,0.0,1.363,1.363,1.363,1.363,1.3437,1.3244,1.3195,1.321,1.3329,1.3536,1.3596,1.3674,1.3726,1.3726,1.3704,1.3654,1.3858,1.3948,1.399,1.4231,1.4381,1.4448,1.449,1.4532,1.4532,1.4586,1.4586,1.4586,1.4586,1.4586,1.4586,1.4586,0.0,0.0,0.0,0.0,1.4052,0.0,1.2759,1.2565,1.237,1.2273,1.2224,1.2127,1.2029,1.198,1.198,1.198,1.2029,1.2073,1.2078,0.0,0.0,0.0,0.0,0.0,0.0,0.0,0.0,0.0,1.1907,0.0,0.0,0.0,0.0,0.0,0.0,0.0,0.0,0.0,0.0,0.0,0.0,0.0,0.0,0.0,0.0,0.0,0.0,1.1354,1.1397,1.1527,1.1742,1.1957,1.208,1.208,1.194,1.1886,1.1843,1.1628,1.1413,1.1203,1.1203,1.1117,1.0949,1.0949,1.0949,1.0949,1.1132,1.1181,1.1224,1.157,1.1785,1.1871,1.1995,1.208,1.208,1.1424,1.1327,1.1542,1.1757,1.194,1.2123,1.4004,1.3811,0.0,0.0,1.4202,1.4202,1.4202,1.3956,1.3721,1.3491,1.3658,0.0,0.0,0.0,0.0,0.0,0.0,0.0,1.4552,0.0,1.4618,1.4599,1.4635,1.4773,1.4987,1.5159,1.5296,1.5296,1.5493,1.5635,1.5635,1.5635,1.5635,1.5635,1.5635,0.0,0.0,0.0,1.5159,0.0,1.4592,1.4016,0.0,1.3346,1.3195,1.2905,1.2516,1.2224,1.198,0.0,1.198,1.2029,0.0,1.237,1.2419,0.0,0.0,0.0,0.0,0.0,0.0,0.0,1.1978,0.0,0.0,0.0,0.0,0.0,0.0,0.0,0.0,0.0,0.0,0.0,0.0,0.0,0.0,0.0,0.0,0.0,0.0,0.0,0.0,1.1828,1.1914,1.1957,1.2203,1.2363,1.2363,1.2491,1.2491,1.232,1.2277,1.2155,1.1909,1.1909,1.1866,1.1866,1.1866,1.1866,1.1866,1.1866,1.1871,1.1871,1.1957,1.2118,1.232,1.2369,1.2454,1.2577,1.208,1.2032,1.2277,1.232,1.2448,1.2619,1.464,1.4592,0.0,0.0,1.4736,1.4736,1.4736,1.4688,1.455,0.0,0.0,0.0,0.0,0.0,0.0,0.0,0.0,1.5083,0.0,0.0,0.0,1.554,1.5581,1.5683,1.5974,1.6062,1.6109,1.6109,1.6204,1.6258,1.6258,1.6258,1.6258,1.6258,1.6258,0.0,1.6109,0.0,1.5967,0.0,0.0,0.0,0.0,1.3962,1.3582,1.3298,1.3104,1.2953,1.2856,0.0,1.2856,0.0,0.0,0.0,0.0,0.0,0.0,0.0,0.0,0.0,0.0,0.0,0.0,0.0,1.1626,0.0,1.135,0.0,0.0,0.0,0.0,0.0,0.0,0.0,1.1311,0.0,0.0,0.0,0.0,0.0,0.0,0.0,0.0,0.0,0.0,0.0,1.2966,1.3137,1.3137,1.3385,1.3464,1.3379,1.3258,1.3052,1.2802,1.2717,1.2546,1.2418,1.2418,1.2418,1.2418,1.2418,1.2418,1.2412,1.2589,1.2753,1.3009,1.3094,1.33,1.3506,1.33,1.313,1.3009,1.3094,1.3307,1.3525,1.5267,0.0,0.0,0.0,0.0,1.5267,1.522,1.5226,1.522,0.0,0.0,0.0,1.541,1.5404,0.0,0.0,1.5506,1.5594,0.0,0.0,1.5913,0.0,0.0,0.0,0.0,1.6683,1.673,1.673,1.6777,1.677,1.677,1.677,1.677,1.677,0.0,1.6777,1.673,0.0,0.0,1.6292,1.6109,1.5872,1.5527,1.4484,1.401,1.3829,1.3732,1.3732,1.3732,1.3732,1.3732,0.0,1.3646,0.0,0.0,0.0,0.0,0.0,1.3089,0.0,0.0,0.0,0.0,0.0,0.0,0.0,0.0,0.0,0.0,0.0,0.0,0.0,0.0,0.0,0.0,0.0,0.0,0.0,0.0,0.0,0.0,0.0,0.0,0.0,0.0,1.3392,1.3688,1.3899,1.3899,1.4146,1.4223,1.4181,1.3977,1.3815,1.3603,1.3434,1.3264,1.3094,1.3094,1.3088,1.3082,1.3082,1.3082,1.3082,1.33,1.3476,1.3688,1.3899,1.4153,1.4398,1.4433,1.4265,1.4026,1.3942,1.4117,1.4377,1.5784,1.5635,0.0,0.0,0.0,1.573,1.5547,1.5493,1.5445,0.0,0.0,0.0,0.0,0.0,0.0,0.0,0.0,1.6541,1.6581,0.0,1.6581,0.0,0.0,1.6581,0.0,0.0,1.6979,1.6979,1.7192,1.7279,1.7279,1.7279,1.7279,1.7279,1.7279,1.7153,1.6979,1.6979,1.6831,1.6581,1.6588,1.6386,1.6048,0.0,1.4688,1.464,1.4346,0.0,0.0,1.425,1.425,0.0,0.0,0.0,0.0,0.0,0.0,0.0,0.0,0.0,0.0,1.2527,0.0,0.0,0.0,0.0,1.2012,0.0,0.0,0.0,0.0,0.0,0.0,0.0,0.0,0.0,0.0,0.0,0.0,0.0,0.0,0.0,0.0,0.0,1.3773,1.4055,1.4265,1.4398,1.4398,1.4566,1.4608,1.4398,1.4398,1.4265,1.4097,1.4055,1.4068,1.4046,1.4046,1.4075,1.4055,1.4055,1.4055,1.4055,1.4055,1.4181,1.4398,1.4566,1.4824,1.509,1.5276,1.5477,1.5526,1.4692,1.4657,1.509,0.0,0.0,0.0,0.0,0.0,1.6298,1.6251,1.6204,0.0,0.0,0.0,0.0,0.0,1.648,1.6487,0.0,0.0,1.6683,1.6831,1.6878,0.0,0.0,0.0,1.7052,0.0,0.0,0.0,0.0,0.0,1.7279,1.7279,1.7279,1.7279,1.7279,0.0,1.7239,0.0,0.0,0.0,0.0,0.0,1.6683,1.6386,0.0,1.5588,1.5404,1.535,1.5302,0.0,1.5302,1.5132,1.4958,1.4862,1.4701,1.4533,1.4437,1.4142,0.0,0.0,0.0,1.3045,1.2911,0.0,0.0,0.0,0.0,0.0,0.0,0.0,0.0,0.0,0.0,0.0,0.0,0.0,0.0,0.0,0.0,1.3591,0.0,0.0,0.0,0.0,0.0,0.0,1.4936,1.5151,1.5276,1.5276,1.5492,1.5582,1.5541,1.536,1.5235,1.5144,1.5019,1.4977,1.4943,1.4943,1.4943,1.4977,1.4977,1.4977,1.4977,1.4977,1.5061,1.5276,1.5318,1.5533,1.5756,1.5831,1.5914,1.5914,1.5443,1.545,1.5756,1.6525,0.0,0.0,0.0,0.0,0.0,0.0,0.0,0.0,0.0,1.673,0.0,1.6817,0.0,1.6864,0.0,1.6864,1.6911,1.7113,1.7113,0.0,1.7279,1.7279,0.0,0.0,0.0,0.0,0.0,0.0,1.7279,1.7279,1.7279,1.7333,1.7426,0.0,1.752,1.7567,0.0,1.7567,0.0,0.0,1.7301,0.0,0.0,1.6527,1.6062,0.0,1.5994,1.5906,1.5906,1.5703,1.5393,1.5285,1.5167,1.4991,1.4838,1.4583,1.4306,1.422,1.391,0.0,1.347,1.3343,0.0,1.3222,0.0,0.0,0.0,0.0,0.0,0.0,0.0,0.0,0.0,0.0,0.0,0.0,1.4272,0.0,0.0,0.0,0.0,0.0,0.0,1.5416,1.5616,1.5782,1.5824,0.0,1.5997,1.6087,1.6087,1.5914,1.5824,1.5824,1.5699,1.5658,1.5658,1.5658,1.5658,1.5658,1.5658,1.5658,1.5658,1.5658,1.5775,1.594,1.6023,1.6196,1.6451,1.6541,1.6582,1.6492,1.6105,1.6154,1.6451,0.0,0.0,0.0,0.0,1.6629,0.0,0.0,0.0,1.673,0.0,1.7026,1.7113,1.7286,1.7333,1.7279,1.7279,1.7279,1.7279,1.7279,1.7279,0.0,0.0,1.7333,1.7326,1.7333,0.0,0.0,0.0,0.0,0.0,1.7333,1.7333,1.7473,1.7721,1.7721,0.0,1.8087,1.8087,1.8087,1.8087,1.8087,1.8087,1.8087,1.8071,1.7498,1.6655,1.6655,1.6411,1.6144,1.6144,1.5934,1.5581,1.5337,1.5275,1.5162,1.4867,1.4776,1.4692,1.4524,1.4482,1.4398,1.4223,1.4139,0.0,0.0,0.0,1.4139,0.0,0.0,0.0,0.0,0.0,0.0,0.0,0.0,0.0,0.0,0.0,0.0,0.0,0.0,0.0,0.0,1.5733,1.5824,1.6128,1.6128,0.0,0.0,0.0,1.617,1.617,1.617,1.617,1.617,1.617,1.617,1.617,1.617,1.617,1.617,1.617,1.617,1.617,1.617,1.6286,1.6476,1.6648,1.6894,1.7139,1.7351,1.7392,1.7351,1.6681,1.6722,1.7139,1.7034,1.734,1.7581,0.0,1.738,1.7192,0.0,0.0,0.0,0.0,1.7628,1.7535,1.7581,1.7426,1.7279,1.7279,1.7279,0.0,0.0,0.0,0.0,1.7581,1.7581,1.7667,1.7893,1.7893,0.0,1.7893,0.0,0.0,1.7893,1.7893,1.7947,0.0,0.0,0.0,1.8087,1.8087,1.8087,1.8087,1.8087,1.8087,0.0,0.0,1.7568,1.734,1.734,1.7086,1.6773,1.6773,1.6594,1.6311,1.6271,1.6077,1.586,1.5778,1.5616,1.5443,1.5401,1.5269,1.5144,1.5103,1.5061,1.5061,0.0,0.0,0.0,0.0,0.0,0.0,0.0,0.0,0.0,0.0,0.0,0.0,0.0,0.0,0.0,1.6402,0.0,0.0,0.0,1.6229,1.6312,1.6533,1.673,0.0,0.0,0.0,1.7066,1.7066,1.7066,1.7066,1.7066,1.7066,1.7066,1.7066,1.7066,1.7066,1.7066,1.7066,1.7066,1.7066,1.7066,1.7106,1.7147,1.7188,1.727,1.7351,1.7392,1.7595,1.7797,1.731,1.7229,1.7351,1.7554,0.0,0.0,1.8087,0.0,0.0,1.7854,0.0,0.0,1.8087,1.7955,0.0,1.7854,1.7761,1.766,1.766,1.766,0.0,1.766,0.0,0.0,1.7854,1.7854,1.7955,1.8087,1.8087,0.0,1.8087,0.0,0.0,1.8265,0.0,0.0,0.0,0.0,1.8643,0.0,1.8743,1.8743,1.8743,1.8743,0.0,0.0,1.8202,1.789,1.758,1.75,1.7201,1.6837,1.6837,1.6609,1.6377,1.6377,1.624,1.6087,1.6087,1.6004,1.5873,1.5873,1.5782,1.5699,1.5699,1.5699,1.5699,1.5699,1.5699,1.5699,0.0,1.5699,1.5699,0.0,0.0,0.0,0.0,0.0,0.0,0.0,0.0,0.0,0.0,1.7139,0.0,0.0,1.6853,1.6894,1.6984,0.0,0.0,0.0,0.0,1.7392,1.7392,1.7392,1.7392,1.7392,1.7392,1.7392,1.7392,1.7392,1.7392,1.7392,1.7392,1.7392,1.7392,1.7392,1.7514,1.7676,1.7676,1.7797,1.7968,1.7968,1.8129,1.829,1.8161,1.804,1.7968,0.0,0.0,0.0,0.0,0.0,0.0,0.0,1.8272,0.0,1.8272,0.0,1.8226,1.8179,1.8179,1.8133,1.8087,0.0,1.8087,1.8087,1.8087,1.8133,1.8179,1.8179,1.8226,1.8272,1.8319,0.0,0.0,0.0,0.0,0.0,0.0,0.0,0.0,0.0,0.0,0.0,1.9679,1.9679,1.9671,1.9621,1.936,1.901,1.8705,1.8194,1.7592,1.7391,1.6996,1.6615,1.6615,1.6415,1.617,1.617,1.617,1.617,1.617,1.617,1.617,1.617,1.617,1.617,1.617,1.617,1.617,1.617,1.617,1.617,1.6211,1.6252,1.6252,0.0,0.0,0.0,0.0,0.0,0.0,0.0,0.0,0.0,0.0,0.0,0.0,0.0,0.0,0.0,0.0,0.0,0.0,0.0,0.0,1.7473,1.7473,1.7473,1.7473,1.7473,1.7473,1.7473,1.7473,1.7473,1.7473,1.7473,1.7514,1.7514,1.7514,1.7563,1.7797,1.8112,1.8112,1.8402,1.8772,1.8772,1.8772,1.886,1.9042,1.9051,1.89,0.0,0.0,0.0,0.0,0.0,1.9396,1.935,1.915,1.9104,1.9304,1.915,1.8912,1.8689,1.8542,1.8357,1.8133,1.8087,0.0,0.0,0.0,0.0,1.8643,1.8689,1.8874,1.935,1.9358,1.9358,0.0,0.0,0.0,0.0,0.0,0.0,0.0,0.0,0.0,2.0164,2.0164,0.0,2.013,1.9645,1.9387,1.9217,1.8357,1.7968,1.782,1.7474,1.7081,1.666,1.666,1.6621,1.6574,1.6574,1.6574,1.6574,1.6574,1.6574,1.6574,1.6574,1.6574,1.6574,1.6574,1.6574,1.6574,1.6574,1.6574,1.6656,1.6894,1.6935,1.6976,1.7147,0.0,0.0,0.0,0.0,0.0,0.0,0.0,0.0,0.0,0.0,0.0,0.0,0.0,0.0,0.0,0.0,0.0,0.0,0.0,1.7878,0.0,1.7878,0.0,0.0,0.0,1.7878,1.7878,1.7878,1.7878,1.7919,1.8121,1.8241,1.8233,1.8411,1.8612,1.8843,1.8843,1.8953,1.9183,1.9183,1.932,1.9487,1.9676,1.9863,1.9951,0.0,0.0,0.0,0.0,0.0,0.0,0.0,2.0147,0.0,1.9633,1.9487,1.9342,1.9212,1.9112,1.902,1.8881,1.8881,1.8881,1.8881,1.8881,1.8974,1.9212,1.9296,0.0,1.9762,1.9891,1.9936,1.9936,0.0,0.0,0.0,0.0,0.0,0.0,0.0,2.1015,0.0,0.0,0.0,2.0509,2.0237,1.9791,1.9221,1.8658,1.832,1.8124,1.7694,1.7424,1.7212,1.7098,1.7066,1.7066,1.7066,1.7066,1.7066,1.7066,1.7066,1.7066,1.7066,1.7066,1.7066,1.7066,1.7066,1.7066,1.7066,1.7066,1.7106,1.7221,1.727,1.731,1.7392,1.7514,0.0,0.0,0.0,0.0,0.0,0.0,0.0,0.0,0.0,0.0,0.0,0.0,0.0,0.0,0.0,0.0,0.0,0.0,1.8362,0.0,0.0,0.0,1.8362,0.0,1.8362,1.8362,1.8362,1.8362,1.8371,1.8603,1.8714,1.8723,1.8922,1.9201,1.9469,1.9745,1.9902,1.9971,1.9971,2.002,2.0137,2.0323,2.0566,2.0693,0.0,2.0464,0.0,0.0,2.0708,0.0,2.0925,2.1051,2.0871,2.0027,1.9899,1.9899,1.9853,1.9808,1.9808,1.9762,1.9762,1.9762,1.9762,1.9762,1.9762,1.9808,2.0019,2.0155,2.0201,2.0473,2.0609,0.0,0.0,0.0,0.0,0.0,0.0,0.0,0.0,0.0,0.0,0.0,2.1507,2.0978,2.0762,2.019,1.9365,1.9079,1.8786,1.8482,1.8103,1.7942,1.791,1.7716,1.7554,1.7392,1.7392,1.7392,1.7392,1.7392,1.7392,1.7392,1.7392,1.7392,1.7392,1.7392,1.7392,1.7392,1.7392,1.7392,1.7392,1.7473,1.7554,1.7635,1.7684,1.7797,0.0,0.0,0.0,0.0,0.0,0.0,0.0,0.0,0.0,0.0,0.0,0.0,0.0,0.0,0.0,0.0,1.8812,0.0,0.0,0.0,0.0,1.8812,1.8812,0.0,1.8812,1.8812,1.8812,1.8812,1.8851,1.9082,1.9192,1.9192,1.946,1.9814,2.0216,2.0605,2.0799,2.0876,2.0876,2.0876,2.0876,2.1098,2.1262,2.1349,0.0,0.0,0.0,0.0,0.0,0.0,2.1562,2.1597,2.1463,2.0952,2.0862,2.0826,2.0609,2.0609,2.0518,2.0246,2.0246,2.0246,2.0246,2.0246,2.0337,2.0609,2.0781,2.1006,2.1257,2.1472,2.1562,0.0,0.0,2.1597,0.0,0.0,0.0,0.0,0.0,0.0,0.0,2.2251,2.194,2.1631,2.0661,2.0185,2.0033,1.9463,1.9139,1.8922,1.8882,1.8763,1.8612,1.8571,1.8049,1.7392,1.7392,1.7392,1.7392,1.7392,1.7392,1.7392,1.7392,1.7392,1.7392,1.7392,1.7392,1.7392,1.7392,1.7392,1.7432,1.7619,1.8031,1.8362,1.8531,1.858,1.8652,0.0,0.0,0.0,0.0,0.0,0.0,0.0,0.0,0.0,0.0,2.0489,0.0,0.0,0.0,0.0,0.0,0.0,0.0,1.9222,1.9222,1.9222,1.9222,1.9222,1.9222,1.9222,1.9222,1.9222,1.9262,1.9627,1.9824,1.9824,2.0294,2.0722,2.1089,2.131,2.1502,2.1693,2.1693,2.1693,2.1731,2.1911,2.1987,2.2025,0.0,0.0,0.0,0.0,0.0,0.0,0.0,2.2132,2.2043,2.1856,2.1588,2.1374,2.1329,2.1284,2.1239,2.115,2.115,2.115,2.115,2.115,2.1195,2.1284,2.1553,2.1776,2.2008,2.223,2.2397,0.0,0.0,0.0,0.0,0.0,0.0,0.0,0.0,2.3493,2.3377,2.2942,2.249,2.1987,2.1262,2.0776,2.0407,2.0047,1.9863,1.9754,1.9478,1.932,1.921,1.9082,1.8683,1.817,1.804,1.8,1.7959,1.7797,1.7757,1.7757,1.7757,1.7757,1.7757,1.7757,1.7878,1.8,1.8,1.808,1.821,1.8282,1.8563,1.8803,1.8882,1.9091,1.9329,1.9508,0.0,0.0,0.0,0.0,0.0,0.0,0.0,0.0,0.0,0.0,0.0,0.0,0.0,0.0,0.0,0.0,0.0,2.0089,0.0,2.0089,2.0089,2.0089,2.0089,2.0089,2.0089,2.0089,2.0089,2.0362,2.0634,2.0876,2.13,2.1606,2.1769,2.1959,2.2111,2.2138,2.2138,2.2138,2.2176,2.2252,2.2365,2.2478,2.2397,0.0,2.2441,0.0,2.253,2.253,2.2618,2.2662,2.2706,2.2706,2.2485,2.222,2.1954,2.1909,2.1909,2.1909,2.1909,2.1909,2.1909,2.1963,2.1998,2.1998,2.2362,0.0,2.2706,2.2969,2.3144,2.3309,2.3309,0.0,0.0,0.0,0.0,0.0,2.397,2.3899,2.3705,2.3271,2.2703,2.2048,2.161,2.1164,2.076,2.0615,2.0537,2.0411,2.0108,1.9951,1.9872,1.9666,1.9399,1.9091,1.8723,1.8523,1.8442,1.8241,1.8201,1.8201,1.8201,1.8201,1.8201,1.8201,1.8362,1.8482,1.8563,1.8692,1.8812,1.894,1.9121,1.9271,1.9359,1.9676,1.9951,2.0177,0.0,0.0,0.0,0.0,0.0,0.0,2.1655,2.1769,2.1769,0.0,0.0,0.0,0.0,0.0,0.0,0.0,0.0,0.0,0.0,0.0,2.0954,2.0954,2.0954,2.0954,2.0954,2.0954,2.0954,2.1136,2.1454,2.1769,2.2063,2.2214,2.2289,2.244,2.2515,2.259,2.259,2.2628,2.2665,2.2665,2.2777,2.2964,2.2397,2.2397,2.2485,2.2759,2.2803,2.2838,2.3057,2.3319,2.3503,2.3503,2.3667,2.3406,2.2485,2.2388,2.2388,2.2388,2.2388,2.2388,2.2388,2.2618,2.2803,0.0,0.0,2.3503,2.3503,2.3667,2.3797,2.3797,0.0,0.0,2.3797,0.0,2.4206,2.4206,2.4411,2.4122,2.346,2.3063,2.2483,2.1779,2.1347,2.1215,2.1205,2.1167,2.1079,2.0905,2.0905,2.075,2.0566,2.0342,2.0264,2.0147,1.928,1.8851,1.87,1.87,1.87,1.87,1.87,1.87,1.87,1.87,1.87,1.874,1.8962,1.9002,1.9121,1.9527,1.9754,1.9981,2.0225,2.045,2.0634,2.0867,0.0,0.0,0.0,0.0,0.0,0.0,2.2252,2.2402,2.2402,0.0,0.0,0.0,0.0,0.0,0.0,0.0,0.0,2.1769,2.1807,0.0,2.1807,2.1807,2.1807,2.1807,2.1807,2.1807,2.1807,2.1987,2.2214,2.2402,2.2402,2.2515,2.2703,2.2703,2.2815,2.3001,2.3001,2.3113,2.3298,2.3298,2.3409,2.3604,2.2882,2.3013,2.3198,2.3276,2.3406,2.3493,2.358,2.3667,2.3711,2.3711,2.3754,2.3667,2.3406,2.3353,2.3353,0.0,2.3353,2.3353,0.0,2.344,2.3493,2.3493,2.3624,2.3807,2.398,2.4024,2.4153,2.4282,0.0,0.0,0.0,2.4368,2.4411,2.4401,2.4177,2.396,2.3732,2.2969,2.2467,2.2253,2.1801,2.1617,2.1578,2.1474,2.1349,2.131,2.1156,2.1041,2.1002,2.0935,2.0809,2.0673,2.0401,1.9824,1.9289,1.9152,1.9112,1.9112,1.9112,1.9112,1.9112,1.9112,1.9201,1.9369,1.9548,1.9863,2.0137,2.0255,2.0537,2.0809,2.0896,2.1195,2.1492,2.1683,2.1759,0.0,2.2111,0.0,0.0,0.0,2.2553,2.259,2.259,2.259,0.0,0.0,0.0,0.0,0.0,0.0,0.0,0.0,2.2214,0.0,2.2214,2.2214,2.2214,2.2214,2.2214,2.2214,2.2214,2.2402,2.2628,2.2815,2.2964,2.315,2.3298,2.3298,2.3335,2.3409,2.3409,2.3446,2.3482,2.3482,2.3567,2.3593,2.3232,2.345,2.3624,2.3624,2.3711,2.3797,2.3797,2.3894,2.3927,2.3927,2.4013,2.4057,2.4057,2.4057,0.0,2.3841,2.3797,2.3797,2.3797,2.3884,2.3927,2.3927,2.4013,2.4153,2.4292,2.4325,0.0,2.4497,2.4497,2.4497,2.4497,2.4497,2.4404,2.4281,2.4002,2.3681,2.3318,2.2739,2.2397,2.2211,2.1998,2.1911,2.1921,2.1845,2.1845,2.1807,2.1693,2.1655,2.1655,2.154,2.1454,2.1328,2.1252,2.0876,2.0333,1.9893,1.9775,1.9775,1.9775,1.9775,1.9775,1.9775,1.9863,2.0069,2.0342,2.0683,2.0954,2.1031,2.131,2.154,2.154,2.1807,2.2063,2.2176,2.2289,2.2365,2.2515,0.0,0.0,0.0,0.0,0.0,0.0,2.3001,2.3001,0.0,0.0,0.0,0.0,0.0,0.0,2.2628,2.2628,2.2628,2.2628,2.2628,2.2628,2.2628,2.2703,2.2777,2.2852,2.2964,2.3113,2.3224,2.3372,2.3482,2.3593,2.3593,2.3593,2.3593,2.3593,2.3641,2.3714,2.3787,2.3861,2.3934,2.3503,2.3677,2.3841,0.0,2.3841,2.3841,2.3841,2.4067,2.4206,2.4206,2.4368,2.4497,2.4497,2.4497,2.4325,2.3884,0.0,0.0,2.3841,2.4067,2.4206,2.4206,2.4411,2.4497,2.4497,2.4497,2.4497,2.4497,2.4497,2.4497,2.454,2.4509,2.4271,2.3961,2.3857,2.3349,2.253,2.2499,2.2239,2.1845,2.2035,2.2101,2.2138,2.2327,2.2402,2.2402,2.2402,2.2402,2.2365,2.2176,2.2101,2.2111,2.1921,2.1845,2.1683,2.0915,2.0683,2.0683,2.0683,2.0683,2.0683,2.0683,2.0683,2.0799,2.1167,2.1436,2.1617,2.1807,2.1997,2.2138,2.2138,2.2327,2.244,2.244,2.2628,2.274,2.274,0.0,0.0,0.0,0.0,0.0,2.3335,2.3482,2.3593,0.0,0.0,0.0,0.0,0.0,2.2852,2.3038,2.3038,2.3038,2.3038,2.3038,2.3038,2.3038,2.3224,2.3409,2.3593,2.3593,2.3593,2.3641,2.3641,2.3641,2.3677,2.3677,2.3666,2.3666,2.3666,2.3787,2.397,2.4189,2.437,2.4562,0.0,0.0,2.412,2.412,2.4239,2.4315,2.4315,2.4368,2.4411,2.4411,2.4454,2.4497,2.4497,2.4497,2.4454,2.4325,2.4315,2.4315,2.4315,2.4411,2.4411,2.4411,2.4454,2.4497,2.4497,2.4497,2.4497,2.4497,2.4497,2.4615,2.4818,2.4441,2.4304,2.4344,2.3615,2.3171,2.2939,2.2569,2.2357,2.2252,2.2327,2.2327,2.2327,2.2365,2.2402,2.2402,2.2402,2.2402,2.2402,2.2327,2.2327,2.2327,2.2289,2.2252,2.2138,2.1645,2.154,2.154,2.154,2.154,2.154,2.154,2.1645,2.1759,2.1883,2.2025,2.2214,2.2252,2.2402,2.2553,2.2553,2.2703,2.2852,2.2852,2.3038,2.315,2.315,2.3335,0.0,0.0,2.3482,2.353,2.353,2.3556,2.3593,0.0,0.0,0.0,2.3593,2.3446,2.3409,2.3457,2.3446,2.3446,2.3446,2.3446,2.3446,2.3446,2.3519,2.3556,2.3593,2.3593,2.3666,2.3824,2.397,2.4164,2.4309,2.4454,2.4538,2.4538,2.4538,2.4538,2.461,2.4743,2.485,2.4921,2.398,2.4153,2.4368,2.4497,2.4615,2.47,2.4828,2.4828,2.4828,2.4828,2.4828,2.4828,2.4828,2.4828,2.4828,2.4828,2.4615,2.4497,2.4497,2.4497,2.454,2.4658,2.47,2.4743,2.4828,2.4828,2.4828,2.4828,2.4629,2.4567,2.4724,2.4259,2.3972,2.382,2.3349,2.2988,2.2775,2.2509,2.2402,2.2402,2.2515,2.2553,2.2553,2.2628,2.2665,2.2665,2.2665,2.274,2.2815,2.2815,2.2852,2.2964,2.2964,2.2964,2.2927,2.2703,2.2365,2.2063,2.2063,2.2063,2.2063,2.2063,2.2138,2.2252,2.2365,2.2515,2.2703,2.2777,2.2964,2.3113,2.3113,2.3187,2.3261,2.3261,2.3372,2.3446,2.3446,2.353,2.3593,2.3593,2.3677,2.3751,2.3751,2.3824,2.3861,2.3861,2.3861,0.0,2.3861,2.3861,2.3787,2.3604,2.3593,2.3593,2.3593,2.3593,2.3641,2.3751,2.3824,2.3934,2.4007,2.4116,2.42,2.4309,2.4418,2.455,2.4718,2.4862,2.4945,2.5016,2.5016,2.5016,2.5052,2.5324,2.5418,2.5453,2.4368,2.4497,2.4658,2.4903,2.4946,2.4988,2.5158,2.52,2.52,2.52,2.52,2.52,2.52,2.52,2.52,2.52,2.4828,2.4625,2.4625,2.4625,2.47,2.4946,2.4946,2.5031,2.52,2.52,2.5168,2.5094,2.4721,2.4539,2.4495,2.4025,2.3616,2.326,2.3195,2.2938,2.259,2.259,2.259,2.259,2.2777,2.2852,2.2852,2.3038,2.3075,2.3075,2.3075,2.3187,2.3335,2.3335,2.3446,2.3593,2.3593,2.3593,2.3593,2.3593,2.3113,2.259,2.259,2.259,2.259,2.259,2.259,2.2628,2.2815,2.2964,2.315,2.3298,2.3482,2.3593,2.3593,2.3593,2.3593,2.3593,2.3641,2.3641,2.3641,0.0,2.3677,2.3677,2.3861,2.397,2.397,2.4164,2.4309,2.4309,2.4309,2.4309,2.4309,2.4309,2.4116,2.3787,2.3714,2.3714,2.3751,2.3787,2.3861,2.4043,2.42,2.4381,2.4598,2.4742,2.4861,2.4897,2.4897,2.5016,2.5123,2.5158,2.53,2.5476,2.5476,2.5476,2.5523,2.5898,2.605,2.6107,2.5031,2.5073,2.5115,2.5158,2.5158,2.5158,2.52,2.52,2.52,2.52,2.52,2.52,2.52,2.52,2.52,2.52,2.5115,2.5073,2.5073,2.5073,2.5115,2.5158,2.5158,2.5158,2.52,2.52,2.5009,2.4595,2.4696,2.4654,2.4404,2.411,2.4029,2.4104,2.3709,2.3486,2.3409,2.3409,2.3409,2.3409,2.3446,2.3446,2.3446,2.3482,2.3519,2.3519,2.3519,2.353,2.3556,2.3556,2.3556,2.3593,2.3593,2.3593,2.3593,2.3593,2.3519,2.3409,2.3409,2.3409,2.3409,2.3409,2.3409,2.3409,2.3446,2.3482,2.353,2.3567,2.3593,2.3593,2.3593,2.3593,2.3593,2.3593,2.374,2.3861,2.3861,0.0,2.4116,2.4116,2.4273,2.4418,2.4418,2.461,2.4718,2.4718,2.4718,2.4718,2.4718,2.4718,2.4682,2.461,2.4273,2.42,2.4345,2.4538,2.4646,2.4646,2.4682,2.4766,2.4909,2.4945,2.5052,2.5241,2.5394,2.5583,2.5758,2.5955,2.6117,2.6242,2.6242,2.6242,2.6242,2.6474,2.6679,2.6871,2.5591,2.5591,2.5633,2.5737,2.5737,2.5779,2.5915,2.5968,2.5968,2.5968,2.5968,2.5968,2.5968,2.5968,2.5968,2.5968,2.5968,2.5968,2.5968,2.558,2.5485,2.5737,2.5737,2.5821,2.5968,2.5664,2.5434,2.5185,2.486,2.4642,2.4487,2.4213,2.4175,2.4237,2.3999,2.3861,2.3751,2.3751,2.3703,2.3593,2.3593,2.3593,2.3593,2.3593,2.3677,2.3751,2.3751,2.3897,2.408,2.408,2.4164,2.4236,2.4236,2.4236,2.4236,2.4236,2.3934,2.3593,2.3593,2.3593,2.3593,2.3593,2.3593,2.3593,2.3593,2.3666,2.3751,2.3751,2.3861,2.3934,2.3934,2.3934,2.3934,2.3934,2.408,2.4225,2.4225,2.4381,2.4526,2.4526,2.461,2.4646,2.4646,2.4802,2.4897,2.4897,2.5016,2.5087,2.5087,2.5087,2.5087,2.5087,2.4706,2.4586,2.479,2.4862,2.4969,2.5087,2.5159,2.5336,2.5488,2.5594,2.5721,2.5896,2.5978,2.6164,2.6349,2.6543,2.6735,2.6884,2.6973,2.6973,2.7007,2.7209,2.7343,2.7443,2.6146,2.6188,2.626,2.6404,2.6434,2.6487,2.6715,2.6757,2.6757,2.6757,2.6757,2.6757,2.6757,2.6757,2.6757,2.6757,2.6757,2.6757,2.6798,2.6321,2.6155,2.6362,2.6292,2.636,2.6546,2.6021,2.5706,2.5594,2.5058,2.4739,2.4602,2.4507,2.4478,2.4478,2.4478,2.4322,2.4177,2.4177,2.4032,2.3897,2.3897,2.3897,2.3897,2.3897,2.397,2.4116,2.4116,2.4334,2.4622,2.4622,2.473,2.4921,2.4921,2.4921,2.4921,2.4921,2.4478,2.3995,2.3897,2.3897,2.3897,2.3897,2.3897,2.3897,2.3897,2.4007,2.4116,2.4116,2.4236,2.4345,2.4345,2.4345,2.4345,2.4345,0.0,2.4562,2.4622,2.4742,2.4849,2.4921,2.4969,2.5004,2.5004,2.5182,2.53,2.53,2.5441,2.5558,2.5558,2.5558,2.5558,2.5558,2.5194,2.5052,2.5194,2.5264,2.537,2.5558,2.5699,2.5886,2.6072,2.6302,2.6461,2.6598,2.662,2.6769,2.6952,2.7108,2.7289,2.7516,2.7603,2.7636,2.7669,2.7822,2.7875,2.7941,2.6809,2.6992,2.7103,2.7133,2.7144,2.7144,2.7144,2.7144,2.7144,2.7144,2.7144,2.7144,2.7144,2.7144,2.7144,2.7144,2.7144,2.7226,2.7441,2.758,2.7418,2.6891,2.6548,2.6405,2.6405,2.5874,2.5394,2.4952,2.5268,2.5198,2.4706,2.5028,2.5206,2.5206,2.5206,2.5087,2.4909,2.4909,2.4826,2.4718,2.4718,2.4718,2.4718,2.4718,2.4718,2.4718,2.4718,2.4838,2.4945,2.4945,2.5099,2.5276,2.5276,2.5276,2.5276,2.5276,2.5241,2.5099,2.4814,2.4718,2.4718,2.4718,2.4718,2.4718,2.4718,2.4718,2.4718,2.4718,2.4765,2.4754,2.4754,2.4754,2.4754,2.4754,0.0,0.0,2.4945,2.4981,2.5052,2.5241,2.543,2.5535,2.5535,2.5886,2.6117,2.6117,2.6255,2.6311,2.6311,2.6311,2.6311,2.6311,2.5804,2.5653,2.584,2.6025,2.6186,2.6311,2.6311,2.6461,2.6645,2.6837,2.7053,2.7235,2.7369,2.7523,2.7709,2.7743,2.7855,2.8046,2.8046,2.8046,2.8046,2.8079,2.8164,2.8268,2.7516,2.7586,2.7615,2.7615,2.7615,2.7696,2.7805,2.7805,2.7846,2.8007,2.8007,2.8007,2.8007,2.8007,2.8007,2.8007,2.8007,2.8059,2.8139,2.8315,2.8092,2.7439,2.7266,2.7046,2.6665,2.6158,2.5804,2.5641,2.5612,2.5445,2.5276,2.5664,2.5769,2.5688,2.5804,2.5664,2.5382,2.5382,2.5276,2.5111,2.5111,2.5111,2.5111,2.5111,2.5194,2.5312,2.5312,2.5407,2.5571,2.5699,2.5804,2.5873,2.5978,2.5965,2.5965,2.5965,2.5965,2.5931,2.5851,2.5465,2.5111,2.5111,2.5111,2.5111,2.5111,2.5111,2.5111,2.5111,2.5111,2.5111,2.5111,2.5111,2.5111,2.5111,0.0,2.5371,2.5535,2.5664,2.5791,2.5965,2.6047,2.6082,2.6082,2.6336,2.6508,2.6508,2.6782,2.6952,2.6952,2.7053,2.7074,2.7074,2.6871,2.6645,2.6418,2.6611,2.6769,2.6952,2.704,2.7175,2.7377,2.7443,2.7623,2.7815,2.7835,2.7914,2.8,2.8072,2.817,2.8249,2.836,2.8406,2.8406,2.8406,2.8457,2.8476,2.8191,2.8231,2.8283,2.8283,2.8283,2.8311,2.8459,2.8498,2.8538,2.8669,2.8709,2.8709,2.8709,2.8736,2.8776,2.8776,2.8843,2.8882,2.8882,2.8919,2.8662,2.8011,2.7671,2.7307,2.6943,2.6432,2.6201,2.6201,2.6035,2.5955,2.5955,2.6302,2.6383,2.6258,2.6383,2.6267,2.5955,2.5955,2.5838,2.5664,2.5664,2.5664,2.5664,2.5664,2.5734,2.5838,2.5838,2.599,2.6176,2.6302,2.6405,2.6487,2.6577,2.6633,2.6667,2.6667,2.6701,2.6735,2.6735,2.638,2.5931,2.5687,2.5664,2.5664,2.5664,2.5664,2.5664,2.5664,2.5664,2.5664,2.5664,2.5664,2.5664,2.5664,2.5769,2.5921,2.6107,2.6336,2.6496,2.6667,2.6735,2.6735,2.6735,2.6952,2.7053,2.7053,2.7369,2.7536,2.7536,2.7636,2.7703,2.7703,2.7703,2.7503,2.7121,2.7209,2.7356,2.7536,2.7636,2.7769,2.7901,2.7941,2.8039,2.8164,2.8243,2.8276,2.8276,2.8346,2.8398,2.8398,2.8554,2.8619,2.8651,2.8651,2.8683,2.8748,2.8791,2.8961,2.9091,2.9091,2.9091,2.9091,2.9091,2.9091,2.9091,2.9091,2.9091,2.9091,2.9091,2.9275,2.9419,2.9419,2.96,2.9691,2.9691,2.9378,2.9013,2.8598,2.7556,2.7067,2.7195,2.6669,2.638,2.638,2.6598,2.6679,2.6726,2.6909,2.699,2.699,2.699,2.6909,2.6679,2.6679,2.6577,2.638,2.638,2.638,2.638,2.638,2.638,2.638,2.638,2.653,2.6679,2.6714,2.6841,2.7024,2.7024,2.7146,2.7302,2.7302,2.7403,2.749,2.749,2.749,2.7323,2.6586,2.6414,2.6414,2.6414,2.6414,2.6414,2.6414,2.6414,2.6414,2.6414,2.6414,2.6414,2.6414,2.6414,2.6496,2.6679,2.6871,2.7074,2.7268,2.7436,2.749,2.749,2.7689,2.7809,2.7809,2.8,2.8112,2.8112,2.8112,2.8112,2.8112,2.8112,2.8112,2.8112,2.7888,2.7888,2.8112,2.8112,2.8112,2.8112,2.8235,2.8287,2.832,2.8509,2.8587,2.8587,2.8587,2.8587,2.8587,2.8587,2.8683,2.8812,2.8812,2.894,2.9099,2.9013,2.9052,2.9091,2.9091,2.9236,2.9353,2.9585,2.9689,2.9831,2.9985,3.0011,3.0011,3.0011,3.005,3.0088,3.0088,3.0165,2.9986,2.9604,2.8711,2.8224,2.8237,2.7799,2.7395,2.7062,2.6918,2.6829,2.6829,2.6875,2.6909,2.6909,2.7113,2.7146,2.7024,2.7146,2.7113,2.6909,2.6909,2.6875,2.6829,2.6829,2.6829,2.6829,2.6829,2.6829,2.6829,2.6829,2.6964,2.7134,2.7222,2.739,2.759,2.7716,2.7815,2.7848,2.7848,2.7881,2.7914,2.7914,2.7914,2.7802,2.7289,2.7188,2.7188,2.7188,2.7188,2.7188,2.7188,2.7188,2.7188,2.7188,2.7188,2.7188,2.7188,2.7188,2.7255,2.7443,2.751,2.7656,2.7848,2.7914,2.7914,2.7914,2.7967,2.8,2.8,2.8151,2.8314,2.8425,2.8471,2.8471,2.8471,2.8471,2.8471,2.8471,2.8235,2.817,2.8235,2.8392,2.8471,2.8471,2.849,2.8541,2.8638,2.8716,2.8812,2.894,2.894,2.894,2.894,2.894,2.8972,2.9004,2.9004,2.9035,2.9099,2.9482,2.9482,2.9521,2.9599,2.9703,2.9857,2.9998,3.0152,3.0254,3.0368,3.0406,3.0406,3.0406,3.0482,3.0533,3.0533,3.0352,3.0028,2.946,2.8544,2.8006,2.7854,2.7773,2.7537,2.7214,2.7214,2.7214,2.7214,2.7214,2.7214,2.7214,2.7302,2.7302,2.7214,2.7302,2.7302,2.7214,2.7214,2.7214,2.7214,2.7268,2.7302,2.7348,2.7416,2.7449,2.7449,2.7449,2.7516,2.7636,2.7703,2.7835,2.7934,2.8046,2.8145,2.8197,2.8197,2.8229,2.8308,2.8308,2.8308,2.8243,2.8,2.7835,2.7736,2.7736,2.7736,2.7736,2.7736,2.7736,2.7736,2.7736,2.7736,2.7736,2.7736,2.7736,2.7769,2.7901,2.7941,2.8039,2.8151,2.8262,2.8308,2.8308,2.8308,2.8308,2.8308,2.8411,2.8541,2.8651,2.8748,2.8812,2.8812,2.8812,2.8812,2.8812,2.867,2.8592,2.8495,2.8716,2.8812,2.8812,2.8812,2.8844,2.8908,2.8908,2.9004,2.9099,2.9099,2.9099,2.9099,2.9099,2.9162,2.9226,2.9226,2.9257,2.9289,3.0075,3.0113,3.019,3.0368,3.0406,3.0444,3.0444,3.0444,3.0444,3.0444,3.0444,3.0444,3.0444,3.0609,3.0736,3.0736,3.0314,2.9836,2.9314,2.866,2.8072,2.7516,2.749,2.749,2.749,2.749,2.749,2.749,2.749,2.749,2.749,2.749,2.749,2.7523,2.7523,2.7536,2.757,2.757,2.757,2.757,2.7756,2.7822,2.7855,2.8046,2.8112,2.8112,2.8112,2.8112,2.8112,2.8145,2.8145,2.8145,2.8145,2.8229,2.832,2.832,2.8444,2.8587,2.8587,2.8619,2.8619,2.8619,2.8406,2.8177,2.8145,2.8145,2.8145,2.8145,2.8145,2.8145,2.8145,2.8145,2.8145,2.8145,2.8145,2.8145,2.8145,2.8281,2.8352,2.8352,2.8541,2.8651,2.8651,2.8651,2.8651,2.8651,2.8748,2.8812,2.8812,2.9004,2.9099,2.9099,2.9099,2.9099,2.9099,2.9131,2.9035,2.8812,2.9004,2.9099,2.9099,2.9099,2.9099,2.9131,2.9131,2.9131,2.9131,2.9131,2.9131,2.9131,2.9131,2.9257,2.9415,2.9415,2.9509,2.9602,3.0292,3.033,3.0368,3.0406,3.0533,3.0609,3.0609,3.0761,3.0874,3.0874,3.0874,3.0874,3.0874,3.0911,3.0911,3.0911,3.0059,2.9418,2.9323,2.8294,2.7633,2.7503,2.749,2.749,2.749,2.749,2.749,2.749,2.749,2.749,2.749,2.749,2.759,2.7723,2.7723,2.7822,2.798,2.798,2.798,2.798,2.8013,2.8033,2.8046,2.8079,2.8112,2.8112,2.8112,2.8164,2.8268,2.8457,2.8503,2.8503,2.8503,2.8522,2.8541,2.8541,2.8554,2.8587,2.8587,2.8683,2.8748,2.8748,2.8812,2.8812,2.8554,2.8503,2.8503,2.8503,2.8503,2.8503,2.8503,2.8503,2.8503,2.8503,2.8503,2.8522,2.8619,2.8683,2.8734,2.8894,2.8972,2.9004,2.9004,2.9004,2.9004,2.9004,2.9004,2.9035,2.9035,2.9067,2.9099,2.9099,2.9099,2.9099,2.9099,2.9257,2.9226,2.9035,2.9067,2.9099,2.9099,2.9099,2.9194,2.932,2.932,2.9383,2.9477,2.9477,2.9477,2.9477,2.9477,2.9509,2.954,2.954,2.9571,2.9602,3.0495,3.0533,3.0558,3.0672,3.0761,3.0849,3.0849,3.0911,3.1024,3.1123,3.1123,3.1174,3.1299,3.1299,3.118,3.089,3.0058,2.9438,2.9126,2.827,2.7802,2.7802,2.7802,2.7802,2.7802,2.7802,2.7736,2.7656,2.7656,2.7689,2.7802,2.7802,2.7835,2.7921,2.7921,2.8,2.8112,2.8112,2.8112,2.8112,2.8164,2.8197,2.8229,2.8295,2.8341,2.8341,2.8341,2.8392,2.8476,2.8554,2.8651,2.8683,2.8683,2.8748,2.8844,2.8844,2.8844,2.8844,2.8844,2.8876,2.894,2.894,2.9004,2.9035,2.8876,2.8844,2.8844,2.8844,2.8844,2.8844,2.8844,2.8844,2.8844,2.8844,2.8844,2.8844,2.894,2.894,2.8972,2.9099,2.9099,2.9099,2.9099,2.9099,2.9099,2.9099,2.9194,2.9226,2.9226,2.9289,2.9352,2.9352,2.9352,2.9352,2.9352,2.9446,2.9446,2.9352,2.9352,2.9352,2.9352,2.9352,2.9383,2.9509,2.9509,2.954,2.9602,2.9602,2.9634,2.9713,2.9713,2.9758,2.9834,2.9834,2.9834,2.9834,3.0698,3.0773,3.0836,3.1024,3.1061,3.1099,3.1099,3.1099,3.1174,3.1323,3.136,3.1397,3.1559,3.1609,3.1409,3.089,3.021,2.959,2.9097,2.8465,2.8112,2.8112,2.8112,2.8112,2.8112,2.8112,2.8,2.7855,2.7855,2.7934,2.8112,2.8112,2.8112,2.8131,2.8131,2.8145,2.8177,2.821,2.821,2.8243,2.8365,2.843,2.8463,2.8619,2.8683,2.8683,2.8683,2.8683,2.8683,2.8683,2.8748,2.8844,2.8844,2.8972,2.9099,2.9099,2.9099,2.9099,2.9099,2.9131,2.9162,2.9162,2.9162,2.9194,2.9194,2.9131,2.9099,2.9099,2.9099,2.9099,2.9099,2.9099,2.9099,2.9099,2.9099,2.9099,2.9162,2.9162,2.9162,2.9194,2.9226,2.9212,2.9212,2.9257,2.9257,2.9257,2.9415,2.9509,2.9509,2.9634,2.9696,2.9696,2.9696,2.9696,2.9696,2.9696,2.9696,2.9696,2.9696,2.9696,2.9634,2.9665,2.9696,2.9696,2.9696,2.9696,2.9696,2.9696,2.9758,2.9853,2.9884,2.9991,3.0142,3.0172,3.0172,3.0172,3.0911,3.1099,3.1235,3.1235,3.1397,3.1535,3.1535,3.1535,3.1535,3.1572,3.1572,3.1572,3.1609,3.1609,3.1569,3.1489,3.0463,2.9763,2.9669,2.8692,2.8112,2.8112,2.8112,2.8112,2.8112,2.8112,2.8079,2.8046,2.8046,2.8079,2.8112,2.8112,2.8164,2.8268,2.8268,2.8379,2.8522,2.8651,2.8716,2.8716,2.8908,2.899,2.899,2.9035,2.9035,2.9035,2.9035,2.9035,2.9035,2.9035,2.9035,2.9067,2.9067,2.9067,2.9099,2.9099,2.9099,2.9099,2.9099,2.9226,2.9352,2.9352,2.9446,2.954,2.954,2.932,2.9099,2.9099,2.9099,2.9099,2.9099,2.9099,2.9099,2.9099,2.9099,2.9162,2.932,2.9352,2.9383,2.9509,2.9637,2.973,2.973,2.9867,2.9958,2.9958,2.9988,3.0019,3.0019,3.0019,3.0019,3.0019,3.0019,3.0019,3.0019,3.0019,3.0019,3.0019,3.0144,3.0038,2.9792,2.9943,3.0019,3.0019,3.0019,3.0019,3.0019,3.0019,3.005,3.008,3.0174,3.0266,3.0296,3.0462,3.0522,3.0522,3.1336,3.141,3.1485,3.1485,3.1522,3.1609,3.1609,3.172,3.1817,3.1927,3.1986,3.2082,3.2178,3.2214,3.2092,3.1752,3.0936,3.0283,2.9923,2.9127,2.8651,2.8651,2.8651,2.8651,2.8651,2.8651,2.8651,2.8651,2.8471,2.8471,2.8651,2.8651,2.8683,2.8766,2.8766,2.8798,2.8876,2.894,2.8972,2.8972,2.9067,2.9099,2.9099,2.9099,2.9099,2.9099,2.9099,2.9099,2.9099,2.9099,2.9162,2.9257,2.9257,2.932,2.9383,2.9383,2.9383,2.9383,2.9383,2.9446,2.954,2.962,2.9682,2.9744,2.9851,2.9772,2.9602,2.9415,2.9383,2.9383,2.9383,2.9432,2.9481,2.9481,2.9602,2.9696,2.9772,2.9803,2.9803,2.9865,2.9943,2.9974,2.9974,3.0036,3.0142,3.0219,3.0219,3.028,3.0371,3.0371,3.0371,3.0371,3.0371,3.0371,3.0371,3.0371,3.0371,3.0371,3.0598,3.0493,3.0099,3.0296,3.0371,3.0371,3.0371,3.0371,3.0371,3.0371,3.0462,3.0598,3.0673,3.0822,3.0984,3.1058,3.1087,3.1087]}]]